[[{"header":{"parameterUnit":"m.s-1","parameterCategory":1,"la1":30.6,"la2":29.2853,"lo1":-89.7004,"lo2":-87.6739,"dy":0.0162,"dx":0.0183,"nx":112,"ny":82,"refTime":"2026-04-19T00:00:00:Z","depth":0,"parameterNumber":2,"parameterNumberName":"U-component_of_WINDS"},"data":[0.0,0.0,0.0,0.0,0.0,0.0,0.0,0.0,0.0,0.0,0.0,0.0,0.0,0.0,0.0,0.0,0.0,0.0,0.0,0.0,0.0,0.0,0.0,0.0,0.0,0.0,0.0,0.0,0.0,0.0,0.0,0.0,0.0,0.0,0.0,0.0,0.0,0.0,0.0,0.0,0.0,0.0,0.0,0.0,0.0,0.0,0.0,0.0,0.0,0.0,0.0,0.0,0.0,0.0,0.0,0.0,0.0,0.0,0.0,0.0,0.0,0.0,0.0,0.0,0.0,0.0,0.0,0.0,0.0,0.0,0.0,0.0,0.0,0.0,0.0,0.0,0.0,0.0,0.0,0.0,0.0,0.0,0.0,0.0,0.0,0.0,0.0,0.0,0.0,0.0,-4.652,-4.9355,-5.2121,-5.3757,-5.3645,-5.2754,-5.0596,-4.6822,0.0,0.0,0.0,0.0,0.0,0.0,0.0,0.0,0.0,0.0,0.0,0.0,0.0,0.0,0.0,0.0,0.0,0.0,0.0,0.0,0.0,0.0,0.0,0.0,0.0,0.0,0.0,0.0,0.0,0.0,0.0,0.0,0.0,0.0,0.0,0.0,0.0,0.0,0.0,0.0,0.0,0.0,0.0,0.0,0.0,0.0,0.0,0.0,0.0,0.0,0.0,0.0,0.0,0.0,0.0,0.0,0.0,0.0,0.0,0.0,0.0,0.0,0.0,0.0,0.0,0.0,0.0,0.0,0.0,0.0,0.0,0.0,0.0,0.0,0.0,0.0,0.0,0.0,0.0,0.0,0.0,0.0,0.0,0.0,0.0,0.0,0.0,0.0,0.0,0.0,0.0,0.0,0.0,0.0,0.0,0.0,0.0,0.0,0.0,0.0,0.0,0.0,0.0,0.0,-4.7066,-5.1601,-5.3107,-5.3534,-5.2828,-5.1416,-4.9148,-4.5823,0.0,0.0,0.0,0.0,0.0,0.0,0.0,0.0,0.0,0.0,0.0,0.0,0.0,0.0,0.0,0.0,0.0,0.0,0.0,0.0,0.0,0.0,0.0,0.0,0.0,0.0,0.0,0.0,0.0,0.0,0.0,0.0,0.0,0.0,0.0,0.0,0.0,0.0,0.0,0.0,0.0,0.0,0.0,0.0,0.0,0.0,0.0,0.0,0.0,0.0,0.0,0.0,0.0,0.0,0.0,0.0,0.0,0.0,0.0,0.0,0.0,0.0,0.0,0.0,0.0,0.0,0.0,0.0,0.0,0.0,0.0,0.0,0.0,0.0,0.0,0.0,0.0,0.0,0.0,0.0,0.0,0.0,0.0,0.0,0.0,0.0,0.0,0.0,0.0,0.0,0.0,0.0,0.0,0.0,0.0,0.0,0.0,0.0,0.0,0.0,0.0,0.0,0.0,-4.5844,-4.7961,-5.1565,-5.2679,-5.3014,-5.2642,-5.1082,-4.8813,-4.5605,-4.5073,0.0,0.0,0.0,0.0,0.0,0.0,0.0,0.0,0.0,0.0,0.0,0.0,0.0,0.0,0.0,0.0,0.0,0.0,0.0,0.0,0.0,0.0,0.0,0.0,0.0,0.0,0.0,0.0,0.0,0.0,0.0,0.0,0.0,0.0,0.0,0.0,0.0,0.0,0.0,0.0,0.0,0.0,0.0,0.0,0.0,0.0,0.0,0.0,0.0,0.0,0.0,0.0,0.0,0.0,0.0,0.0,0.0,0.0,0.0,0.0,0.0,0.0,0.0,0.0,0.0,0.0,0.0,0.0,0.0,0.0,0.0,0.0,0.0,0.0,0.0,0.0,0.0,0.0,0.0,0.0,0.0,0.0,0.0,0.0,0.0,0.0,0.0,0.0,0.0,0.0,0.0,0.0,0.0,0.0,0.0,0.0,0.0,0.0,0.0,0.0,0.0,0.0,-4.7353,-4.9006,-5.1193,-5.1936,-5.2234,-5.2048,-5.0488,-4.8238,-4.5254,-4.4124,0.0,0.0,0.0,0.0,0.0,0.0,0.0,0.0,0.0,0.0,0.0,0.0,0.0,0.0,0.0,0.0,0.0,0.0,0.0,0.0,0.0,0.0,0.0,0.0,0.0,0.0,0.0,0.0,0.0,0.0,0.0,0.0,0.0,0.0,0.0,0.0,0.0,0.0,0.0,0.0,0.0,0.0,0.0,0.0,0.0,0.0,0.0,0.0,0.0,0.0,0.0,0.0,0.0,0.0,0.0,0.0,0.0,0.0,0.0,0.0,0.0,0.0,0.0,0.0,0.0,0.0,0.0,0.0,0.0,0.0,0.0,0.0,0.0,0.0,0.0,0.0,0.0,0.0,0.0,0.0,0.0,0.0,0.0,0.0,0.0,0.0,0.0,0.0,0.0,0.0,0.0,0.0,0.0,0.0,0.0,0.0,0.0,0.0,0.0,0.0,0.0,0.0,-4.7846,-5.0027,-5.1287,-5.1454,-5.1193,-5.0413,-4.8816,-4.6773,-4.4246,-4.2627,0.0,0.0,0.0,0.0,0.0,0.0,0.0,0.0,0.0,0.0,0.0,0.0,0.0,0.0,0.0,0.0,0.0,0.0,0.0,0.0,0.0,0.0,0.0,0.0,0.0,0.0,0.0,0.0,0.0,0.0,0.0,0.0,0.0,0.0,0.0,0.0,0.0,0.0,0.0,0.0,0.0,0.0,0.0,0.0,0.0,0.0,0.0,0.0,0.0,0.0,0.0,0.0,0.0,0.0,0.0,0.0,0.0,0.0,0.0,0.0,0.0,0.0,0.0,0.0,0.0,0.0,0.0,0.0,0.0,0.0,0.0,0.0,0.0,0.0,0.0,0.0,0.0,0.0,0.0,0.0,0.0,0.0,0.0,0.0,0.0,0.0,0.0,0.0,0.0,0.0,0.0,0.0,0.0,0.0,0.0,0.0,0.0,0.0,0.0,0.0,0.0,0.0,-4.6101,-4.8297,-5.0138,-5.0171,-4.9985,-4.9898,-4.82,-4.6176,-4.3898,0.0,0.0,0.0,0.0,0.0,0.0,0.0,0.0,0.0,0.0,0.0,0.0,0.0,0.0,0.0,0.0,0.0,0.0,0.0,0.0,0.0,0.0,0.0,0.0,0.0,0.0,0.0,0.0,0.0,0.0,0.0,0.0,0.0,0.0,0.0,0.0,0.0,0.0,0.0,0.0,0.0,0.0,0.0,0.0,0.0,0.0,0.0,0.0,0.0,0.0,0.0,0.0,0.0,0.0,0.0,0.0,0.0,0.0,0.0,0.0,0.0,0.0,0.0,0.0,0.0,0.0,0.0,0.0,0.0,0.0,0.0,0.0,0.0,0.0,0.0,0.0,0.0,0.0,0.0,0.0,0.0,0.0,0.0,0.0,0.0,0.0,0.0,0.0,0.0,0.0,0.0,0.0,0.0,0.0,0.0,0.0,0.0,0.0,0.0,0.0,0.0,0.0,-4.2832,-4.4831,-4.6783,-4.8693,-4.8696,-4.8655,-4.8879,-4.6984,-4.4998,-4.3065,0.0,0.0,0.0,0.0,0.0,0.0,0.0,0.0,0.0,0.0,0.0,0.0,0.0,0.0,0.0,0.0,0.0,0.0,0.0,0.0,0.0,0.0,0.0,0.0,0.0,0.0,0.0,0.0,0.0,0.0,0.0,0.0,0.0,0.0,0.0,0.0,0.0,0.0,0.0,0.0,0.0,0.0,0.0,0.0,0.0,0.0,0.0,0.0,0.0,0.0,0.0,0.0,0.0,0.0,0.0,0.0,0.0,0.0,0.0,0.0,0.0,0.0,0.0,0.0,0.0,0.0,0.0,0.0,0.0,0.0,0.0,0.0,0.0,0.0,0.0,0.0,0.0,0.0,0.0,0.0,0.0,0.0,0.0,0.0,0.0,0.0,0.0,0.0,0.0,0.0,0.0,0.0,0.0,0.0,0.0,0.0,0.0,0.0,0.0,0.0,0.0,0.0,-4.2534,-4.4435,-4.6012,-4.7082,-4.7176,-4.7176,-4.7176,-4.4997,-4.3008,0.0,0.0,0.0,0.0,0.0,0.0,0.0,0.0,0.0,0.0,0.0,0.0,0.0,0.0,0.0,0.0,0.0,0.0,0.0,0.0,0.0,0.0,0.0,0.0,0.0,0.0,0.0,0.0,0.0,0.0,0.0,0.0,0.0,0.0,0.0,0.0,0.0,0.0,0.0,0.0,0.0,0.0,0.0,0.0,0.0,0.0,0.0,0.0,0.0,0.0,0.0,0.0,0.0,0.0,0.0,0.0,0.0,0.0,0.0,0.0,0.0,0.0,0.0,0.0,0.0,0.0,0.0,0.0,0.0,0.0,0.0,0.0,0.0,0.0,0.0,0.0,0.0,0.0,0.0,0.0,0.0,0.0,0.0,0.0,0.0,0.0,0.0,0.0,0.0,0.0,0.0,0.0,0.0,0.0,0.0,0.0,0.0,0.0,0.0,0.0,0.0,0.0,0.0,-4.1747,-4.3721,-4.5434,-4.6715,-4.6637,-4.659,-4.6809,-4.4981,-4.3066,-4.13,0.0,0.0,0.0,0.0,0.0,0.0,0.0,0.0,0.0,0.0,0.0,0.0,0.0,0.0,0.0,0.0,0.0,0.0,0.0,0.0,0.0,0.0,0.0,0.0,0.0,0.0,0.0,0.0,0.0,0.0,0.0,0.0,0.0,0.0,0.0,0.0,0.0,0.0,0.0,0.0,0.0,0.0,0.0,0.0,0.0,0.0,0.0,0.0,0.0,0.0,0.0,0.0,0.0,0.0,0.0,0.0,0.0,0.0,0.0,0.0,0.0,0.0,0.0,0.0,0.0,0.0,0.0,0.0,0.0,0.0,0.0,0.0,0.0,0.0,0.0,0.0,0.0,0.0,0.0,0.0,0.0,0.0,0.0,0.0,0.0,0.0,0.0,0.0,0.0,0.0,0.0,0.0,0.0,0.0,0.0,0.0,0.0,0.0,0.0,0.0,0.0,0.0,-4.1168,-4.3008,-4.4645,-4.6028,-4.5995,-4.584,-4.5736,-4.4421,-4.2625,-4.032,0.0,0.0,0.0,0.0,0.0,0.0,0.0,0.0,0.0,0.0,0.0,0.0,0.0,0.0,0.0,0.0,0.0,0.0,0.0,0.0,0.0,0.0,0.0,0.0,0.0,0.0,0.0,0.0,0.0,0.0,0.0,0.0,0.0,0.0,0.0,0.0,0.0,0.0,0.0,0.0,0.0,0.0,0.0,0.0,0.0,0.0,0.0,0.0,0.0,0.0,0.0,0.0,0.0,0.0,0.0,0.0,0.0,0.0,0.0,0.0,0.0,0.0,0.0,0.0,0.0,0.0,0.0,0.0,0.0,0.0,0.0,0.0,0.0,0.0,0.0,0.0,0.0,0.0,0.0,0.0,0.0,0.0,0.0,0.0,0.0,0.0,0.0,0.0,0.0,0.0,0.0,0.0,0.0,0.0,0.0,0.0,0.0,0.0,0.0,0.0,0.0,0.0,-4.0688,-4.2327,-4.3759,-4.5156,-4.5294,-4.5044,-4.438,-4.3552,-4.1899,-3.9068,0.0,0.0,0.0,0.0,0.0,0.0,0.0,0.0,0.0,0.0,0.0,0.0,0.0,0.0,0.0,0.0,0.0,0.0,0.0,0.0,0.0,0.0,0.0,0.0,0.0,0.0,0.0,0.0,0.0,0.0,0.0,0.0,0.0,0.0,0.0,0.0,0.0,0.0,0.0,0.0,0.0,0.0,0.0,0.0,0.0,0.0,0.0,0.0,0.0,0.0,0.0,0.0,0.0,0.0,0.0,0.0,0.0,0.0,0.0,0.0,-3.6998,-3.6199,0.0,0.0,0.0,0.0,0.0,0.0,0.0,0.0,0.0,0.0,0.0,0.0,0.0,0.0,0.0,0.0,0.0,0.0,0.0,0.0,0.0,0.0,0.0,0.0,0.0,0.0,0.0,0.0,0.0,0.0,0.0,0.0,0.0,0.0,0.0,0.0,0.0,0.0,0.0,0.0,-3.9801,-4.1885,-4.3552,-4.4423,-4.4527,-4.4483,-4.4311,-4.3034,-4.1287,-3.8967,-3.7478,0.0,0.0,0.0,0.0,0.0,0.0,0.0,0.0,0.0,0.0,0.0,0.0,0.0,0.0,0.0,0.0,0.0,0.0,0.0,0.0,0.0,0.0,0.0,0.0,0.0,0.0,0.0,0.0,0.0,0.0,0.0,0.0,0.0,0.0,0.0,0.0,0.0,0.0,0.0,0.0,0.0,0.0,0.0,0.0,0.0,0.0,0.0,0.0,0.0,0.0,0.0,0.0,0.0,0.0,0.0,0.0,0.0,0.0,0.0,-3.8728,-3.7585,0.0,0.0,0.0,0.0,0.0,0.0,0.0,0.0,0.0,0.0,0.0,0.0,0.0,0.0,0.0,0.0,0.0,0.0,0.0,0.0,0.0,0.0,0.0,0.0,0.0,0.0,0.0,0.0,0.0,0.0,0.0,0.0,0.0,0.0,0.0,0.0,0.0,0.0,0.0,0.0,-3.9213,-4.1121,-4.262,-4.3348,-4.3632,-4.3621,-4.3241,-4.2482,-4.1229,-3.934,-3.7863,0.0,0.0,0.0,0.0,0.0,0.0,0.0,0.0,0.0,0.0,0.0,0.0,0.0,0.0,0.0,0.0,0.0,0.0,0.0,0.0,0.0,0.0,0.0,0.0,0.0,0.0,0.0,0.0,0.0,0.0,0.0,0.0,0.0,0.0,0.0,0.0,0.0,0.0,0.0,0.0,0.0,0.0,0.0,0.0,0.0,0.0,0.0,0.0,0.0,0.0,0.0,0.0,0.0,-4.286,-4.3028,-4.2886,-4.3974,-4.4016,-4.3145,-4.1096,-3.9888,-3.9335,-3.8897,0.0,0.0,0.0,0.0,0.0,0.0,0.0,0.0,0.0,0.0,0.0,0.0,0.0,0.0,0.0,0.0,0.0,0.0,0.0,0.0,0.0,0.0,-3.5614,-3.6599,-3.7686,-3.8173,-3.7021,0.0,0.0,0.0,0.0,0.0,0.0,0.0,0.0,0.0,0.0,0.0,-3.8614,-4.0256,-4.1537,-4.2147,-4.2561,-4.2524,-4.1871,-4.1641,-4.0988,-3.9581,-3.8242,-3.6759,0.0,0.0,0.0,0.0,0.0,0.0,0.0,0.0,0.0,0.0,0.0,0.0,0.0,0.0,0.0,0.0,0.0,0.0,0.0,0.0,0.0,0.0,0.0,0.0,0.0,0.0,0.0,0.0,0.0,0.0,0.0,0.0,-3.7907,-3.7675,0.0,0.0,0.0,0.0,0.0,0.0,0.0,0.0,0.0,0.0,0.0,0.0,0.0,-4.0112,-3.9382,-4.1053,-4.2422,-4.3484,-4.4705,-4.5741,-4.6574,-4.6796,-4.6454,-4.5783,-4.5465,0.0,-4.207,-4.2017,0.0,0.0,0.0,0.0,0.0,0.0,0.0,0.0,0.0,0.0,0.0,0.0,0.0,0.0,0.0,0.0,0.0,0.0,0.0,0.0,0.0,0.0,-3.8754,-3.8354,-3.8357,-3.8455,-3.8273,-3.7778,-3.7128,-3.6248,-3.5738,-3.5038,0.0,0.0,0.0,0.0,0.0,0.0,-3.7608,-3.9546,-4.0915,-4.1016,-4.1069,-4.1062,-4.0961,-4.0329,-3.9564,-3.8698,-3.7892,-3.7004,-3.6061,-3.4019,0.0,0.0,0.0,0.0,0.0,0.0,0.0,0.0,0.0,0.0,0.0,0.0,0.0,0.0,0.0,0.0,0.0,0.0,0.0,0.0,0.0,0.0,0.0,0.0,0.0,0.0,0.0,0.0,0.0,-3.8147,-3.8986,-3.8482,-3.9102,-3.9127,0.0,0.0,0.0,0.0,0.0,0.0,0.0,0.0,0.0,-4.0703,-4.1198,-4.1771,-4.245,-4.3287,-4.4153,-4.5004,-4.5618,-4.6109,-4.6576,-4.6576,-4.6229,-4.5698,-4.5698,-4.4876,-4.353,-4.3189,-4.2182,-4.0794,0.0,0.0,0.0,0.0,-3.8679,-3.8508,-3.7977,-3.7831,-3.7612,-3.6383,0.0,0.0,0.0,0.0,0.0,0.0,0.0,-3.6535,-3.8037,-3.8685,-3.9062,-3.949,-3.9613,-3.9613,-3.9613,-3.9088,-3.8177,-3.6898,-3.6905,-3.6483,-3.4565,-3.4685,0.0,0.0,0.0,-3.6725,-3.7229,-3.8611,-3.9544,-3.9659,-3.9954,-4.0139,-4.0139,-3.9778,-3.9476,-3.9116,-3.8447,-3.7753,-3.7194,-3.5614,-3.4551,0.0,0.0,0.0,0.0,0.0,0.0,0.0,0.0,0.0,0.0,0.0,0.0,0.0,0.0,0.0,0.0,0.0,0.0,0.0,0.0,0.0,0.0,0.0,0.0,0.0,0.0,0.0,0.0,-3.8951,-3.9467,-3.8811,-3.9321,-3.9388,0.0,0.0,0.0,0.0,0.0,0.0,-3.9563,-4.03,-4.1241,-4.2445,-4.2804,-4.3511,-4.4716,-4.4831,-4.5332,-4.6123,-4.6123,-4.6271,-4.6518,-4.6518,-4.6231,-4.5641,-4.5473,-4.5127,-4.4462,-4.3703,-4.2747,-4.1715,-4.0956,-4.041,-4.001,-3.9936,-3.981,-3.975,-3.946,-3.9246,-3.8909,-3.7409,-3.6736,-3.6269,-3.4969,0.0,0.0,0.0,0.0,-3.6277,-3.8587,-3.8913,-3.8914,-4.0056,-4.0318,-4.0331,-4.047,-4.0105,-3.9311,-3.784,-3.7935,-3.7612,-3.5677,-3.5428,0.0,-3.539,-3.5739,-3.6249,-3.6933,-3.7689,-3.8282,-3.8427,-3.8838,-3.9135,-3.9162,-3.9216,-3.9216,-3.9189,-3.8692,-3.8263,-3.791,-3.6964,-3.5952,-3.4881,0.0,0.0,0.0,0.0,0.0,0.0,0.0,0.0,0.0,0.0,0.0,0.0,0.0,0.0,0.0,0.0,0.0,0.0,0.0,0.0,0.0,0.0,0.0,0.0,0.0,0.0,0.0,0.0,0.0,-3.8062,-4.0359,0.0,0.0,0.0,0.0,-4.0052,-4.1223,-4.2244,-4.2859,-4.405,-4.4318,-4.3453,-4.4614,-4.4801,-4.394,-4.4491,-4.5289,-4.6397,-4.6397,-4.6888,-4.7881,-4.7881,-4.7544,-4.6876,-4.6287,-4.5697,-4.5071,-4.3825,-4.2896,-4.2165,-4.1198,-4.0633,-4.0336,-3.9927,-3.966,-3.9494,-3.948,-3.9116,-3.8723,-3.9228,-3.8733,-3.7766,-3.706,-3.6164,0.0,0.0,-3.7206,-3.7501,-3.8842,-3.9081,-3.9148,-3.9802,-3.9828,-3.9874,-4.0401,-4.0474,-4.0228,-3.9524,-3.8387,-3.7404,-3.6906,0.0,-3.5741,-3.5338,-3.5932,-3.6374,-3.6435,-3.7035,-3.7476,-3.7476,-3.7685,-3.786,-3.7972,-3.8177,-3.8177,-3.8001,-3.8144,-3.8112,-3.7908,-3.7375,-3.6583,-3.5671,-3.4215,0.0,0.0,0.0,0.0,0.0,0.0,0.0,0.0,0.0,0.0,0.0,0.0,0.0,0.0,0.0,0.0,0.0,0.0,0.0,0.0,0.0,0.0,0.0,0.0,0.0,0.0,0.0,0.0,-3.9723,-4.0668,0.0,-4.0377,-4.0521,-4.0646,-4.0586,-4.1367,-4.2225,-4.2988,-4.3814,-4.4275,-4.4282,-4.4705,-4.4784,-4.4434,-4.4617,-4.4884,-4.5288,-4.5288,-4.5502,-4.59,-4.59,-4.5578,-4.5014,-4.4799,-4.4154,-4.3241,-4.2762,-4.2706,-4.2929,-4.257,-4.2104,-4.1623,-4.1443,-4.1135,-4.0712,-4.0101,-3.947,-3.8863,-3.8135,-3.7799,-3.7469,-3.6641,-3.6673,-3.6996,-3.7274,-3.7514,-3.789,-3.8779,-3.8763,-3.8619,-3.8813,-3.8768,-3.8708,-3.8891,-3.9493,-3.9889,-3.9677,-3.8828,-3.7832,-3.6817,-3.6105,-3.5609,-3.545,-3.5635,-3.6036,-3.6532,-3.6903,-3.718,-3.7268,-3.7417,-3.7506,-3.7565,-3.7623,-3.7653,-3.7594,-3.7653,-3.7653,-3.7594,-3.7517,-3.6866,-3.5535,-3.4671,-3.3202,0.0,0.0,0.0,0.0,0.0,0.0,0.0,0.0,0.0,0.0,0.0,0.0,0.0,0.0,0.0,0.0,0.0,0.0,0.0,0.0,0.0,0.0,0.0,0.0,0.0,-3.8778,-3.9904,-4.0566,-4.1167,-4.1518,-4.1501,-4.135,-4.1317,-4.1527,-4.1903,-4.25,-4.3413,-4.3986,-4.4431,-4.4668,-4.4931,-4.4931,-4.4668,-4.4668,-4.4668,-4.4668,-4.4668,-4.4668,-4.4668,-4.4668,-4.4513,-4.4147,-4.3964,-4.3337,-4.2448,-4.229,-4.2358,-4.2622,-4.2403,-4.2137,-4.1945,-4.1726,-4.1425,-4.0996,-3.9976,-3.9256,-3.8604,-3.7629,-3.7307,-3.7154,-3.6586,-3.6743,-3.7193,-3.7225,-3.7431,-3.7758,-3.8363,-3.8173,-3.7861,-3.8062,-3.7838,-3.7663,-3.7936,-3.8598,-3.9169,-3.9271,-3.907,-3.8569,-3.7677,-3.6753,-3.6168,-3.6168,-3.5984,-3.6045,-3.6569,-3.6754,-3.6877,-3.6968,-3.7058,-3.7178,-3.727,-3.7298,-3.7298,-3.727,-3.7077,-3.6951,-3.6892,-3.6909,-3.6359,-3.513,-3.434,-3.2768,-3.0362,0.0,0.0,0.0,0.0,0.0,0.0,0.0,0.0,0.0,0.0,0.0,0.0,0.0,0.0,0.0,0.0,0.0,0.0,0.0,0.0,0.0,0.0,0.0,-3.7833,-3.9391,-4.0466,-4.0466,-4.1976,-4.2539,-4.1464,-4.1821,-4.2358,-4.3003,-4.3,-4.3419,-4.4284,-4.4882,-4.51,-4.4746,-4.5294,-4.5375,-4.4694,-4.4748,-4.4748,-4.4668,-4.4668,-4.4668,-4.4668,-4.4668,-4.4668,-4.4696,-4.4147,-4.3572,-4.2997,-4.2422,-4.1847,-4.1272,-4.0671,-4.0801,-4.1246,-4.0644,-4.0435,-4.0252,-3.9102,-3.837,-3.7926,-3.7926,-3.7508,-3.7037,-3.7037,-3.6619,-3.6279,-3.6854,-3.7037,-3.7168,-3.7743,-3.7324,-3.6946,-3.7531,-3.7097,-3.6766,-3.7558,-3.7898,-3.8153,-3.8435,-3.9018,-3.9487,-3.9456,-3.8319,-3.746,-3.746,-3.6876,0.0,-3.6507,-3.6507,-3.6507,-3.6507,-3.66,-3.6754,-3.6969,-3.7089,-3.7088,-3.6968,-3.6462,-3.6084,-3.5878,-3.5571,-3.5102,-3.4595,-3.3143,-3.1645,-3.014,0.0,0.0,0.0,0.0,0.0,0.0,0.0,0.0,0.0,0.0,0.0,0.0,0.0,0.0,0.0,0.0,0.0,0.0,0.0,0.0,0.0,-3.6983,-3.839,-3.8591,-3.9348,-4.0484,-4.2099,-4.2381,-4.2511,-4.2801,-4.2764,-4.2971,-4.3563,-4.3781,-4.4321,-4.5109,-4.5572,-4.5767,-4.5641,-4.6047,-4.595,-4.5375,-4.532,-4.5111,-4.4668,-4.4668,-4.4668,-4.4668,-4.4668,-4.4668,-4.4668,-4.4565,-4.4173,-4.3598,-4.3023,-4.2448,-4.1873,-4.1298,-4.1167,-4.1298,-4.1115,-4.0801,-4.0252,-3.9102,-3.8606,-3.8423,-3.8031,-3.7795,-3.7665,-3.7665,-3.7534,-3.7456,-3.7612,-3.7665,-3.7691,-3.7874,-3.7101,-3.6314,-3.6532,-3.601,-3.5629,-3.6004,-3.6777,-3.751,-3.7796,-3.8473,-3.8853,-3.8376,-3.7182,-3.6387,-3.6814,-3.6304,-3.6038,-3.6445,-3.6507,-3.6507,-3.6507,-3.6507,-3.66,-3.6631,-3.6662,-3.6445,-3.5951,-3.5765,-3.5454,-3.49,-3.4889,-3.4654,-3.4105,-3.2667,-3.1538,0.0,0.0,0.0,0.0,0.0,0.0,0.0,0.0,0.0,0.0,0.0,0.0,0.0,0.0,0.0,0.0,0.0,0.0,0.0,0.0,0.0,0.0,-3.8567,-3.9722,-4.0226,-4.0578,-4.1279,-4.2811,-4.2886,-4.3017,-4.3538,-4.3652,-4.3778,-4.4117,-4.4308,-4.4694,-4.5285,-4.5713,-4.5911,-4.5768,-4.6134,-4.6017,-4.5389,-4.5265,-4.5033,-4.4668,-4.4668,-4.4668,-4.4668,-4.4668,-4.4668,-4.4668,-4.4668,-4.4408,-4.3833,-4.3258,-4.2683,0.0,0.0,0.0,0.0,0.0,-4.0932,-4.0331,-3.9651,-3.9102,-3.8658,-3.8344,-3.8083,-3.79,-3.79,-3.79,-3.79,-3.79,-3.79,-3.79,-3.79,-3.7011,-3.6096,-3.6096,-3.5447,-3.488,-3.5127,-3.5763,-3.6373,-3.6638,-3.7183,0.0,-3.7261,-3.6655,-3.63,-3.6637,-3.5932,-3.5494,-3.5784,-3.5816,-3.5816,-3.5816,-3.6037,-3.6163,-3.6163,-3.6352,0.0,0.0,0.0,-3.4659,-3.373,-3.3785,0.0,0.0,0.0,0.0,0.0,0.0,0.0,0.0,-2.9977,-2.9949,0.0,0.0,0.0,0.0,0.0,0.0,0.0,0.0,0.0,0.0,0.0,0.0,0.0,0.0,0.0,0.0,-4.0224,-4.1028,-4.2062,-4.2263,-4.2514,-4.3011,-4.3514,-4.3815,-4.389,-4.4342,-4.4644,-4.4719,-4.4719,-4.486,-4.5226,-4.5707,0.0,0.0,0.0,-4.5835,-4.5159,-4.4973,-4.4798,-4.4668,-4.4668,-4.4668,-4.4668,-4.4668,-4.4668,-4.4668,-4.4668,-4.4434,-4.3912,-4.3284,-4.2631,-4.2081,-4.1507,-4.1324,-4.1324,-4.1324,-4.0984,-4.0514,-4.0435,0.0,0.0,-3.8762,-3.8397,-3.7978,-3.7926,-3.79,-3.79,-3.79,-3.79,-3.79,-3.79,-3.7063,-3.6175,-3.6123,-3.5286,-3.4585,-3.4782,-3.4962,-3.5168,-3.5345,-3.571,-3.6031,-3.6258,-3.6465,-3.6611,-3.6717,-3.5633,-3.481,-3.4876,-3.4909,-3.4909,-3.4909,0.0,0.0,-3.5623,-3.6068,-3.629,-3.6228,-3.5033,-3.3805,-3.269,-3.2567,-3.2536,-3.2536,-3.2444,-3.2385,-3.2299,-3.2441,-3.2296,-3.1857,-3.0362,-3.0439,0.0,0.0,0.0,0.0,0.0,0.0,0.0,0.0,0.0,0.0,0.0,0.0,0.0,0.0,0.0,-3.9044,-4.0654,-4.1961,-4.2187,-4.259,-4.3011,-4.3589,-4.374,-4.3966,-4.4418,-4.4568,-4.4819,-4.5296,-4.5321,-4.5522,-4.6034,-4.6458,-4.6577,-4.6535,-4.6839,-4.6527,-4.5525,-4.568,-4.5274,-4.4367,-4.4613,0.0,-4.4668,-4.4668,-4.4668,-4.4668,-4.4668,-4.467,-4.4487,-4.3441,-4.2422,-4.1455,-4.135,-4.1324,-4.1324,-4.1324,-4.1246,-4.1063,-4.0592,-4.0278,-3.9939,-3.8998,-3.8632,-3.8475,-3.8031,-3.79,0.0,-3.79,-3.79,-3.79,-3.79,-3.7377,-3.6698,-3.6227,-3.56,-3.5083,-3.4861,-3.4962,-3.5168,-3.5345,-3.5588,-3.575,-3.5858,-3.5481,-3.5419,-3.6072,-3.5079,-3.4409,-3.4843,-3.4909,-3.4909,-3.4909,-3.4975,-3.5041,-3.5041,-3.5139,-3.4996,-3.4428,-3.3654,-3.3088,-3.2821,-3.2317,-3.205,-3.205,-3.1545,-3.148,-3.1853,-3.1881,-3.2074,-3.2416,-3.18,-3.1482,0.0,0.0,0.0,0.0,0.0,0.0,0.0,0.0,0.0,0.0,0.0,-3.7864,-3.8693,0.0,-4.0601,-4.0877,-4.1911,-4.266,-4.2936,-4.2986,-4.3187,-4.374,-4.4041,-4.4443,-4.4995,-4.5296,-4.5598,-4.5874,-4.5899,-4.6024,-4.6301,-4.6421,-4.6566,-4.6566,-4.6561,-4.6305,-4.577,-4.5468,-4.5072,-4.4531,-4.4332,-4.4313,-4.4313,-4.4313,-4.4367,-4.4531,-4.4531,-4.4559,-4.4589,-4.3493,-4.2526,-4.1716,-4.1428,-4.1324,-4.1324,-4.1324,-4.1324,-4.1272,-4.0958,-4.0671,-4.0278,-3.9442,-3.8945,-3.8606,-3.8057,-3.79,-3.79,-3.79,-3.79,-3.79,-3.79,-3.7456,-3.6854,-3.6253,-3.5678,-3.5172,-3.4721,-3.4688,-3.4771,-3.4895,-3.5059,-3.529,-3.5386,-3.4977,-3.4733,-3.5069,-3.4128,-3.352,-3.3899,-3.4065,-3.4099,-3.4099,-3.4341,-3.4509,-3.4509,-3.4743,-3.461,-3.3962,-3.3606,-3.325,-3.2924,-3.2572,-3.2395,-3.2395,-3.2102,-3.2077,-3.2288,-3.1961,-3.2108,-3.2732,-3.2182,-3.2098,0.0,0.0,0.0,0.0,0.0,0.0,0.0,-3.6787,-3.6737,-3.8341,-3.8743,-3.932,-4.0974,-4.1451,-4.1957,-4.2836,-4.3062,-4.3338,-4.389,-4.3489,-4.3338,-4.389,-4.4267,-4.4744,-4.5422,-4.5899,-4.62,-4.6301,-4.6301,-4.6301,-4.6301,-4.6301,-4.6301,-4.6301,-4.6112,-4.5876,-4.5649,-4.5049,-4.4684,-4.4454,-4.4049,-4.3899,-4.3899,-4.3899,-4.401,-4.4203,-4.4203,-4.4289,-4.4271,-4.3283,-4.2528,-4.2057,-4.1432,-4.1248,-4.1324,-4.1324,-4.1324,-4.1324,-4.1324,-4.101,-4.0488,-3.9939,-3.9364,-3.8789,-3.8214,-3.7978,-3.79,-3.79,-3.79,-3.79,-3.79,-3.7534,-3.7037,-3.641,-3.5861,-3.5286,-3.4711,-3.4476,-3.4397,-3.4397,-3.4564,-3.4756,-3.4962,-3.4579,-3.4271,-3.4181,-3.333,-3.2806,-3.2846,-3.3051,-3.3192,-3.3227,-3.3652,-3.3934,-3.3934,-3.4341,-3.4372,-3.3813,-3.3784,-3.3518,-3.3019,-3.2873,-3.2815,-3.2815,-3.2698,-3.2674,-3.2771,-3.2213,-3.2304,-3.2897,-3.2336,-3.2525,-3.5708,-3.5458,-3.5859,-3.7362,-3.7362,-3.7663,0.0,-3.9973,-3.9546,-4.0674,-4.1354,-4.163,-4.1326,-4.2133,-4.2836,-4.2961,-4.3388,-4.389,-4.4443,-4.4066,-4.3915,-4.4468,-4.4141,-4.4317,-4.5397,-4.5547,-4.5773,-4.6276,-4.6301,-4.6301,-4.6301,-4.6301,-4.6301,-4.6301,-4.625,-4.5783,-4.4777,-4.494,-4.4554,-4.3563,-4.3789,-4.3899,-4.3899,-4.3899,-4.3899,-4.3955,-4.3955,-4.3647,-4.3108,-4.2545,-4.2111,-4.1672,-4.1154,-4.1097,-4.1324,-4.1324,-4.1324,-4.1324,-4.1324,-4.1272,-4.1115,-4.0514,-3.9965,-3.939,-3.8789,-3.8292,-3.79,-3.79,-3.79,-3.79,-3.79,-3.7848,-3.7665,-3.7037,-3.6436,-3.5861,-3.5312,-3.4763,-3.4397,-3.4397,-3.4439,-3.4439,-3.4481,-3.4035,-3.374,-3.3923,-3.3387,-3.2836,-3.2508,-3.2632,-3.2846,-3.3023,-3.3262,-3.3396,-3.3396,-3.3437,-3.3444,-3.3388,-3.3388,-3.3359,-3.324,-3.2732,-3.2455,-3.2455,-3.1919,-3.1866,-3.2259,-3.2202,-3.2425,-3.2895,-3.2836,-3.2935,-3.7613,-3.7487,-3.7789,-3.9145,-3.9295,-3.9597,-4.1404,-4.1204,-4.0953,-4.2057,-4.2735,-4.3037,-4.2811,-4.3137,-4.3463,-4.3463,-4.3639,-4.3991,-4.4543,-4.4141,-4.389,-4.4116,-4.394,-4.4242,-4.5372,-4.5497,-4.5723,-4.6276,-4.6301,-4.6301,-4.6301,-4.6301,-4.6301,-4.6301,-4.6301,-4.5924,-4.5121,-4.4911,-4.4414,-4.3607,-4.3473,-4.3376,-4.3376,-4.3376,-4.3487,-4.3653,-4.3844,-4.3771,-4.3464,-4.2567,-4.2134,-4.1878,-4.1003,-4.0744,-4.0846,-4.1174,-4.1324,-4.1324,-4.1324,-4.1324,-4.1219,-4.0618,-4.0252,-3.9913,-3.8998,-3.8553,-3.8318,-3.8004,-3.79,-3.79,-3.79,-3.79,-3.7743,-3.7142,-3.6802,-3.6384,-3.5495,-3.5103,-3.4816,-3.4476,-3.4397,-3.4397,-3.4397,-3.4214,-3.3998,-3.3754,-3.3111,-3.2509,-3.2164,-3.2237,-3.2417,-3.2632,-3.281,-3.3016,-3.3122,-3.3227,-3.329,-3.329,-3.329,-3.329,-3.329,-3.3073,-3.2932,-3.2932,-3.2679,-3.2641,-3.2846,-3.2477,-3.2577,-3.3121,-3.2777,-3.2811,-3.8668,-3.8969,-3.9546,-4.0501,-4.0978,-4.1404,-4.2263,-4.2183,-4.2233,-4.3037,-4.3639,-4.3991,-4.384,-4.3915,-4.4041,-4.4041,-4.4166,-4.4392,-4.4794,-4.4518,-4.4217,-4.4041,-4.389,-4.4192,-4.5146,-4.5246,-4.5472,-4.605,-4.6075,-4.615,-4.6301,-4.6301,-4.6301,-4.6301,-4.6301,-4.5974,-4.5246,-4.4844,-4.4267,-4.3564,-4.3162,-4.2986,-4.2986,-4.2986,-4.3129,-4.3295,-4.3543,-4.3653,-4.3577,-4.2429,-4.2023,-4.1949,-4.0824,-4.044,-4.0567,-4.0972,-4.1123,-4.1198,-4.1274,-4.1324,-4.1246,-4.0801,-4.054,-4.0226,-3.9259,-3.8841,-3.8606,-3.8057,-3.79,-3.79,-3.79,-3.79,-3.7795,-3.7351,-3.7116,-3.6724,-3.573,-3.5391,-3.5129,-3.4528,-3.4397,-3.4397,-3.4397,-3.4397,-3.4214,-3.3666,-3.3093,-3.2546,-3.2027,-3.2008,-3.2092,-3.2309,-3.2453,-3.2596,-3.2739,-3.2945,-3.3086,-3.3122,-3.3192,-3.3227,-3.329,-3.329,-3.329,-3.329,-3.329,-3.329,-3.329,-3.2876,-3.2876,-3.3262,-3.2876,-3.2904,-3.8191,-3.922,-4.0601,-4.1125,-4.2108,-4.2911,-4.2936,-4.3363,-4.374,-4.3765,-4.4217,-4.4443,-4.389,-4.4242,-4.4593,-4.4593,-4.507,-4.5447,-4.5472,-4.5447,-4.5221,-4.4669,-4.4141,-4.4016,-4.4593,-4.4644,-4.4895,-4.5472,-4.5522,-4.5748,-4.6276,-4.6301,-4.6301,-4.6301,-4.6301,-4.5773,-4.4669,-4.4644,-4.4091,-4.3011,-4.2986,-4.2986,-4.2986,-4.2986,-4.2986,-4.3042,-4.3042,-4.3042,-4.2942,-4.1781,-4.149,-4.1631,-4.0514,-4.0287,-4.0517,-4.0491,-4.0694,-4.0946,-4.1198,-4.1324,-4.1324,-4.1298,-4.0906,-4.0305,-3.9756,-3.9181,-3.8606,-3.8057,-3.79,-3.79,-3.79,-3.79,-3.79,-3.7874,-3.7429,-3.6828,-3.6201,-3.5678,-3.5129,-3.4528,-3.4397,-3.4397,-3.4397,-3.4397,-3.4214,-3.3666,-3.3561,-3.3197,-3.221,-3.1979,-3.1936,-3.2092,-3.2092,-3.2128,-3.2128,-3.2309,-3.2525,-3.2704,-3.2917,-3.3122,-3.329,-3.329,-3.329,-3.329,-3.329,-3.329,-3.329,-3.3262,-3.3262,-3.329,-3.3262,-3.3262,-4.0478,-4.143,-4.2359,-4.3288,-4.379,-4.4166,-4.4568,-4.4794,-4.4819,-4.4418,-4.4493,-4.4342,-4.3413,-4.3413,-4.3639,-4.4016,-4.4543,-4.5045,-4.5422,-4.5497,-4.5271,-4.4694,-4.4794,-4.4694,-4.4141,-4.4091,-4.4317,-4.4869,-4.5271,-4.5573,-4.5748,-4.6125,-4.6301,-4.6301,-4.5949,-4.5397,-4.4644,-4.4267,-4.3714,-4.2986,-4.2986,-4.2986,-4.2986,-4.2986,-4.2986,-4.2986,-4.2986,-4.2816,-4.2439,-4.163,-4.1128,-4.0807,-4.0129,-3.9878,-4.0006,-4.0185,-4.0287,-4.044,-4.0694,-4.0744,-4.0821,-4.0997,-4.0917,-4.0631,-4.0256,-3.9756,-3.9181,-3.8606,-3.8187,-3.79,-3.79,-3.79,-3.79,-3.79,-3.7743,-3.7429,-3.6828,-3.6253,-3.5678,-3.5103,-3.4659,-3.4397,-3.4397,-3.4397,-3.4345,-3.4162,-3.3483,-3.2895,-3.2542,-3.2107,-3.1891,-3.2053,-3.1893,-3.1827,-3.1936,-3.2092,-3.2237,-3.2309,-3.2489,-3.2704,-3.2881,-3.3023,-3.3157,-3.329,-3.329,-3.329,-3.329,-3.329,-3.329,-3.329,-3.329,-3.329,-4.181,-4.2836,-4.374,-4.4443,-4.4769,-4.497,-4.5146,-4.5171,-4.502,-4.4443,-4.4166,-4.3765,-4.2861,-4.274,-4.2936,-4.3689,-4.4267,-4.4819,-4.5422,-4.5673,-4.5573,-4.4995,-4.5271,-4.5196,-4.4468,-4.4041,-4.394,-4.4292,-4.4844,-4.5271,-4.5472,-4.6024,-4.6301,-4.6301,-4.5773,-4.5221,-4.4644,-4.4091,-4.3514,-4.2986,-4.2986,-4.2986,-4.2986,-4.2986,-4.2986,-4.2986,-4.2986,-4.2715,-4.2162,-4.1555,-4.0949,-4.045,-3.9898,-3.9697,-3.9749,-3.9878,-3.9981,-4.0032,-4.0338,-4.0517,-4.0542,-4.0694,-4.0744,-4.0692,-4.0346,-3.9897,-3.9325,-3.882,-3.8318,-3.79,-3.79,-3.79,-3.79,-3.79,-3.79,-3.7743,-3.7142,-3.6698,-3.6201,-3.5443,-3.4972,-3.4659,-3.4424,-3.4397,-3.4397,-3.4397,-3.377,-3.3221,-3.3038,-3.2515,-3.211,-3.2016,-3.18,-3.166,-3.1559,-3.1716,-3.1836,-3.1909,-3.2092,-3.2309,-3.2489,-3.2596,-3.2775,-3.298,-3.3051,-3.3122,-3.3192,-3.3262,-3.329,-3.329,-3.329,-3.329,-4.2363,-4.3489,-4.4719,-4.4719,-4.5121,-4.5372,-4.4794,-4.4669,-4.4493,-4.389,-4.3288,-4.2735,-4.2238,-4.2112,-4.2489,-4.3589,-4.4242,-4.4844,-4.5447,-4.5974,-4.6125,-4.5598,-4.5522,-4.5522,-4.5497,-4.4518,-4.3865,-4.384,-4.4317,-4.4869,-4.5447,-4.6024,-4.6301,-4.6301,-4.5748,-4.5171,-4.4644,-4.4041,-4.3489,-4.2986,-4.2986,-4.2986,-4.2986,-4.2986,-4.2986,-4.2986,-4.2986,-4.2715,-4.2137,-4.1555,-4.1003,-4.0425,-3.9898,-3.9697,-3.9697,-3.9645,-3.9594,-3.9697,-4.0185,-4.0389,-4.044,-4.0466,-4.0466,-4.0389,-4.01,-3.9631,-3.9158,-3.8825,-3.8324,-3.788,-3.7854,-3.7854,-3.7854,-3.7854,-3.79,-3.7743,-3.7168,-3.7011,-3.6671,-3.56,-3.5338,-3.5103,-3.4502,-3.4397,-3.4397,-3.4397,-3.4397,-3.4214,-3.3692,-3.3117,-3.2542,-3.1954,-3.1876,-3.1615,-3.1078,-3.1213,-3.141,-3.1569,-3.1753,-3.19,-3.2055,-3.2092,-3.2164,-3.2381,-3.2561,-3.2775,-3.2988,-3.3157,-3.329,-3.329,-3.329,-3.329,-4.4292,-4.5246,-4.5874,-4.5874,-4.5999,-4.5949,-4.5397,-4.5271,-4.4869,-4.3463,-4.2434,-4.158,-4.1028,-4.0927,-4.143,-4.2936,-4.3991,-4.497,-4.5949,-4.6225,-4.625,-4.6125,-4.61,-4.5949,-4.5522,-4.5221,-4.4869,-4.4443,-4.4543,-4.4869,-4.5447,-4.6024,-4.6301,-4.6301,-4.5347,-4.4769,-4.4618,-4.3664,-4.3112,-4.2986,-4.2986,-4.2986,-4.2986,-4.2986,-4.2986,-4.2986,-4.2986,-4.2434,-4.153,-4.1351,-4.0777,-3.9898,-3.9747,-3.9697,-3.9594,-3.8712,-3.8372,-3.8372,-3.853,-3.9129,-3.9955,-4.0134,-4.0185,-4.0211,-4.0337,-3.9976,-3.9385,-3.8917,-3.8376,-3.7788,-3.7423,-3.7459,-3.7598,-3.7598,-3.7762,-3.7874,-3.7717,-3.7325,-3.6907,-3.6619,-3.5887,-3.5103,-3.4502,-3.4397,-3.4397,-3.4397,-3.4397,-3.4345,-3.4214,-3.3718,-3.33,-3.3169,-3.2751,-3.2254,-3.1641,-3.1665,-3.152,-3.1149,-3.1347,-3.1532,-3.1726,-3.1863,-3.2009,-3.2164,-3.2237,-3.2345,-3.2561,-3.2739,-3.2917,-3.3058,-3.3227,-3.329,-4.5221,-4.5899,-4.6301,-4.6301,-4.6125,-4.5748,-4.492,-4.4367,-4.3564,-4.1882,-4.0651,-3.9848,-3.9798,-3.9798,-4.0501,-4.2635,-4.3689,-4.4744,-4.6125,-4.6301,-4.6301,-4.6301,-4.6301,-4.6175,-4.5874,-4.5623,-4.5447,-4.5372,-4.5146,-4.5146,-4.5472,-4.6024,-4.62,-4.5949,-4.5095,-4.4392,-4.3915,-4.3288,-4.2986,-4.2986,-4.2986,-4.2986,-4.2986,-4.2986,-4.2986,-4.2986,-4.2986,-4.2484,-4.1681,-4.1376,-4.0827,-3.9971,-3.9176,-3.8921,-3.8764,-3.7607,-3.718,-3.718,-3.718,-3.7607,-3.8372,-3.9544,-3.9929,-3.9981,-4.0236,-3.955,-3.8617,-3.8466,-3.7813,-3.7086,-3.6759,-3.7006,-3.732,-3.732,-3.7459,-3.7551,-3.7716,-3.7456,-3.7189,-3.7063,-3.607,-3.5182,-3.4842,-3.458,-3.4397,-3.4397,-3.4397,-3.4397,-3.4397,-3.4136,-3.3849,-3.3613,-3.33,-3.2855,-3.2254,-3.2163,-3.2071,-3.1757,-3.161,-3.1566,-3.1679,-3.158,-3.1569,-3.1753,-3.1836,-3.1982,-3.2191,-3.2345,-3.2561,-3.2739,-3.2945,-3.3086,-4.5673,-4.605,-4.6401,-4.6326,-4.5899,-4.5171,-4.3966,-4.2886,-4.171,-3.9948,-3.8743,-3.8191,-3.8768,-3.8919,-3.9772,-4.2534,-4.3438,-4.4392,-4.6075,-4.6301,-4.6301,-4.6301,-4.6301,-4.6301,-4.6301,-4.5874,-4.5799,-4.6276,-4.5874,-4.5598,-4.5598,-4.605,-4.6024,-4.5397,-4.4819,-4.4016,-4.2986,-4.2849,-4.2737,-4.2737,-4.2569,-4.2513,-4.2513,-4.2513,-4.2513,-4.2513,-4.2513,-4.2165,-4.1544,-4.1017,-4.0471,-3.9798,-3.8277,-3.766,-3.7554,-3.6402,-3.5968,-3.5968,-3.5968,-3.5968,-3.6348,-3.853,-3.9258,-3.931,-3.9492,-3.8551,-3.736,-3.7494,-3.6864,-3.6061,-3.594,-3.6304,-3.6763,-3.6828,-3.6875,-3.7015,-3.7366,-3.7366,-3.714,-3.6683,-3.5779,-3.5081,-3.509,-3.4682,-3.4376,-3.4376,-3.4324,-3.4272,-3.4272,-3.4356,-3.4173,-3.3621,-3.3651,-3.3416,-3.2736,-3.2763,-3.2777,-3.2698,-3.2228,-3.1928,-3.1928,-3.147,-3.1322,-3.1472,-3.1633,-3.1846,-3.2058,-3.2216,-3.2372,-3.2554,-3.2772,-3.2952,-4.6728,-4.6928,-4.6878,-4.6426,-4.5899,-4.507,-4.3489,-4.2665,-4.1609,-3.9497,-3.8467,-3.8191,-3.8768,-3.8919,-3.9772,-4.2534,-4.3438,-4.4392,-4.6075,-4.6301,-4.6301,-4.6301,-4.6301,-4.6301,-4.6301,-4.6225,-4.62,-4.6301,-4.6225,-4.6175,-4.6175,-4.625,-4.5849,-4.4794,-4.4242,-4.3639,-4.2986,-4.198,-4.1444,-4.1386,-4.0326,-3.9861,-3.9861,-3.9861,-3.9861,-3.9861,-3.9861,-3.9324,-3.8461,-3.8367,-3.7761,-3.692,-3.6611,-3.6511,-3.6348,-3.5223,-3.4803,-3.4803,-3.4803,-3.4803,-3.5024,-3.6371,-3.6804,-3.6834,-3.6834,-3.6657,-3.6333,-3.5915,-3.5683,-3.5358,-3.4523,-3.4501,-3.4861,-3.5404,-3.5642,-3.6023,-3.6968,-3.6474,-3.5565,-3.4621,-3.4283,-3.4108,-3.4057,-3.4092,-3.4132,-3.4132,-3.3793,-3.3556,-3.3556,-3.4063,-3.4163,-3.3513,-3.3933,-3.3799,-3.2628,-3.3079,-3.3221,-3.2725,-3.2594,-3.2542,-3.2542,-3.2437,-3.2424,-3.2463,-3.2502,-3.262,-3.2814,-3.2996,-3.3188,-3.3419,-3.3582,-3.3696,-4.738,-4.733,-4.7079,-4.6803,-4.5874,-4.4518,-4.2559,-4.148,-4.0145,-3.7344,-3.6996,-3.7166,-3.7171,-3.7867,-3.9044,-4.0953,-4.1731,-4.2785,-4.4719,-4.4995,-4.5085,-4.5244,-4.5281,-4.4951,-4.4251,-4.4189,-4.4189,-4.4189,-4.4189,-4.4767,-4.624,-4.5126,-4.4224,-4.3684,-4.221,-4.1283,-4.1043,-4.0384,-4.0094,-4.0094,-3.951,-3.9216,-3.9216,-3.9216,-3.9216,-3.9216,-3.9216,-3.8941,-3.8459,-3.793,-3.7586,-3.7221,-3.6083,-3.5658,-3.5491,-3.4331,-3.3749,-3.3558,-3.3558,-3.3558,-3.3649,-3.419,-3.5223,-3.6185,-3.6185,-3.5772,-3.5288,-3.4987,-3.4687,-3.4374,-3.3852,-3.386,-3.412,-3.4463,-3.4526,-3.463,-3.5186,-3.4969,-3.4534,-3.4005,-3.3647,-3.3553,-3.3621,-3.3555,-3.3478,-3.3385,-3.3314,-3.3152,-3.2853,-3.3104,-3.3189,-3.2846,-3.3104,-3.3063,-3.2471,-3.2701,-3.2811,-3.2532,-3.2212,-3.2225,-3.2592,-3.2335,-3.234,-3.2698,-3.2698,-3.2778,-3.283,-3.2935,-3.3093,-3.3288,-3.3483,-3.3638,-4.7732,-4.7707,-4.7431,-4.7143,-4.5974,-4.4192,-4.1802,-4.0475,-3.879,-3.5478,-3.5475,-3.5888,-3.5373,-3.6479,-3.7867,-3.9162,-3.9992,-4.1279,-4.3489,-4.3662,-4.3761,-4.4267,-4.4065,-4.3419,-4.2328,-4.2201,-4.2201,-4.2201,-4.2201,-4.3122,-4.517,-4.3397,-4.2281,-4.2162,-4.0233,-3.9216,-3.9216,-3.8921,-3.8803,-3.8803,-3.8506,-3.8387,-3.8387,-3.8387,-3.8387,-3.8387,-3.8387,-3.8342,-3.8185,-3.7398,-3.7174,-3.7148,-3.5416,-3.4668,-3.4468,-3.3571,-3.3016,-3.2669,-3.2669,-3.2669,-3.2669,-3.2669,-3.3966,-3.5443,-3.5443,-3.4836,-3.4099,-3.4099,-3.3763,-3.3384,-3.3277,-3.3341,-3.351,-3.3543,-3.3545,-3.3453,-3.3204,-3.3281,-3.338,-3.3281,-3.2883,-3.2727,-3.3019,-3.2935,-3.2723,-3.255,-3.2584,-3.2499,-3.2083,-3.1893,-3.1777,-3.1821,-3.2127,-3.2215,-3.2108,-3.2215,-3.2302,-3.2302,-3.189,-3.1925,-3.2449,-3.2047,-3.2092,-3.2596,-3.2596,-3.2596,-3.2596,-3.2596,-3.2717,-3.2852,-3.2998,-3.3264,-4.7631,-4.8259,-4.8385,-4.738,-4.6276,-4.4694,-4.1902,-4.0475,-3.879,-3.5478,-3.4872,-3.4797,-3.4272,-3.5044,-3.6348,-3.7972,-3.9495,-4.1279,-4.3489,-4.3149,-4.3084,-4.4192,-4.3169,-4.2328,-4.2201,-4.2201,-4.2201,-4.2201,-4.2201,-4.212,-4.1971,-4.1291,-4.0684,-4.0306,-3.9574,-3.9216,-3.9216,-3.8029,-3.7489,-3.7489,-3.6298,-3.5788,-3.5788,-3.5788,-3.5788,-3.5788,-3.5788,-3.5537,-3.5221,-3.5077,-3.4575,-3.3843,-3.3643,-3.3314,-3.2903,-3.2789,-3.2768,-3.2669,-3.2669,-3.2669,-3.2669,-3.2669,-3.2841,-3.2991,-3.2991,-3.2955,-3.2898,-3.2898,-3.282,-3.2675,-3.2259,-3.2128,-3.2222,-3.242,-3.2858,-3.3001,-3.1971,-3.1768,-3.1666,-3.1176,-3.1051,-3.1184,-3.1695,-3.1905,-3.1987,-3.1991,-3.1477,-3.1136,-3.1297,-3.0583,-3.0193,-3.0397,-3.1536,-3.2064,-3.1427,-3.1933,-3.2302,-3.2302,-3.2253,-3.2228,-3.2315,-3.2265,-3.2241,-3.2327,-3.2327,-3.2327,-3.2327,-3.2327,-3.2327,-3.237,-3.237,-3.2782,-4.7958,-4.8109,-4.7646,-4.6939,-4.5343,-4.3286,-4.1038,-3.9501,-3.7685,-3.4466,-3.4337,-3.4335,-3.2848,-3.3927,-3.5354,-3.6004,-3.6646,-3.7829,-3.9932,-4.0304,-4.051,-4.0953,-4.1456,-4.1185,-3.9932,-3.9757,-3.9757,-3.9757,-3.9757,-3.9606,-3.913,-3.939,-3.9449,-3.9271,-3.7724,-3.6907,-3.6907,-3.6164,-3.5921,-3.6114,-3.5394,-3.5169,-3.5418,-3.5418,-3.5418,-3.5418,-3.5418,-3.5314,-3.5128,-3.492,-3.4693,-3.459,-3.432,-3.3927,-3.3534,-3.3534,-3.3203,-3.2669,-3.2669,-3.2669,-3.2669,-3.2669,-3.2669,-3.2669,-3.2669,-3.2669,-3.2669,-3.2669,-3.2669,-3.2685,-3.2442,-3.2194,-3.1871,-3.1454,-3.1517,-3.1512,-3.0797,-3.063,-3.0599,-3.0339,-3.0339,-3.0443,-3.0806,-3.1076,-3.1214,-3.108,-3.0953,-3.0842,-3.0577,-3.0208,-2.9939,-2.9769,-3.0513,-3.0913,-3.0668,-3.0869,-3.1048,-3.1048,-3.1048,-3.1226,-3.1693,-3.1669,-3.1889,-3.2302,-3.2302,-3.2302,-3.2302,-3.2302,-3.2302,-3.2302,-3.2302,-3.2457,-4.7631,-4.7521,-4.6698,-4.648,-4.4266,-4.1757,-3.977,-3.8185,-3.6297,-3.3338,-3.3327,-3.3277,-3.1483,-3.2627,-3.397,-3.4288,-3.4598,-3.5506,-3.758,-3.7963,-3.8101,-3.838,-3.9117,-3.9141,-3.7913,-3.8026,-3.8191,-3.8191,-3.8191,-3.8046,-3.7715,-3.8061,-3.8141,-3.7991,-3.6436,-3.5562,-3.5418,-3.5107,-3.5107,-3.5418,-3.5107,-3.5128,-3.5418,-3.5418,-3.5418,-3.5418,-3.5418,-3.5418,-3.5397,-3.5086,-3.5066,-3.519,-3.4879,-3.4526,-3.4111,-3.3906,-3.3472,-3.2913,-3.2768,-3.2669,-3.2669,-3.2669,-3.2669,-3.2669,-3.2669,-3.2669,-3.2669,-3.2669,-3.2669,-3.2669,-3.2669,-3.2339,-3.1836,-3.1071,-3.0781,-3.0553,-3.0098,-2.9994,-2.9994,-2.9994,-2.9994,-3.0047,-3.0235,-3.0443,-3.0545,-3.0359,-3.0442,-3.0428,-3.0154,-3.003,-2.9911,-2.9611,-2.9925,-3.0077,-2.9874,-2.9943,-3.0034,-3.0102,-3.017,-3.0442,-3.0937,-3.0982,-3.1205,-3.1645,-3.1689,-3.1689,-3.1689,-3.1689,-3.1689,-3.1689,-3.1689,-3.1801,-4.6401,-4.6549,-4.5878,-4.5902,-4.3419,-4.0361,-3.8217,-3.6585,-3.4804,-3.2178,-3.1637,-3.1278,-3.0203,-3.0888,-3.1993,-3.3051,-3.4078,-3.5434,-3.757,-3.669,-3.626,-3.7402,-3.6279,-3.5811,-3.6722,-3.7653,-3.8191,-3.8191,-3.8191,-3.8191,-3.8171,-3.7301,-3.6597,-3.6142,-3.6101,-3.5894,-3.5418,-3.5418,-3.5418,-3.5418,-3.5418,-3.5418,-3.5418,-3.5418,-3.5418,-3.5418,-3.5418,-3.5418,-3.5418,-3.5418,-3.5148,-3.4837,-3.4816,-3.4526,-3.401,-3.3555,-3.3368,-3.3306,-3.2871,-3.2669,-3.2669,-3.2669,-3.2669,-3.2669,-3.2669,-3.2669,-3.2669,-3.2669,-3.2669,-3.2669,-3.2669,-3.2339,-3.1919,-3.1485,-3.1029,-3.0553,-3.0098,-2.9994,-2.9994,-2.9994,-2.9994,-2.9994,-2.9994,-2.9994,-2.9994,-2.9994,-2.9807,-2.9842,-3.0075,-2.9849,-2.9796,-3.0068,-3.0117,-2.9821,-2.9159,-2.9347,-2.9646,-2.9897,-3.0102,-3.0216,-3.0216,-3.0216,-3.0216,-3.0216,-3.0216,-3.0216,-3.0216,-3.0216,-3.0216,-3.0216,-3.0216,-3.0623,-4.2413,-4.2676,-4.2365,-4.1076,-3.9183,-3.7309,-3.6121,-3.477,-3.3321,-3.1907,-3.1586,-3.1278,-3.0203,-3.0888,-3.1848,-3.2487,-3.2849,-3.3487,-3.4791,-3.5245,-3.549,-3.5625,-3.6373,-3.7074,-3.7695,-3.8026,-3.8191,-3.8191,-3.8191,-3.8046,-3.7736,-3.7446,-3.7053,-3.6597,-3.5976,-3.5562,-3.5418,-3.5128,-3.5128,-3.5418,-3.5107,-3.5128,-3.5418,-3.5418,-3.5418,-3.5418,-3.5418,-3.5418,-3.5418,-3.5418,-3.5335,-3.5211,-3.5211,-3.4941,-3.4546,-3.4069,-3.3717,-3.3306,-3.2871,-3.2669,-3.2669,-3.2669,-3.2669,-3.2669,-3.2669,-3.2669,-3.2669,-3.2669,-3.2669,-3.2669,-3.2669,-3.2566,-3.2339,-3.194,-3.1485,-3.1029,-3.0574,-3.0222,-2.9994,-2.9994,-2.9994,-2.9994,-2.9994,-2.9994,-2.9994,-2.9994,-2.9922,-2.9943,-3.0026,-2.9952,-2.9794,-2.9581,-2.9539,-2.9636,-2.9794,-2.9873,-2.9884,-2.9836,-3.0047,-3.0122,-2.9988,-3.0125,-3.0216,-3.0216,-3.0216,-3.0216,-3.0216,-3.0216,-3.0216,-3.0216,-3.0216,-3.0306,-4.0023,-4.0012,-3.9313,-3.8525,-3.6709,-3.4883,-3.4297,-3.3044,-3.1859,-3.1141,-3.0991,-3.0785,-3.0151,-3.0547,-3.1232,-3.1927,-3.1983,-3.2276,-3.3215,-3.4078,-3.4577,-3.457,-3.5744,-3.6831,-3.7415,-3.7765,-3.8037,-3.8191,-3.8191,-3.7984,-3.7529,-3.7322,-3.7032,-3.6556,-3.5976,-3.5604,-3.5418,-3.5148,-3.5148,-3.5418,-3.5148,-3.5148,-3.5418,-3.5418,-3.5418,-3.5418,-3.5418,-3.5418,0.0,-3.5418,-3.5418,-3.5418,-3.5418,-3.5148,-3.4754,-3.4297,-3.3782,-3.3306,-3.2871,-3.2669,-3.2669,-3.2669,-3.2669,-3.2669,-3.2669,-3.2669,-3.2669,-3.2669,-3.2669,-3.2669,-3.2669,-3.2669,-3.2545,-3.2091,-3.1836,-3.1464,-3.0822,-3.047,-3.0201,-3.0036,-2.9994,-2.9994,-2.9994,-2.9994,-2.9994,-2.9994,-2.9994,-2.9994,-2.9994,-2.9994,-2.9891,-2.9601,-2.9559,-2.9692,-3.0005,-2.9913,-2.9813,-2.9773,-3.0039,-3.0144,-3.0115,-3.0326,-3.0512,-3.0605,-3.0744,-3.079,-3.079,-3.0606,-3.0514,-3.0514,-3.0308,-3.0331,0.0,-3.8137,-3.6721,-3.7539,-3.5478,-3.3078,-3.2685,-3.1567,0.0,-3.0077,-2.9994,-2.9942,-3.0036,-3.0015,-3.0308,-3.1416,-3.1476,-3.1688,-3.2696,-3.3184,-3.3646,-3.4207,-3.4853,-3.5497,-3.6265,-3.706,-3.775,-3.8063,-3.8063,-3.7856,-3.736,-3.6926,-3.6472,-3.6017,-3.5996,-3.579,-3.5356,-3.5356,-3.5356,-3.5356,-3.5356,-3.5356,-3.5356,-3.5356,-3.5356,-3.5356,-3.5356,-3.5356,-3.5356,-3.5356,-3.5356,-3.5356,-3.5356,-3.5169,-3.4734,-3.4258,-3.3803,-3.3348,-3.2892,-3.2669,-3.2669,-3.2669,-3.2669,-3.2669,-3.2669,-3.2669,-3.2669,-3.2669,-3.2669,-3.2669,-3.2669,-3.2669,-3.2566,-3.2132,-3.2008,-3.1816,-3.0967,-3.076,-3.0615,-3.018,-3.0098,-3.0077,-3.0056,-3.0036,-3.0036,-2.9994,-2.9994,-2.9994,-2.9994,-2.9994,-2.9994,-2.9994,-2.9994,-2.9994,-2.9994,-2.9665,-2.9508,-2.9713,-2.9937,-3.0209,-3.0409,-3.0674,-3.0987,-3.1205,-3.1515,-3.1659,-3.1706,-3.1248,-3.1019,-3.1019,-3.0514,-3.0583,-3.2877,0.0,-3.3451,-3.2683,-3.1905,-3.1298,0.0,-3.0475,-2.9908,-2.9962,-2.9606,-2.957,-3.0396,-3.0063,-3.0096,-3.1249,-3.1215,-3.1244,-3.1851,-3.2919,-3.4105,-3.5275,-3.5836,-3.634,-3.687,-3.7092,-3.7206,-3.7192,-3.6973,-3.6628,-3.609,-3.5692,-3.5301,-3.4772,-3.4772,-3.4836,-3.5046,-3.4735,-3.461,-3.461,-3.461,-3.461,-3.461,-3.461,-3.461,-3.4673,-3.4922,-3.5046,-3.5046,-3.5294,-3.5232,-3.5046,-3.5046,-3.4984,-3.48,-3.4001,-3.3811,-3.3782,-3.2996,-3.2669,-3.2669,-3.2669,-3.2669,-3.2669,-3.2669,-3.2669,-3.2669,-3.2669,-3.2669,-3.2669,-3.2669,-3.2669,-3.2649,-3.2545,-3.2235,-3.1926,-3.1719,-3.1464,-3.1174,-3.1071,-3.105,-3.0946,-3.0594,-3.0532,-3.0408,-3.0036,-2.9994,-2.9994,-2.9994,-2.9994,-2.9994,-2.9994,-2.9994,-2.9994,-2.9994,-2.9891,-2.9827,-2.9695,-2.9955,-3.0035,-2.9916,-3.0139,-3.0334,-3.0383,-3.048,-3.0626,-3.0819,-3.09,-3.1047,-3.1238,-3.1361,-3.1479,-3.0084,-3.1103,-3.168,-3.1025,-3.0806,-3.0771,-3.0663,-2.999,-2.9396,-2.9554,-2.9343,-2.9265,-2.988,-2.9611,-2.9619,-3.0493,-3.0669,-3.1101,-3.2119,-3.3035,-3.4075,-3.5396,-3.5759,-3.6196,-3.6749,-3.6789,-3.6743,-3.6699,-3.6481,-3.6098,-3.5402,-3.5214,-3.4886,-3.4423,-3.4235,-3.436,-3.4673,-3.4485,-3.4423,-3.4423,-3.4423,-3.4423,-3.4423,-3.4423,-3.4423,-3.4423,-3.461,-3.4673,-3.4673,-3.4859,-3.4859,-3.4673,-3.4673,-3.4551,-3.4288,-3.3599,-3.3333,-3.3225,-3.2551,-3.2268,-3.2326,-3.2498,-3.244,-3.2268,-3.2268,-3.2383,-3.2555,-3.2669,-3.2669,-3.2669,-3.2669,-3.2669,-3.2669,-3.2669,-3.2483,-3.2235,-3.2029,-3.1857,-3.1609,-3.1422,-3.1381,-3.1298,-3.105,-3.1008,-3.0926,-3.0677,-3.0636,-3.0553,-3.0346,-3.0305,-3.0243,-3.0015,-2.9994,-2.9994,-2.9994,-2.9994,-2.9943,-2.9849,-2.9983,-3.0011,-3.0011,-3.0292,-3.0543,-3.0793,-3.0793,-3.0843,-3.0992,-3.0921,-3.1056,-3.13,-3.1389,-3.1581,-2.9,-2.989,-3.0797,-3.0817,-3.0747,-3.0669,-3.0333,-2.9621,-2.9026,-2.9079,-2.9026,-2.8993,-2.9179,-2.9179,-2.936,-2.9916,-3.0384,-3.1308,-3.2955,-3.3331,-3.3879,-3.5125,-3.5414,-3.5759,-3.6344,-3.6451,-3.6388,-3.6222,-3.6182,-3.5801,-3.4983,-3.4859,-3.4699,-3.4255,-3.3985,-3.3985,-3.4235,-3.4235,-3.4235,-3.4235,-3.4235,-3.4235,-3.4235,-3.4235,-3.4235,-3.4235,-3.4298,0.0,-3.436,-3.436,-3.436,-3.4298,-3.4298,-3.414,-3.3758,-3.3316,-3.2874,-3.2471,-3.1968,-3.1787,-3.1845,-3.2133,-3.2018,-3.1787,-3.1787,-3.2018,-3.2248,-3.2498,-3.2612,-3.2669,-3.2669,-3.2669,-3.2669,-3.2669,-3.2669,-3.2566,-3.2173,-3.2091,-3.2043,-3.165,-3.1588,-3.1567,-3.1485,-3.1485,-3.1464,-3.1381,-3.1381,-3.1236,-3.0843,-3.0801,-3.0615,-3.016,-3.0098,-3.0077,-2.9994,-2.9994,-2.9994,-2.9994,-2.9994,-3.0099,-3.0339,-3.0547,-3.0909,-3.1373,-3.1373,-3.1373,-3.1424,-3.1063,-3.1018,-3.1268,-3.1096,-3.1363,-2.8839,-2.953,-3.0023,-2.9561,-2.9675,-2.985,-2.9413,-2.902,-2.8834,-2.9026,-2.8761,-2.8666,-2.9527,-2.9499,-2.9704,-3.0726,-3.1319,-3.2098,-3.3214,-3.3721,-3.4283,-3.5242,-3.5664,-3.5937,-3.6084,-3.6084,-3.5886,-3.5454,-3.5133,-3.4674,-3.4124,-3.3832,-3.3623,-3.3544,-3.3481,-3.3481,-3.3544,-3.3544,-3.3544,-3.3544,-3.3544,-3.3544,-3.3544,-3.3544,-3.3544,-3.3544,0.0,-3.3985,-3.3985,-3.4298,-3.4235,-3.3985,-3.3985,-3.3945,-3.3826,-3.3409,-3.3154,-3.2894,-3.2069,-3.1787,-3.1787,-3.1845,-3.1845,-3.1787,-3.1787,-3.1845,-3.1903,-3.1903,-3.2326,-3.2669,-3.2669,-3.2669,-3.2669,-3.2669,-3.2669,-3.2649,-3.2587,-3.2566,-3.2545,-3.254,-3.252,-3.2395,-3.2002,-3.1884,-3.1816,-3.1422,-3.1381,-3.136,-3.1278,-3.1278,-3.1091,-3.0636,-3.0574,-3.0429,-3.0036,-2.9994,-2.9994,-2.9994,-2.9994,-2.9994,-3.0047,-3.0099,-3.0151,-3.0256,-3.0256,-3.036,-3.0599,-3.0721,-3.0957,-3.1214,-3.1404,-3.1556,-2.8535,-2.8996,-2.94,-2.9406,-2.9813,-3.0183,-2.9798,-2.9415,-2.9203,-2.9367,-2.9203,-2.9153,-2.9624,-2.9751,-3.0128,-3.1187,-3.1939,-3.2603,-3.3301,-3.3984,-3.4648,-3.5312,-3.5762,-3.6016,-3.6016,-3.6016,-3.5829,-3.5316,-3.4909,-3.4499,-3.4064,-3.3618,-3.3418,-3.3418,-3.3418,-3.3418,-3.3418,-3.3418,-3.3418,-3.3418,-3.3418,-3.3418,-3.3418,-3.3418,-3.3418,-3.3418,0.0,-3.3607,-3.367,-3.3796,-3.3796,-3.3607,-3.3607,-3.3607,-3.3548,-3.3198,-3.2668,-3.2217,-3.1997,-3.1659,-3.1344,-3.1498,-3.146,-3.1344,-3.1344,-3.1383,-3.1556,-3.1556,-3.1845,-3.219,-3.219,-3.219,-3.2268,-3.244,-3.2498,-3.2498,-3.2669,-3.2669,-3.2669,-3.2669,-3.2669,-3.2607,-3.2401,-3.2359,-3.2354,-3.2147,-3.2106,-3.2023,-3.1774,-3.1733,-3.1567,-3.1112,-3.105,-3.0967,-3.076,-3.0512,-3.0263,-3.0015,-2.9994,-2.9994,-2.9994,-2.9994,-2.9994,-2.9994,-2.9994,-3.0047,-3.0183,-3.0287,-3.0495,-3.0754,-3.1043,-3.127,-2.8418,-2.8672,-2.9043,-2.959,-3.0072,-3.0441,-3.0487,-3.0176,-2.9941,-3.0194,-3.0076,-2.9883,-2.9883,-3.0215,-3.0801,-3.168,-3.2539,-3.3281,-3.3809,-3.4453,-3.5019,-3.5488,-3.582,-3.6016,-3.6016,-3.6016,-3.5801,-3.5273,-3.4902,-3.4473,-3.3945,-3.3613,-3.3418,-3.3418,-3.3418,-3.3418,-3.3418,-3.3418,-3.3418,-3.3418,-3.3418,-3.3418,-3.3418,-3.3418,-3.3418,-3.3418,-3.3418,-3.3418,-3.3418,-3.3418,-3.3418,-3.3418,-3.3418,-3.3418,-3.3379,-3.2949,-3.2383,-3.1797,-3.1998,-3.1702,-3.1231,-3.1348,-3.1191,-3.1016,-3.0918,-3.1054,-3.1228,-3.1228,-3.1383,-3.1614,-3.1787,-3.1787,-3.1845,-3.2133,-3.219,-3.2248,-3.2555,-3.2612,-3.2612,-3.2669,-3.2669,-3.2669,-3.2669,-3.2669,-3.2669,-3.2669,-3.2669,-3.2545,-3.2194,-3.2153,-3.1967,-3.1588,-3.1526,-3.1485,-3.1381,-3.0946,-3.0532,-3.018,-3.0056,-2.9994,-2.9994,-2.9994,-2.9994,-2.9994,-2.9994,-2.9994,-2.9994,-2.9994,-3.0099,-3.0287,-3.0547,-3.0703,-2.8769,-2.8906,-2.9121,-2.9941,-2.9939,-2.9998,-3.1152,-3.1094,-3.1016,-3.1876,-3.1348,-3.0801,-3.0801,-3.1133,-3.1699,-3.2559,-3.3418,-3.4277,-3.5137,-3.5312,-3.5508,-3.5918,-3.5996,-3.6016,-3.6016,-3.6016,-3.5664,-3.4805,-3.4726,-3.4336,-3.3516,-3.3437,-3.3418,-3.3418,-3.3418,-3.3418,-3.3418,-3.3418,-3.3418,-3.3418,-3.3418,-3.3418,-3.3418,-3.3418,-3.3418,-3.3418,-3.3418,-3.3418,-3.3418,-3.3418,-3.3418,-3.3418,-3.3418,-3.3418,-3.3379,-3.2949,-3.2754,-3.2656,-3.2326,-3.217,-3.2012,-3.1601,-3.1465,-3.1406,-3.1016,-3.0898,-3.0957,-3.0957,-3.0957,-3.1112,-3.1672,-3.1787,-3.1787,-3.1845,-3.1845,-3.1903,-3.2248,-3.2305,-3.2363,-3.2669,-3.2669,-3.2669,-3.2669,-3.2669,-3.2669,-3.2669,-3.2669,-3.2669,-3.2628,-3.2628,-3.2442,-3.1988,-3.1946,-3.1816,-3.1422,-3.0946,-3.0677,-3.0636,-3.0243,-2.9994,-2.9994,-2.9994,-2.9994,-2.9994,-2.9994,-2.9994,-2.9994,-2.9994,-2.9994,-3.0047,-3.0047,-3.0047,-2.8496,-2.8711,-2.9199,-3.0332,-3.0508,-3.0664,-3.168,-3.1992,-3.2246,-3.2832,-3.248,-3.1992,-3.1738,-3.2031,-3.25,-3.3086,-3.4141,-3.5,-3.5351,-3.5625,-3.584,-3.5996,-3.6016,-3.6016,-3.6016,-3.5781,-3.5488,-3.5156,-3.4629,-3.416,-3.3848,-3.3574,-3.3418,-3.3418,-3.3418,-3.3418,-3.3418,-3.3418,-3.3418,-3.3418,-3.3418,-3.3418,-3.3418,-3.3418,-3.3418,-3.3418,-3.3418,-3.3418,-3.3418,-3.3418,-3.3418,-3.3418,-3.3418,-3.3418,-3.3398,-3.3242,-3.3008,-3.2773,-3.2617,-3.2383,-3.2148,-3.1973,-3.1914,-3.1894,-3.1738,-3.168,-3.168,-3.168,-3.168,-3.1622,-3.1308,-3.1228,-3.1286,-3.1441,-3.1498,-3.1556,-3.1903,-3.196,-3.2018,-3.2133,-3.2133,-3.219,-3.244,-3.2268,-3.2268,-3.2612,-3.2555,-3.2498,-3.2669,-3.2669,-3.2607,-3.2421,-3.2421,-3.2235,-3.1836,-3.1629,-3.1402,-3.1133,-3.0408,-2.9994,-2.9994,-2.9994,-2.9994,-2.9994,-2.9994,-2.9994,-2.9994,-2.9994,-2.9994,-2.9994,-2.9994,-2.9994,-2.8301,-2.8496,-2.9004,-3.0176,-3.0781,-3.1309,-3.2168,-3.2793,-3.3398,-3.4101,-3.3691,-3.3027,-3.248,-3.2598,-3.2988,-3.3535,-3.4492,-3.5273,-3.5547,-3.584,-3.6016,-3.6016,-3.6016,-3.6016,-3.6016,-3.5644,-3.5332,-3.5176,-3.4492,-3.4023,-3.3887,-3.3574,-3.3418,-3.3418,-3.3301,-3.3281,-3.3418,-3.3281,-3.3281,-3.3418,-3.3418,-3.3418,-3.3418,-3.3418,-3.3418,-3.3418,-3.3418,-3.3418,-3.3418,-3.3418,-3.3418,-3.3418,-3.3418,-3.3418,-3.3418,-3.3418,-3.3242,-3.2988,-3.2988,-3.2812,-3.2539,-3.2402,-3.2363,-3.2344,-3.2268,-3.2229,-3.2229,-3.2229,-3.2229,-3.2031,-3.1445,-3.1191,-3.1152,-3.1309,-3.1269,-3.1286,-3.1556,-3.1614,-3.1672,-3.1787,-3.1787,-3.1845,-3.2076,-3.196,-3.196,-3.2383,-3.2268,-3.219,-3.2383,-3.2498,-3.2612,-3.2669,-3.2669,-3.2545,-3.2235,-3.207,-3.1899,-3.1609,-3.0864,-3.0367,-3.0222,-3.0222,-3.0139,-2.9994,-2.9994,-2.9994,-2.9994,-2.9994,-2.9994,-2.9994,-2.9994,-3.0077,-2.8281,-2.8301,-2.8516,-2.9375,-3.0566,-3.1758,-3.2617,-3.3476,-3.4453,-3.5742,-3.498,-3.3809,-3.2949,-3.2812,-3.3086,-3.3926,-3.4434,-3.5019,-3.5898,-3.6016,-3.6016,-3.6016,-3.6016,-3.6016,-3.6016,-3.5625,-3.5195,-3.4726,-3.4297,-3.3887,-3.3437,-3.3418,-3.3418,-3.3418,-3.3008,-3.3008,-3.3418,-3.3008,-3.3008,-3.3418,-3.3418,-3.3418,-3.3418,-3.3418,-3.3418,-3.3418,-3.3418,-3.3418,-3.3418,-3.3418,-3.3418,-3.3418,-3.3418,-3.3418,-3.3418,-3.3418,-3.3418,-3.3418,-3.3418,-3.3418,-3.3359,-3.293,-3.2793,-3.2715,-3.2305,-3.2187,-3.2187,-3.2187,-3.2187,-3.2187,-3.2187,-3.1855,-3.1523,-3.1523,-3.1211,-3.0957,-3.1228,-3.1267,-3.1383,-3.173,-3.1787,-3.1787,-3.1787,-3.1787,-3.1787,-3.1787,-3.1787,-3.1787,-3.1787,-3.2076,-3.2363,-3.2669,-3.2669,-3.2669,-3.2669,-3.2256,-3.1988,-3.1988,-3.1629,-3.1174,-3.0719,-3.0677,-3.047,-3.0015,-2.9994,-2.9994,-2.9994,-2.9994,-2.9994,-2.9994,-2.9994,-3.0243,-2.793,-2.8516,-2.9394,-3.0273,-3.125,-3.2363,-3.3809,-3.459,-3.5117,-3.5508,-3.5019,-3.4258,-3.3398,-3.373,-3.4121,-3.4082,-3.4941,-3.5723,-3.5976,-3.6016,-3.6016,-3.6016,-3.6016,-3.5898,-3.5605,-3.5176,-3.4726,-3.4297,-3.3848,-3.3555,-3.3437,-3.3418,-3.3418,-3.3418,-3.3301,-3.3301,-3.3418,-3.3301,-3.3301,-3.3418,-3.3418,-3.3418,-3.3418,-3.3418,-3.3418,-3.3418,-3.3418,-3.3418,-3.3418,-3.3418,-3.3418,-3.3418,-3.3418,-3.3418,-3.3418,-3.3418,-3.3418,-3.3418,-3.3418,-3.3418,-3.3398,-3.3281,-3.3242,-3.3203,-3.3086,-3.3047,-3.3047,-3.3047,-3.3047,-3.3047,-3.3047,-3.2734,-3.2344,-3.2051,-3.1641,-3.1328,-3.1446,-3.1211,-3.1054,-3.117,-3.117,-3.1228,-3.1441,-3.1286,-3.1286,-3.173,-3.1614,-3.1556,-3.1787,-3.1903,-3.196,-3.2076,-3.2076,-3.2076,-3.2076,-3.1954,-3.1893,-3.1893,-3.1771,-3.1513,-3.1215,-3.0864,-3.0615,-3.0491,-3.016,-2.9994,-2.9994,-2.9994,-3.016,-3.047,-3.047,-3.0719,-2.8184,-2.8984,-3.0,-3.0703,-3.1797,-3.3105,-3.4844,-3.5449,-3.5644,-3.5644,-3.5293,-3.4824,-3.4297,-3.4473,-3.4668,-3.4609,-3.5254,-3.584,-3.5996,-3.6016,-3.6016,-3.6016,-3.5879,-3.5664,-3.541,-3.4824,-3.4336,-3.4082,-3.3672,-3.3418,-3.3418,-3.3418,-3.3418,-3.3418,-3.3262,-3.3242,-3.3418,-3.3262,-3.3262,-3.3418,-3.3418,-3.3418,-3.3418,-3.3418,-3.3418,-3.3418,-3.3418,-3.3418,-3.3418,-3.3418,-3.3418,-3.3418,-3.3418,-3.3418,-3.3418,-3.3418,-3.3418,-3.3418,-3.3418,-3.3418,-3.3418,-3.3418,-3.3418,-3.3418,-3.3418,-3.3418,-3.3418,-3.3418,-3.3418,-3.3418,-3.3418,-3.3242,-3.293,-3.2519,-3.209,-3.1777,-3.1777,-3.1582,-3.1406,-3.1406,-3.1406,-3.1407,-3.1387,-3.125,-3.1191,-3.1422,-3.1286,-3.1286,-3.1556,-3.1614,-3.1672,-3.1787,-3.1787,-3.1787,-3.1787,-3.1787,-3.1787,-3.1787,-3.1787,-3.1718,-3.1584,-3.1244,-3.0969,-3.0784,-3.0624,-3.0553,-3.0553,-3.0553,-3.0677,-3.0967,-3.0967,-3.1215,-2.8769,-2.9551,-3.0391,-3.0879,-3.2285,-3.3945,-3.5547,-3.5957,-3.6016,-3.6016,-3.5723,-3.543,-3.541,-3.5078,-3.4941,-3.5332,-3.543,-3.5586,-3.5976,-3.6016,-3.6016,-3.5976,-3.5625,-3.5351,-3.5273,-3.4551,-3.4062,-3.4023,-3.3652,-3.3418,-3.3418,-3.3418,-3.3418,-3.3418,-3.3047,-3.3027,-3.3418,-3.3047,-3.3047,-3.3418,-3.3418,-3.3418,-3.3418,-3.3418,-3.3418,-3.3418,-3.3418,-3.3418,-3.3418,-3.3418,-3.3418,-3.3418,-3.3418,-3.3418,-3.3418,-3.3418,-3.3418,-3.3418,-3.3418,-3.3418,-3.3418,-3.3418,-3.3418,-3.3418,-3.3418,-3.3418,-3.3418,-3.3418,-3.3418,-3.3418,-3.3418,-3.3418,-3.332,-3.2949,-3.2539,-3.2226,-3.2226,-3.2268,-3.2229,-3.2229,-3.2229,-3.2051,-3.1641,-3.1582,-3.1445,-3.1055,-3.1016,-3.1113,-3.1287,-3.1326,-3.1422,-3.1672,-3.173,-3.173,-3.173,-3.173,-3.173,-3.173,-3.173,-3.173,-3.173,-3.1592,-3.137,-3.0907,-3.1162,-3.1326,-3.1381,-3.1381,-3.1402,-3.1443,-3.1443,-3.1671,-2.8398,-2.9551,-3.0918,-3.1699,-3.3164,-3.4531,-3.4902,-3.5527,-3.6016,-3.6016,-3.5937,-3.5781,-3.5449,-3.5586,-3.5664,-3.543,-3.5664,-3.5918,-3.6016,-3.6016,-3.5898,-3.5566,-3.5449,-3.5117,-3.4434,-3.418,-3.3926,-3.3594,-3.3476,-3.3418,-3.3418,-3.3418,-3.3418,-3.3418,-3.334,-3.332,-3.3418,-3.332,-3.332,-3.3418,-3.3418,-3.3418,-3.3418,-3.3418,-3.3418,-3.3418,-3.3418,-3.3418,-3.3418,-3.3418,-3.3418,-3.3418,-3.3418,-3.3418,-3.3418,-3.3418,-3.3418,-3.3418,-3.3418,-3.3418,-3.3418,-3.3418,-3.3418,-3.3418,-3.3418,-3.3418,-3.3418,-3.3418,-3.3418,-3.3418,-3.3418,-3.3418,-3.3398,-3.3301,-3.2969,-3.2656,-3.2656,-3.2402,-3.2229,-3.2229,-3.2229,-3.2148,-3.2051,-3.2031,-3.1992,-3.1914,-3.1894,-3.1837,-3.1485,-3.1446,-3.1368,-3.1093,-3.1112,-3.1112,-3.1112,-3.1112,-3.1112,-3.1112,-3.1112,-3.1112,-3.1112,-3.1194,-3.1176,-3.1095,-3.0752,-3.0736,-3.1011,-3.1011,-3.1306,-3.1899,-3.1899,-3.2091,-2.8476,-2.9863,-3.1504,-3.2773,-3.375,-3.4453,-3.4648,-3.5059,-3.5391,-3.5391,-3.5723,-3.5957,-3.5742,-3.5703,-3.5644,-3.543,-3.5391,-3.5469,-3.5684,-3.5527,-3.5391,-3.5391,-3.5019,-3.457,-3.4121,-3.3887,-3.3672,-3.3437,-3.3418,-3.3418,-3.3418,-3.3418,-3.3418,-3.3418,-3.3418,-3.3418,-3.3418,-3.3418,-3.3418,-3.3418,-3.3418,-3.3418,-3.3418,-3.3418,-3.3418,-3.3418,-3.3418,-3.3418,-3.3418,-3.3418,-3.3418,-3.3418,-3.3418,-3.3418,-3.3418,-3.3418,-3.3418,-3.3418,-3.3418,-3.3418,-3.3418,-3.3418,-3.3418,-3.3418,-3.3418,-3.3418,-3.3418,-3.3418,-3.3418,-3.3418,-3.3418,-3.3418,-3.3418,-3.3418,-3.3262,-3.3105,-3.3105,-3.293,-3.2773,-3.2773,-3.2773,-3.2695,-3.25,-3.2305,-3.2229,-3.2229,-3.2229,-3.209,-3.1855,-3.1836,-3.166,-3.123,-3.1191,-3.1113,-3.0918,-3.0898,-3.0898,-3.0898,-3.0898,-3.0898,-3.0898,-3.0953,-3.1045,-3.1217,-3.1091,-3.114,-3.1309,-3.1309,-3.1564,-3.1901,-3.1901,-3.2023,-2.8574,-3.0195,-3.1992,-3.3476,-3.3965,-3.416,-3.4512,-3.4648,-3.4707,-3.4707,-3.5273,-3.5801,-3.5801,-3.5508,-3.5273,-3.5273,-3.4941,-3.4824,-3.5215,-3.4941,-3.4824,-3.5137,-3.4512,-3.4043,-3.3965,-3.3633,-3.3418,-3.3418,-3.3418,-3.3418,-3.3418,-3.3418,-3.3418,-3.3418,-3.3418,-3.3418,-3.3418,-3.3418,-3.3418,-3.3418,-3.3418,-3.3418,-3.3418,-3.3418,-3.3418,-3.3418,-3.3418,-3.3418,-3.3418,-3.3418,-3.3418,-3.3418,-3.3418,-3.3418,-3.3418,-3.3418,-3.3418,-3.3418,-3.3418,-3.3418,-3.3418,-3.3418,-3.3418,-3.3418,-3.3418,-3.3418,-3.3418,-3.3418,-3.3418,-3.3418,-3.3418,-3.3418,-3.3418,-3.3418,-3.3418,-3.3418,-3.3418,-3.3418,-3.3418,-3.3418,-3.3418,-3.332,-3.2969,-3.2617,-3.2383,-3.2383,-3.2383,-3.2363,-3.2285,-3.2082,-3.1786,-3.1301,-3.1262,-3.1088,-3.0663,-3.0879,-3.0976,-3.0898,-3.0898,-3.0898,-3.0898,-3.0704,-3.0626,-3.0898,-3.1131,-3.1305,-3.1363,-3.1363,-3.1441,-3.1498,-3.173,-3.1787,-2.8144,-3.0195,-3.2226,-3.2812,-3.3516,-3.4082,-3.4141,-3.4434,-3.4707,-3.4707,-3.4785,-3.4883,-3.4883,-3.4824,-3.4785,-3.4785,-3.4746,-3.4726,-3.4785,-3.4746,-3.459,-3.4277,-3.4141,-3.3926,-3.3535,-3.3457,-3.3418,-3.3418,-3.3418,-3.3418,-3.3418,-3.3418,-3.3418,-3.3418,-3.3418,-3.3418,-3.3418,-3.3418,-3.3418,-3.3418,-3.3418,-3.3418,-3.3418,-3.3418,-3.3418,-3.3418,-3.3418,-3.3418,-3.3418,-3.3418,-3.3418,-3.3418,-3.3418,-3.3418,-3.3418,-3.3418,-3.3418,-3.3418,-3.3418,-3.3418,-3.3418,-3.3418,-3.3418,-3.3418,-3.3418,-3.3418,-3.3418,-3.3418,-3.3418,-3.3418,-3.3418,-3.3418,-3.3418,-3.3418,-3.3418,-3.3418,-3.3418,-3.3418,-3.3418,-3.3418,-3.3418,-3.3398,-3.334,-3.3301,-3.3262,-3.3262,-3.3262,-3.3125,-3.2754,-3.1683,-3.0747,-3.0359,-3.0303,-3.0076,-2.961,-3.0691,-3.1269,-3.0918,-3.0898,-3.0898,-3.0898,-2.9785,-2.9157,-2.9216,-2.9275,-2.9453,-2.9747,-2.9747,-2.9865,-3.0177,-3.1305,-3.1787,-2.8594,-3.0215,-3.166,-3.2578,-3.3086,-3.3418,-3.3652,-3.3848,-3.3984,-3.3984,-3.3984,-3.4121,-3.4609,-3.4512,-3.4336,-3.4336,-3.4141,-3.4062,-3.4316,-3.4141,-3.4004,-3.4062,-3.3867,-3.3633,-3.3437,-3.3418,-3.3418,-3.3418,-3.3418,-3.3418,-3.3418,-3.3418,-3.3418,-3.3418,-3.3418,-3.3418,-3.3418,-3.3418,-3.3418,-3.3418,-3.3418,-3.3418,-3.3418,-3.3418,-3.3418,-3.3418,-3.3418,-3.3418,-3.3418,-3.3418,-3.3418,-3.3418,-3.3418,-3.3418,-3.3418,-3.3418,-3.3418,-3.3418,-3.3418,-3.3418,-3.3418,-3.3418,-3.3418,-3.3418,-3.3418,-3.3418,-3.3418,-3.3418,-3.3418,-3.3418,-3.3418,-3.3418,-3.3418,-3.3418,-3.3418,-3.3418,-3.3418,-3.3418,-3.3165,-3.2365,-3.2829,-3.3165,-3.2365,-3.2892,-3.3418,-3.3418,-3.2702,-3.2162,-3.1992,-3.0747,-2.969,-2.9302,-2.9249,-2.9091,-2.8641,-2.918,-2.9476,-2.9313,-2.9295,-2.9204,-2.8968,-2.8407,-2.8059,-2.7847,-2.7847,-2.7907,-2.8086,-2.8086,-2.8146,-2.8265,-2.8842,-2.908,-2.8457,-2.9648,-3.0664,-3.1836,-3.2383,-3.2734,-3.3164,-3.334,-3.3418,-3.3418,-3.3418,-3.3613,-3.4258,-3.4121,-3.3906,-3.3906,-3.3633,-3.3535,-3.3867,-3.3633,-3.3535,-3.3867,-3.3613,-3.3418,-3.3418,-3.3418,-3.3418,-3.3418,-3.3418,-3.3418,-3.3418,-3.3418,-3.3418,-3.3418,-3.3418,-3.3418,-3.3418,-3.3418,-3.3418,-3.3418,-3.3418,-3.3418,-3.3418,-3.3418,-3.3418,-3.3418,-3.3418,-3.3418,-3.3418,-3.3418,-3.3418,-3.3418,-3.3418,-3.3418,-3.3418,-3.3418,-3.3418,-3.3418,-3.3418,-3.3418,-3.3418,-3.3418,-3.3418,-3.3418,-3.3418,-3.3418,-3.3418,-3.3418,-3.3418,-3.3418,-3.3418,-3.3418,-3.3418,-3.3418,-3.3418,-3.3418,-3.3418,-3.3082,-3.2556,-3.1515,-3.1854,-3.1982,-3.0936,-3.1643,-3.232,-3.232,-3.1707,-3.1194,-3.0807,-2.9835,-2.8949,-2.8336,-2.8238,-2.8087,-2.7654,-2.7938,-2.8094,-2.7991,-2.7991,-2.7855,-2.7644,-2.7317,-2.6963,-2.661,-2.6305,-2.6255,-2.6537,-2.6537,-2.6537,-2.652,-2.6866,-2.7004,-2.7012,-2.8066,-2.9238,-3.0117,-3.1269,-3.2305,-3.2734,-3.3144,-3.3418,-3.3418,-3.3418,-3.3437,-3.3476,-3.3476,-3.3457,-3.3457,-3.3437,-3.3437,-3.3457,-3.3437,-3.3437,-3.3457,-3.3437,-3.3418,-3.3418,-3.3418,-3.3418,-3.3418,-3.3418,-3.3418,-3.3418,-3.3418,-3.3418,-3.3418,-3.3418,-3.3418,-3.3418,-3.3418,-3.3418,-3.3418,-3.3418,-3.3418,-3.3418,-3.3418,-3.3418,-3.3418,-3.3418,-3.3418,-3.3418,-3.3418,-3.3418,-3.3418,-3.3418,-3.3418,-3.3418,-3.3418,-3.3418,-3.3418,-3.3418,-3.3418,-3.3418,-3.3418,-3.3418,-3.3418,-3.3418,-3.3418,-3.3418,-3.3418,-3.3418,-3.3418,-3.3418,-3.3418,-3.3418,-3.3418,-3.3418,-3.3418,-3.3418,-3.2365,-3.1387,-3.1304,-3.029,-2.9378,-2.9313,-2.9378,-2.9444,-2.9444,-3.0484,-3.0789,-2.9509,-2.9248,-2.8723,-2.7403,-2.7187,-2.7044,-2.6644,-2.7812,-2.8413,-2.8009,-2.7991,-2.7974,-2.7957,-2.6773,-2.5914,-2.5564,-2.4384,-2.4232,-2.5194,-2.5194,-2.5194,-2.5256,-2.6459,-2.7021,-2.6894,-2.7559,-2.8379,-2.9512,-3.0351,-3.1172,-3.2168,-3.2715,-3.3105,-3.3359,-3.3418,-3.3418,-3.3418,-3.3418,-3.3418,-3.3418,-3.3418,-3.3418,-3.3418,-3.3418,-3.3418,-3.3418,-3.3418,-3.3418,-3.3418,-3.3418,-3.3418,-3.3418,-3.3418,-3.3418,-3.3418,-3.3418,-3.3418,-3.3418,-3.3418,-3.3418,-3.3418,-3.3418,-3.3418,-3.3418,-3.3418,-3.3418,-3.3418,-3.3418,-3.3418,-3.3418,-3.3418,-3.3418,-3.3418,-3.3418,-3.3418,-3.3418,-3.3418,-3.3418,-3.3418,-3.3418,-3.3418,-3.3418,-3.3418,-3.3418,-3.3418,-3.3418,-3.3418,-3.3418,-3.3418,-3.3418,-3.3418,-3.3418,-3.3418,-3.3418,-3.3418,-3.2702,-3.1835,-3.0936,-3.0678,-3.0678,-3.0678,-3.1001,-3.1047,-3.016,-2.9509,-2.892,-2.8081,-2.8592,-2.9162,-2.9004,-2.8768,-2.8377,-2.7687,-2.6819,-2.6121,-2.5898,-2.565,-2.5468,-2.5297,-2.5727,-2.5993,-2.5804,-2.5804,-2.5804,-2.5804,-2.5363,-2.495,-2.4604,-2.4154,-2.3902,-2.3852,-2.3852,-2.3852,-2.3852,-2.427,-2.4517,-2.6504,-2.6914,-2.7591,-2.8828,-2.9453,-3.0195,-3.1797,-3.2383,-3.2734,-3.3301,-3.3418,-3.3418,-3.3418,-3.3418,-3.3476,-3.3613,-3.3633,-3.3691,-3.3828,-3.373,-3.3633,-3.3633,-3.3516,-3.3418,-3.3418,-3.3418,-3.3418,-3.3418,-3.3418,-3.3418,-3.3418,-3.3418,-3.3418,-3.3418,-3.3418,-3.3418,-3.3418,-3.3418,-3.3418,-3.3418,-3.3418,-3.3418,-3.3418,-3.3418,-3.3418,-3.3418,-3.3418,-3.3418,-3.3418,-3.3418,-3.3418,-3.3418,-3.3418,-3.3418,-3.3418,-3.3418,-3.3418,-3.3418,-3.3418,-3.3418,-3.3418,-3.3418,-3.3418,-3.3418,-3.3418,-3.3418,-3.3418,-3.3418,-3.3418,-3.3292,-3.2829,-3.1643,-3.0354,-2.9444,-2.9182,-2.9182,-2.9182,-2.9557,-2.9622,-2.8657,-2.8131,-2.7551,-2.6635,-2.7219,-2.7735,-2.7556,-2.7274,-2.6827,-2.6102,-2.5611,-2.5195,-2.4782,-2.454,-2.4408,-2.4408,-2.4576,-2.4525,-2.4408,-2.4613,-2.4753,-2.4569,-2.4738,-2.4583,-2.4247,-2.4247,-2.3984,-2.3427,-2.3325,-2.3267,-2.3267,-2.3164,-2.3106,0.0,0.0,0.0,-2.793,-2.8555,-2.9434,-3.1582,-3.209,-3.2344,-3.3203,-3.3379,-3.3398,-3.3418,-3.3418,-3.3574,-3.4023,-3.4082,-3.4219,-3.4648,-3.4336,-3.4082,-3.4082,-3.3691,-3.3437,-3.3418,-3.3418,-3.3418,-3.3418,-3.3418,-3.3418,-3.3418,-3.3418,-3.3418,-3.3418,-3.3418,-3.3418,-3.3418,-3.3418,-3.3418,-3.3418,-3.3418,-3.3418,-3.3418,-3.3418,-3.3418,-3.3418,-3.3418,-3.3418,-3.3418,-3.3418,-3.3418,-3.3418,-3.3418,-3.3418,-3.3418,-3.3418,-3.3418,-3.3418,-3.3418,-3.3418,-3.3418,-3.3418,-3.3418,-3.3418,-3.3418,-3.3418,-3.3418,-3.3418,-3.3437,-3.3121,-3.168,-3.026,-2.9151,-2.9068,-2.9068,-2.9068,-2.9051,-2.8015,-2.7035,-2.7086,-2.6032,-2.5119,-2.5119,-2.5119,-2.5119,-2.5119,-2.6218,-2.6428,-2.4812,-2.5793,-2.5981,-2.4325,-2.4086,-2.4086,-2.4071,-2.4364,-2.4408,-2.4086,-2.4738,-2.4958,-2.4583,-2.4943,-2.4973,-2.4583,-2.4583,-2.4423,-2.4115,-2.3779,-2.3618,-2.3603,-2.3281,-2.3135,-2.5693,0.0,0.0,0.0,0.0,0.0,-2.9473,-3.0059,-3.0703,-3.2207,-3.2519,-3.2695,-3.3301,-3.3418,-3.3672,-3.4414,-3.4277,-3.4219,-3.4648,-3.459,-3.4414,-3.4101,-3.3965,-3.3769,-3.3457,-3.3418,-3.3418,-3.3418,-3.3418,-3.3418,-3.3418,-3.3418,-3.3418,-3.3418,-3.3418,-3.3418,-3.3418,-3.3418,-3.3418,-3.3418,-3.3418,-3.3418,-3.3418,-3.3418,-3.3418,-3.3418,-3.3418,-3.3418,-3.3418,-3.3418,-3.3418,-3.3418,-3.3418,-3.3418,-3.3418,-3.3418,-3.3418,-3.3418,-3.3418,-3.3418,-3.3418,-3.3418,-3.3418,-3.3418,-3.3418,-3.3418,-3.3418,-3.3418,-3.3652,-3.3366,-3.1203,-2.953,-2.8125,-2.6784,-2.6534,-2.6473,-2.6295,-2.6095,-2.6186,-2.6934,-2.6032,-2.5119,-2.5119,-2.5119,-2.5046,-2.4744,-2.5019,-2.5122,-2.465,-2.4743,-2.4719,-2.4488,-2.4218,-2.3984,-2.3749,-2.3808,-2.3823,-2.3735,-2.413,-2.4423,-2.4569,-2.4943,-2.509,-2.4987,-2.4987,-2.4943,-2.4855,-2.4218,-2.3954,-2.394,-2.3852,-2.3808,-2.5693,-2.5693,-2.583,-2.6504,0.0,0.0,-2.8809,-2.9394,-3.0019,-3.1582,-3.2051,-3.2363,-3.3047,-3.3164,-3.3496,-3.4531,-3.4492,-3.4551,-3.5156,-3.5098,-3.4902,-3.4648,-3.4297,-3.3965,-3.3711,-3.3535,-3.3418,-3.3418,-3.3418,-3.3418,-3.3418,-3.3418,-3.3418,-3.3418,-3.3418,-3.3418,-3.3418,-3.3418,-3.3418,-3.3418,-3.3418,-3.3418,-3.3418,-3.3418,-3.3418,-3.3418,-3.3418,-3.3418,-3.3418,-3.3418,-3.3418,-3.3418,-3.3418,-3.3418,-3.3418,-3.3418,-3.3418,-3.3418,-3.3418,-3.3418,-3.3418,-3.3418,-3.3418,-3.3418,-3.3418,-3.3418,-3.3418,-3.3418,-3.2746,-3.1614,-2.9513,-2.796,-2.6611,-2.5672,-2.5432,-2.5315,-2.5271,-2.5301,-2.5574,-2.6313,-2.5786,-2.5257,-2.5257,-2.514,-2.5061,-2.487,-2.4841,-2.4797,-2.465,-2.4408,-2.4305,-2.4364,-2.4203,-2.3954,-2.3618,-2.3852,-2.3881,-2.3618,-2.4027,-2.4305,-2.4364,-2.4554,-2.4782,-2.4914,-2.4914,-2.4987,-2.5119,-2.454,-2.4218,-2.4086,-2.4086,-2.4086,-2.5693,-2.5732,-2.5927,-2.6699,-2.666,0.0,-2.8789,-2.9297,-2.9707,-3.0976,-3.1582,-3.2031,-3.25,-3.2578,-3.2969,-3.416,-3.4434,-3.4844,-3.5879,-3.5703,-3.5449,-3.541,-3.4707,-3.4199,-3.4141,-3.375,-3.3496,-3.3496,-3.3457,-3.3418,-3.3418,-3.3418,-3.3418,-3.3418,-3.3418,-3.3418,-3.3418,-3.3418,-3.3418,-3.3418,-3.3418,-3.3418,-3.3418,-3.3418,-3.3418,-3.3418,-3.3418,-3.3418,-3.3418,-3.3418,-3.3418,-3.3418,-3.3418,-3.3418,-3.3418,-3.3418,-3.3418,-3.3418,-3.3418,-3.3418,-3.3418,-3.3418,-3.3418,-3.3418,-3.3418,-3.3418,-3.3374,-3.3287,-3.1202,-2.8725,-2.7515,-2.6222,-2.5227,-2.5476,-2.5315,-2.5169,-2.5418,-2.5286,-2.5183,-2.5476,-2.5535,-2.5535,-2.5579,-2.5315,-2.511,-2.511,-2.5119,-2.4973,-2.4723,-2.4598,-2.4466,-2.4174,-2.413,-2.4013,-2.3676,-2.4174,-2.4276,-2.3691,-2.4232,-2.4437,-2.4145,-2.413,-2.4276,-2.4569,-2.4569,-2.473,-2.5119,-2.4826,-2.4481,-2.4188,-2.4188,-2.4188,-2.5791,-2.5996,-2.6211,-2.5986,-2.6445,0.0,-2.6992,-2.7591,-2.8301,-2.9238,-2.9766,-3.037,-3.1113,-3.1269,-3.1465,-3.2051,-3.2715,-3.3828,-3.5742,-3.5957,-3.5781,-3.543,-3.5234,-3.5,-3.4609,-3.4199,-3.3945,-3.3945,-3.3613,-3.3418,-3.3418,-3.3418,-3.3418,-3.3418,-3.3418,-3.3418,-3.3418,-3.3418,-3.3418,-3.3418,-3.3418,-3.3418,-3.3418,-3.3418,-3.3418,-3.3418,-3.3418,-3.3418,-3.3418,-3.3418,-3.3418,-3.3418,-3.3418,-3.3418,-3.3418,-3.3418,-3.3418,-3.3418,-3.3418,-3.3418,-3.3418,-3.3418,-3.3418,-3.3418,-3.3418,-3.3418,-3.3243,-3.2477,-3.0174,-2.7916,-2.8052,-2.6978,-2.5783,-2.5579,-2.5476,-2.5388,-2.5183,-2.5301,-2.5461,-2.552,-2.5535,-2.5622,-2.5871,-2.5652,-2.5432,-2.5432,-2.4993,-2.4797,-2.5002,-2.4797,-2.454,-2.4481,-2.4481,-2.4349,-2.4013,-2.4101,-2.413,-2.3998,-2.4349,-2.454,-2.4481,-2.4481,-2.451,-2.4569,-2.4569,-2.473,-2.5119,-2.5061,-2.5002,-2.4929,-2.4929,-2.4929,-2.581,-2.5849,-2.6055,-2.6055,-2.623,0.0,0.0,-2.7031,-2.7578,-2.8437,-2.8789,-2.9199,-3.0078,-3.0234,-3.0508,-3.1387,-3.2246,-3.3242,-3.4551,-3.5293,-3.5703,-3.5703,-3.5527,-3.5293,-3.5078,-3.4453,-3.3984,-3.3769,-3.3535,-3.3418,-3.3418,-3.3418,-3.3418,-3.3418,-3.3418,-3.3418,-3.3418,-3.3418,-3.3418,-3.3418,-3.3418,-3.3418,-3.3418,-3.3418,-3.3418,-3.3418,-3.3418,-3.3418,-3.3418,-3.3418,-3.3418,-3.3418,-3.3418,-3.3418,-3.3418,-3.3418,-3.3418,-3.3418,-3.3418,-3.2956,-3.2365,-3.2365,-3.1854,-3.1341,-3.1341,-3.1341,-3.1091,-3.0108,-2.8626,-2.73,-2.6977,-2.619,-2.5535,-2.5535,-2.5403,-2.5286,-2.5286,-2.5286,-2.5344,-2.5491,-2.5535,-2.5579,-2.574,-2.5505,-2.5286,-2.5286,-2.5022,-2.4943,-2.5105,-2.4987,-2.4885,-2.4885,-2.4885,-2.4686,-2.4349,-2.4481,-2.4496,-2.4335,-2.4481,-2.4569,-2.4569,-2.4408,-2.432,-2.432,-2.4481,-2.4657,-2.4885,-2.4885,-2.4973,-2.5119,-2.5119,-2.5119,-2.6133,-2.6044,-2.62,-2.6367,-2.6309,-2.6328,0.0,0.0,0.0,-2.791,-2.8105,-2.8418,-2.918,-2.9313,-2.957,-3.0703,-3.1543,-3.2226,-3.2734,-3.3867,-3.4902,-3.5566,-3.541,-3.5293,-3.5391,-3.459,-3.3926,-3.3574,-3.3398,-3.334,-3.3418,-3.3418,-3.3418,-3.3418,-3.3418,-3.3418,-3.3418,-3.3418,-3.3418,-3.3418,-3.3418,-3.3418,-3.3418,-3.3418,-3.3418,-3.3418,-3.3418,-3.3418,-3.3418,-3.3418,-3.3418,-3.3418,-3.3418,-3.3418,-3.3418,-3.3418,-3.3476,-3.3472,-3.3121,-3.2294,-3.1368,-3.1019,-3.016,-2.9182,-2.9182,-2.8986,-2.8609,-2.7852,-2.7284,-2.6687,-2.581,-2.5364,-2.5218,-2.5338,-2.5261,-2.5062,-2.5183,-2.5106,-2.5057,-2.5183,-2.5226,-2.5338,-2.5539,-2.5359,-2.5154,-2.5154,-2.5163,-2.5119,-2.5119,-2.5119,-2.5119,-2.5119,-2.5119,-2.5017,-2.4686,-2.4973,-2.5017,-2.4686,-2.4723,-2.4723,-2.4723,-2.4349,-2.4174,-2.4174,-2.4437,-2.4598,-2.4723,-2.4723,-2.487,-2.5119,-2.5119,-2.509,-2.709,-2.7422,-2.7734,-2.666,-2.7207,-2.7637,-2.6161,0.0,-2.7051,-2.7148,0.0,-2.7943,-2.8359,0.0,0.0,-2.8574,-2.9062,-2.9648,-3.0449,-3.1367,-3.2539,-3.4101,-3.459,-3.4941,-3.5351,-3.459,-3.4062,-3.4004,-3.3301,-3.3027,-3.3398,-3.3418,-3.3418,-3.3418,-3.3418,-3.3418,-3.3418,-3.3418,-3.3418,-3.3418,-3.3418,-3.3418,-3.3418,-3.3418,-3.3418,-3.3418,-3.3418,-3.3418,-3.3418,-3.3418,-3.3418,-3.3418,-3.3418,-3.3418,-3.3418,-3.3418,-3.3672,-3.3817,-3.2094,-3.169,-3.1622,-2.9957,-2.9313,-2.9182,-2.9182,-2.8328,-2.735,-2.7582,-2.6709,-2.5756,-2.5871,-2.5649,-2.5338,-2.5109,-2.5008,-2.477,-2.4269,-2.4388,-2.451,-2.4212,-2.4417,-2.4876,-2.5787,-2.5696,-2.5476,-2.5476,-2.5242,-2.5119,-2.5119,-2.5119,-2.5119,-2.5119,-2.5119,-2.5105,-2.5075,-2.5105,-2.5105,-2.5075,-2.5061,-2.5061,-2.5061,-2.4686,-2.451,-2.451,-2.4554,-2.4782,-2.5061,-2.5061,-2.509,-2.5119,-2.5119,-2.4973,-2.7187,-2.7285,-2.7422,-2.6894,-2.6973,-2.6992,-2.6269,-2.6387,-2.6719,-2.6973,0.0,0.0,0.0,0.0,0.0,0.0,-2.8867,-2.9336,-2.9434,-3.0215,-3.1309,-3.2793,-3.3125,-3.3301,-3.3496,-3.3633,-3.3594,-3.3359,-3.3008,-3.2988,-3.3398,-3.3418,-3.3418,-3.3418,-3.3418,-3.3418,-3.3418,-3.3418,-3.3418,-3.3418,-3.3418,-3.3418,-3.3418,-3.3418,-3.3418,-3.3418,-3.3418,-3.3418,-3.3418,-3.3418,-3.3418,-3.3418,-3.3418,-3.3418,-3.3457,-3.3711,-3.3219,-3.2373,-3.1866,-3.0591,-2.8876,-2.7334,-2.6894,-2.705,-2.705,-2.6799,-2.6549,-2.6898,-2.6224,-2.5536,-2.5854,-2.5513,-2.5045,-2.4918,-2.489,-2.4778,-2.4512,-2.4553,-2.4567,-2.426,-2.4355,-2.4521,-2.4813,-2.507,-2.5257,-2.5257,-2.5004,-2.4781,-2.4781,-2.4578,-2.4442,-2.4442,-2.4442,-2.4442,-2.4442,-2.4645,-2.4781,-2.4781,-2.4984,-2.5119,-2.5119,-2.4718,-2.4424,-2.4237,-2.4209,-2.4281,-2.4424,-2.48,-2.5023,-2.5119,-2.5119,-2.5046,-2.7832,-2.7715,-2.7637,-2.7285,-2.6973,-2.668,-2.6445,-2.6484,-2.6719,-2.7246,-2.7461,0.0,0.0,0.0,-2.8105,-2.8418,0.0,-2.9101,-2.8789,-2.918,-2.998,-3.1309,-3.1777,-3.2031,-3.2209,-3.25,-3.2695,-3.2637,-3.2402,-3.2519,-3.3047,-3.3184,-3.3242,-3.3242,-3.3359,-3.3418,-3.3418,-3.3418,-3.3418,-3.3418,-3.3418,-3.3418,-3.3418,-3.3418,-3.3418,-3.3418,-3.3418,-3.3418,-3.3418,-3.3418,-3.3165,-3.2829,-3.2829,-3.2632,-3.2445,-3.3084,-3.2577,-3.1395,-3.0852,-2.8826,-2.6291,-2.5301,-2.5117,-2.5305,-2.5305,-2.5478,-2.5724,-2.6041,-2.5827,-2.5428,-2.5812,-2.5368,-2.4886,-2.4802,-2.4788,-2.4761,-2.4536,-2.4593,-2.4594,-2.4316,-2.4344,-2.4345,-2.4122,-2.4488,-2.4781,-2.4781,-2.4578,-2.436,-2.436,-2.4156,-2.4034,-2.4034,-2.4034,-2.4034,-2.4034,-2.4224,-2.436,-2.436,-2.4645,-2.4781,-2.4781,-2.451,-2.426,-2.4032,-2.3975,-2.3975,-2.4018,-2.4491,-2.4784,-2.4911,-2.5115,-2.5096,-2.9609,-2.9548,-2.9254,-2.8002,-2.7689,-2.7454,-2.6582,-2.6699,-2.7226,-2.8086,-2.8574,-2.8984,-2.9434,-2.916,0.0,0.0,-2.8574,0.0,0.0,-2.7988,-2.8276,-2.9548,-3.0762,-3.1699,-3.219,-3.1445,-3.1309,-3.219,-3.1426,-3.1328,-3.2168,-3.2598,-3.2812,-3.2812,-3.3203,-3.3418,-3.3418,-3.3418,-3.3418,-3.3418,-3.3418,-3.3418,-3.3418,-3.3418,-3.3418,-3.3418,-3.3418,-3.3418,-3.3418,-3.3418,-3.2638,-3.1387,-3.1387,-3.0716,-2.9961,-3.1016,-3.1662,-3.1534,-2.8254,-2.6166,-2.4904,-2.4834,-2.4848,-2.4848,-2.4848,-2.4862,-2.4932,-2.524,-2.5324,-2.5394,-2.5702,-2.5492,-2.513,-2.4888,-2.4747,-2.4535,-2.3977,-2.4123,-2.4195,-2.3897,-2.411,-2.4309,-2.4309,-2.415,-2.4034,-2.4034,-2.402,-2.402,-2.402,-2.4034,-2.4034,-2.4034,-2.4034,-2.4034,-2.4034,-2.4034,-2.402,-2.402,-2.4034,-2.4034,-2.4034,-2.402,-2.402,-2.402,-2.402,-2.402,-2.402,-2.426,-2.4414,-2.4469,-2.5161,-2.5183,-2.9941,-2.9785,-2.9394,-2.8672,-2.8281,-2.7851,-2.6992,-2.7363,-2.7949,-2.8242,-2.8848,-2.9394,-2.9607,-2.9453,0.0,0.0,0.0,0.0,0.0,-2.709,-2.7187,-2.8237,-2.9453,-3.0176,-3.0039,-3.0801,-3.1309,-3.1328,-3.1309,-3.168,-3.2539,-3.2715,-3.293,-3.3203,-3.334,-3.3418,-3.3418,-3.3418,-3.3418,-3.3418,-3.3418,-3.3418,-3.3418,-3.3418,-3.3418,-3.3418,-3.3418,-3.3418,-3.3418,-3.3418,-3.2428,-3.1001,-3.1143,-3.0338,-2.906,-2.9999,-2.9783,-2.8679,-2.6354,-2.5185,-2.4791,-2.4791,-2.4931,-2.5098,-2.5098,-2.5324,-2.5506,-2.5604,-2.5427,-2.5235,-2.5345,-2.5079,-2.4757,-2.4723,-2.4636,-2.4609,-2.4369,-2.4415,-2.4434,-2.4088,-2.4134,-2.421,-2.4008,-2.3877,-2.4022,-2.4484,-2.4178,-2.3915,-2.3915,-2.353,-2.327,-2.327,-2.327,-2.327,-2.327,-2.3475,-2.3747,-2.3966,-2.4034,-2.4034,-2.4034,-2.3747,-2.3611,-2.3611,-2.3543,-2.3652,-2.3915,-2.4218,-2.4427,-2.4638,-2.4721,-2.4647,-3.082,-3.0586,0.0,-2.9726,-2.9297,-2.8789,-2.8086,-2.8457,-2.9023,-2.918,-2.9648,-3.0078,-3.0234,-2.9963,0.0,0.0,0.0,0.0,0.0,-2.6812,-2.6871,-2.7383,-2.8301,-2.8965,-2.9141,-2.9766,-3.0234,-3.041,-3.0527,-3.0976,-3.1816,-3.2324,-3.2695,-3.2969,-3.3418,-3.3652,-3.3652,-3.3525,-3.3525,-3.3652,-3.3369,-3.3292,-3.3418,-3.3418,-3.3355,-3.3165,-3.2702,-3.2428,-3.2237,-3.1771,-3.0667,-2.9287,-2.9476,-2.8654,-2.7545,-2.8466,-2.7833,-2.6361,-2.5172,-2.4756,-2.4696,-2.4696,-2.4905,-2.507,-2.507,-2.5208,-2.5359,-2.5359,-2.5226,-2.5005,-2.5005,-2.4784,-2.4636,-2.4636,-2.4636,-2.4636,-2.4636,-2.4636,-2.4583,-2.4396,-2.4356,-2.4302,-2.4115,-2.4075,-2.4152,-2.4421,-2.4075,-2.3882,-2.3882,-2.3509,-2.318,-2.318,-2.3086,-2.2979,-2.2941,-2.3133,-2.3338,-2.3611,-2.3611,-2.3611,-2.3611,-2.3338,-2.3256,-2.3364,-2.3289,-2.3467,-2.3662,-2.3961,-2.4184,-2.4286,-2.4203,-2.4162]},{"header":{"parameterUnit":"m.s-1","parameterCategory":1,"la1":30.6,"la2":29.2853,"lo1":-89.7004,"lo2":-87.6739,"dy":0.0162,"dx":0.0183,"nx":112,"ny":82,"refTime":"2026-04-19T00:00:00:Z","depth":0,"parameterNumber":3,"parameterNumberName":"V-component_of_WINDS"},"data":[0.0,0.0,0.0,0.0,0.0,0.0,0.0,0.0,0.0,0.0,0.0,0.0,0.0,0.0,0.0,0.0,0.0,0.0,0.0,0.0,0.0,0.0,0.0,0.0,0.0,0.0,0.0,0.0,0.0,0.0,0.0,0.0,0.0,0.0,0.0,0.0,0.0,0.0,0.0,0.0,0.0,0.0,0.0,0.0,0.0,0.0,0.0,0.0,0.0,0.0,0.0,0.0,0.0,0.0,0.0,0.0,0.0,0.0,0.0,0.0,0.0,0.0,0.0,0.0,0.0,0.0,0.0,0.0,0.0,0.0,0.0,0.0,0.0,0.0,0.0,0.0,0.0,0.0,0.0,0.0,0.0,0.0,0.0,0.0,0.0,0.0,0.0,0.0,0.0,0.0,1.4445,1.5325,1.6684,1.7467,1.743,1.7141,1.6196,1.4259,0.0,0.0,0.0,0.0,0.0,0.0,0.0,0.0,0.0,0.0,0.0,0.0,0.0,0.0,0.0,0.0,0.0,0.0,0.0,0.0,0.0,0.0,0.0,0.0,0.0,0.0,0.0,0.0,0.0,0.0,0.0,0.0,0.0,0.0,0.0,0.0,0.0,0.0,0.0,0.0,0.0,0.0,0.0,0.0,0.0,0.0,0.0,0.0,0.0,0.0,0.0,0.0,0.0,0.0,0.0,0.0,0.0,0.0,0.0,0.0,0.0,0.0,0.0,0.0,0.0,0.0,0.0,0.0,0.0,0.0,0.0,0.0,0.0,0.0,0.0,0.0,0.0,0.0,0.0,0.0,0.0,0.0,0.0,0.0,0.0,0.0,0.0,0.0,0.0,0.0,0.0,0.0,0.0,0.0,0.0,0.0,0.0,0.0,0.0,0.0,0.0,0.0,0.0,0.0,1.5179,1.6642,1.7191,1.7394,1.7165,1.6706,1.5851,1.4448,0.0,0.0,0.0,0.0,0.0,0.0,0.0,0.0,0.0,0.0,0.0,0.0,0.0,0.0,0.0,0.0,0.0,0.0,0.0,0.0,0.0,0.0,0.0,0.0,0.0,0.0,0.0,0.0,0.0,0.0,0.0,0.0,0.0,0.0,0.0,0.0,0.0,0.0,0.0,0.0,0.0,0.0,0.0,0.0,0.0,0.0,0.0,0.0,0.0,0.0,0.0,0.0,0.0,0.0,0.0,0.0,0.0,0.0,0.0,0.0,0.0,0.0,0.0,0.0,0.0,0.0,0.0,0.0,0.0,0.0,0.0,0.0,0.0,0.0,0.0,0.0,0.0,0.0,0.0,0.0,0.0,0.0,0.0,0.0,0.0,0.0,0.0,0.0,0.0,0.0,0.0,0.0,0.0,0.0,0.0,0.0,0.0,0.0,0.0,0.0,0.0,0.0,0.0,1.4896,1.5584,1.6754,1.7117,1.7225,1.7105,1.6598,1.5743,1.4489,1.3834,0.0,0.0,0.0,0.0,0.0,0.0,0.0,0.0,0.0,0.0,0.0,0.0,0.0,0.0,0.0,0.0,0.0,0.0,0.0,0.0,0.0,0.0,0.0,0.0,0.0,0.0,0.0,0.0,0.0,0.0,0.0,0.0,0.0,0.0,0.0,0.0,0.0,0.0,0.0,0.0,0.0,0.0,0.0,0.0,0.0,0.0,0.0,0.0,0.0,0.0,0.0,0.0,0.0,0.0,0.0,0.0,0.0,0.0,0.0,0.0,0.0,0.0,0.0,0.0,0.0,0.0,0.0,0.0,0.0,0.0,0.0,0.0,0.0,0.0,0.0,0.0,0.0,0.0,0.0,0.0,0.0,0.0,0.0,0.0,0.0,0.0,0.0,0.0,0.0,0.0,0.0,0.0,0.0,0.0,0.0,0.0,0.0,0.0,0.0,0.0,0.0,0.0,1.5558,1.616,1.6634,1.6875,1.6972,1.6911,1.6404,1.5615,1.4432,1.3859,0.0,0.0,0.0,0.0,0.0,0.0,0.0,0.0,0.0,0.0,0.0,0.0,0.0,0.0,0.0,0.0,0.0,0.0,0.0,0.0,0.0,0.0,0.0,0.0,0.0,0.0,0.0,0.0,0.0,0.0,0.0,0.0,0.0,0.0,0.0,0.0,0.0,0.0,0.0,0.0,0.0,0.0,0.0,0.0,0.0,0.0,0.0,0.0,0.0,0.0,0.0,0.0,0.0,0.0,0.0,0.0,0.0,0.0,0.0,0.0,0.0,0.0,0.0,0.0,0.0,0.0,0.0,0.0,0.0,0.0,0.0,0.0,0.0,0.0,0.0,0.0,0.0,0.0,0.0,0.0,0.0,0.0,0.0,0.0,0.0,0.0,0.0,0.0,0.0,0.0,0.0,0.0,0.0,0.0,0.0,0.0,0.0,0.0,0.0,0.0,0.0,0.0,1.63,1.7287,1.6726,1.6718,1.6634,1.638,1.5861,1.5197,1.4377,1.3799,0.0,0.0,0.0,0.0,0.0,0.0,0.0,0.0,0.0,0.0,0.0,0.0,0.0,0.0,0.0,0.0,0.0,0.0,0.0,0.0,0.0,0.0,0.0,0.0,0.0,0.0,0.0,0.0,0.0,0.0,0.0,0.0,0.0,0.0,0.0,0.0,0.0,0.0,0.0,0.0,0.0,0.0,0.0,0.0,0.0,0.0,0.0,0.0,0.0,0.0,0.0,0.0,0.0,0.0,0.0,0.0,0.0,0.0,0.0,0.0,0.0,0.0,0.0,0.0,0.0,0.0,0.0,0.0,0.0,0.0,0.0,0.0,0.0,0.0,0.0,0.0,0.0,0.0,0.0,0.0,0.0,0.0,0.0,0.0,0.0,0.0,0.0,0.0,0.0,0.0,0.0,0.0,0.0,0.0,0.0,0.0,0.0,0.0,0.0,0.0,0.0,0.0,1.7351,1.8058,1.7325,1.7705,1.7762,1.7181,1.7068,1.6465,1.5169,0.0,0.0,0.0,0.0,0.0,0.0,0.0,0.0,0.0,0.0,0.0,0.0,0.0,0.0,0.0,0.0,0.0,0.0,0.0,0.0,0.0,0.0,0.0,0.0,0.0,0.0,0.0,0.0,0.0,0.0,0.0,0.0,0.0,0.0,0.0,0.0,0.0,0.0,0.0,0.0,0.0,0.0,0.0,0.0,0.0,0.0,0.0,0.0,0.0,0.0,0.0,0.0,0.0,0.0,0.0,0.0,0.0,0.0,0.0,0.0,0.0,0.0,0.0,0.0,0.0,0.0,0.0,0.0,0.0,0.0,0.0,0.0,0.0,0.0,0.0,0.0,0.0,0.0,0.0,0.0,0.0,0.0,0.0,0.0,0.0,0.0,0.0,0.0,0.0,0.0,0.0,0.0,0.0,0.0,0.0,0.0,0.0,0.0,0.0,0.0,0.0,0.0,1.6818,1.8341,1.9139,1.8448,1.8876,1.8982,1.8397,1.8212,1.7499,1.6101,0.0,0.0,0.0,0.0,0.0,0.0,0.0,0.0,0.0,0.0,0.0,0.0,0.0,0.0,0.0,0.0,0.0,0.0,0.0,0.0,0.0,0.0,0.0,0.0,0.0,0.0,0.0,0.0,0.0,0.0,0.0,0.0,0.0,0.0,0.0,0.0,0.0,0.0,0.0,0.0,0.0,0.0,0.0,0.0,0.0,0.0,0.0,0.0,0.0,0.0,0.0,0.0,0.0,0.0,0.0,0.0,0.0,0.0,0.0,0.0,0.0,0.0,0.0,0.0,0.0,0.0,0.0,0.0,0.0,0.0,0.0,0.0,0.0,0.0,0.0,0.0,0.0,0.0,0.0,0.0,0.0,0.0,0.0,0.0,0.0,0.0,0.0,0.0,0.0,0.0,0.0,0.0,0.0,0.0,0.0,0.0,0.0,0.0,0.0,0.0,0.0,0.0,1.7455,1.9378,2.0546,2.0046,2.0025,2.0025,2.0025,1.9158,1.8145,0.0,0.0,0.0,0.0,0.0,0.0,0.0,0.0,0.0,0.0,0.0,0.0,0.0,0.0,0.0,0.0,0.0,0.0,0.0,0.0,0.0,0.0,0.0,0.0,0.0,0.0,0.0,0.0,0.0,0.0,0.0,0.0,0.0,0.0,0.0,0.0,0.0,0.0,0.0,0.0,0.0,0.0,0.0,0.0,0.0,0.0,0.0,0.0,0.0,0.0,0.0,0.0,0.0,0.0,0.0,0.0,0.0,0.0,0.0,0.0,0.0,0.0,0.0,0.0,0.0,0.0,0.0,0.0,0.0,0.0,0.0,0.0,0.0,0.0,0.0,0.0,0.0,0.0,0.0,0.0,0.0,0.0,0.0,0.0,0.0,0.0,0.0,0.0,0.0,0.0,0.0,0.0,0.0,0.0,0.0,0.0,0.0,0.0,0.0,0.0,0.0,0.0,0.0,1.9356,2.103,2.1793,2.0982,2.1438,2.154,2.0963,2.0737,1.9854,1.8065,0.0,0.0,0.0,0.0,0.0,0.0,0.0,0.0,0.0,0.0,0.0,0.0,0.0,0.0,0.0,0.0,0.0,0.0,0.0,0.0,0.0,0.0,0.0,0.0,0.0,0.0,0.0,0.0,0.0,0.0,0.0,0.0,0.0,0.0,0.0,0.0,0.0,0.0,0.0,0.0,0.0,0.0,0.0,0.0,0.0,0.0,0.0,0.0,0.0,0.0,0.0,0.0,0.0,0.0,0.0,0.0,0.0,0.0,0.0,0.0,0.0,0.0,0.0,0.0,0.0,0.0,0.0,0.0,0.0,0.0,0.0,0.0,0.0,0.0,0.0,0.0,0.0,0.0,0.0,0.0,0.0,0.0,0.0,0.0,0.0,0.0,0.0,0.0,0.0,0.0,0.0,0.0,0.0,0.0,0.0,0.0,0.0,0.0,0.0,0.0,0.0,0.0,2.047,2.1855,2.2686,2.2449,2.287,2.2918,2.2245,2.2087,2.1136,1.9178,0.0,0.0,0.0,0.0,0.0,0.0,0.0,0.0,0.0,0.0,0.0,0.0,0.0,0.0,0.0,0.0,0.0,0.0,0.0,0.0,0.0,0.0,0.0,0.0,0.0,0.0,0.0,0.0,0.0,0.0,0.0,0.0,0.0,0.0,0.0,0.0,0.0,0.0,0.0,0.0,0.0,0.0,0.0,0.0,0.0,0.0,0.0,0.0,0.0,0.0,0.0,0.0,0.0,0.0,0.0,0.0,0.0,0.0,0.0,0.0,0.0,0.0,0.0,0.0,0.0,0.0,0.0,0.0,0.0,0.0,0.0,0.0,0.0,0.0,0.0,0.0,0.0,0.0,0.0,0.0,0.0,0.0,0.0,0.0,0.0,0.0,0.0,0.0,0.0,0.0,0.0,0.0,0.0,0.0,0.0,0.0,0.0,0.0,0.0,0.0,0.0,0.0,2.09,2.2152,2.3206,2.4073,2.4146,2.395,2.3535,2.3096,2.2044,2.0121,0.0,0.0,0.0,0.0,0.0,0.0,0.0,0.0,0.0,0.0,0.0,0.0,0.0,0.0,0.0,0.0,0.0,0.0,0.0,0.0,0.0,0.0,0.0,0.0,0.0,0.0,0.0,0.0,0.0,0.0,0.0,0.0,0.0,0.0,0.0,0.0,0.0,0.0,0.0,0.0,0.0,0.0,0.0,0.0,0.0,0.0,0.0,0.0,0.0,0.0,0.0,0.0,0.0,0.0,0.0,0.0,0.0,0.0,0.0,0.0,2.9036,2.8028,0.0,0.0,0.0,0.0,0.0,0.0,0.0,0.0,0.0,0.0,0.0,0.0,0.0,0.0,0.0,0.0,0.0,0.0,0.0,0.0,0.0,0.0,0.0,0.0,0.0,0.0,0.0,0.0,0.0,0.0,0.0,0.0,0.0,0.0,0.0,0.0,0.0,0.0,0.0,0.0,2.0996,2.2154,2.3096,2.362,2.3675,2.359,2.3499,2.2821,2.178,2.0231,1.9199,0.0,0.0,0.0,0.0,0.0,0.0,0.0,0.0,0.0,0.0,0.0,0.0,0.0,0.0,0.0,0.0,0.0,0.0,0.0,0.0,0.0,0.0,0.0,0.0,0.0,0.0,0.0,0.0,0.0,0.0,0.0,0.0,0.0,0.0,0.0,0.0,0.0,0.0,0.0,0.0,0.0,0.0,0.0,0.0,0.0,0.0,0.0,0.0,0.0,0.0,0.0,0.0,0.0,0.0,0.0,0.0,0.0,0.0,0.0,3.1501,3.0368,0.0,0.0,0.0,0.0,0.0,0.0,0.0,0.0,0.0,0.0,0.0,0.0,0.0,0.0,0.0,0.0,0.0,0.0,0.0,0.0,0.0,0.0,0.0,0.0,0.0,0.0,0.0,0.0,0.0,0.0,0.0,0.0,0.0,0.0,0.0,0.0,0.0,0.0,0.0,0.0,2.1513,2.2501,2.3261,2.372,2.3444,2.3133,2.2931,2.2529,2.1807,2.0698,1.9815,0.0,0.0,0.0,0.0,0.0,0.0,0.0,0.0,0.0,0.0,0.0,0.0,0.0,0.0,0.0,0.0,0.0,0.0,0.0,0.0,0.0,0.0,0.0,0.0,0.0,0.0,0.0,0.0,0.0,0.0,0.0,0.0,0.0,0.0,0.0,0.0,0.0,0.0,0.0,0.0,0.0,0.0,0.0,0.0,0.0,0.0,0.0,0.0,0.0,0.0,0.0,0.0,0.0,3.5884,3.5865,3.5117,3.6008,3.6203,3.5724,3.3727,3.2736,3.2425,3.1851,0.0,0.0,0.0,0.0,0.0,0.0,0.0,0.0,0.0,0.0,0.0,0.0,0.0,0.0,0.0,0.0,0.0,0.0,0.0,0.0,0.0,0.0,2.7825,2.8595,2.8463,2.7607,2.5444,0.0,0.0,0.0,0.0,0.0,0.0,0.0,0.0,0.0,0.0,0.0,2.2181,2.3008,2.368,2.4028,2.3531,2.3029,2.2675,2.2609,2.2255,2.1491,2.0764,2.0219,0.0,0.0,0.0,0.0,0.0,0.0,0.0,0.0,0.0,0.0,0.0,0.0,0.0,0.0,0.0,0.0,0.0,0.0,0.0,0.0,0.0,0.0,0.0,0.0,0.0,0.0,0.0,0.0,0.0,0.0,0.0,0.0,3.4432,3.583,0.0,0.0,0.0,0.0,0.0,0.0,0.0,0.0,0.0,0.0,0.0,0.0,0.0,3.6999,3.8113,3.9644,3.9906,3.8981,4.0076,4.0026,3.8993,3.9093,3.8893,3.8417,3.8066,0.0,3.4757,3.4636,0.0,0.0,0.0,0.0,0.0,0.0,0.0,0.0,0.0,0.0,0.0,0.0,0.0,0.0,0.0,0.0,0.0,0.0,0.0,0.0,0.0,0.0,3.0278,2.9965,2.9834,2.9708,2.9368,2.6884,2.4516,2.3935,2.3431,2.2645,0.0,0.0,0.0,0.0,0.0,0.0,2.243,2.3527,2.4282,2.4341,2.4252,2.4187,2.4128,2.3815,2.3421,2.2966,2.2487,2.207,2.1668,2.0441,0.0,0.0,0.0,0.0,0.0,0.0,0.0,0.0,0.0,0.0,0.0,0.0,0.0,0.0,0.0,0.0,0.0,0.0,0.0,0.0,0.0,0.0,0.0,0.0,0.0,0.0,0.0,0.0,0.0,3.4575,3.5568,3.5885,3.5208,3.4238,0.0,0.0,0.0,0.0,0.0,0.0,0.0,0.0,0.0,3.8711,3.9267,4.025,4.1625,4.2445,4.2732,4.2521,4.3007,4.2998,4.2492,4.2492,4.2176,4.16,4.16,4.0762,3.928,3.6887,3.4927,3.3479,0.0,0.0,0.0,0.0,3.1252,3.1462,3.2221,3.2453,3.2408,3.233,0.0,0.0,0.0,0.0,0.0,0.0,0.0,2.8866,3.0053,3.0429,3.0518,3.0922,3.1019,3.1019,3.1019,2.9522,2.7801,2.6502,2.6021,2.5192,2.315,2.2686,0.0,0.0,0.0,2.3849,2.4004,2.4598,2.4951,2.4842,2.4364,2.4058,2.4058,2.3901,2.372,2.3561,2.3158,2.3022,2.3185,2.1878,2.1069,0.0,0.0,0.0,0.0,0.0,0.0,0.0,0.0,0.0,0.0,0.0,0.0,0.0,0.0,0.0,0.0,0.0,0.0,0.0,0.0,0.0,0.0,0.0,0.0,0.0,0.0,0.0,0.0,3.6641,3.7289,3.7072,3.6989,3.6171,0.0,0.0,0.0,0.0,0.0,0.0,3.8878,3.9689,4.0793,4.2352,4.2711,4.3606,4.5108,4.5323,4.5431,4.5523,4.5523,4.5372,4.5119,4.5119,4.4742,4.4171,4.4008,4.3579,4.2749,3.9264,3.716,3.6024,3.529,3.4666,3.4172,3.3958,3.3926,3.4175,3.5452,3.5805,3.5653,3.5656,3.5398,3.4644,3.1973,0.0,0.0,0.0,0.0,3.0238,3.2164,3.2077,3.1582,3.222,3.2142,3.1937,3.1761,3.1404,3.0644,2.897,2.8392,2.7515,2.5389,2.452,0.0,2.3814,2.462,2.5323,2.5502,2.5782,2.5883,2.5737,2.5041,2.4573,2.4531,2.4445,2.4445,2.4488,2.4178,2.42,2.4678,2.3549,2.2739,2.2383,0.0,0.0,0.0,0.0,0.0,0.0,0.0,0.0,0.0,0.0,0.0,0.0,0.0,0.0,0.0,0.0,0.0,0.0,0.0,0.0,0.0,0.0,0.0,0.0,0.0,0.0,0.0,0.0,0.0,4.1629,4.1339,0.0,0.0,0.0,0.0,3.9273,4.0422,4.1333,4.1934,4.3006,4.4125,4.5194,4.63,4.7417,4.848,4.9088,4.8886,4.7836,4.7836,4.7299,4.6238,4.6238,4.5912,4.5367,4.4796,4.4226,4.3525,4.2229,4.1334,4.0629,3.9267,3.8898,3.9037,3.8222,3.8049,3.8222,3.8292,3.7939,3.7558,3.8048,3.7323,3.6074,3.54,3.4244,0.0,0.0,3.4847,3.5047,3.63,3.5811,3.4864,3.4295,3.342,3.2506,3.1849,3.1693,3.15,3.0879,2.9923,2.8896,2.7874,0.0,2.6628,2.5793,2.6106,2.6427,2.6411,2.6846,2.7103,2.7103,2.688,2.6633,2.6404,2.6177,2.6177,2.6362,2.6155,2.6133,2.6359,2.5687,2.456,2.2889,2.1902,0.0,0.0,0.0,0.0,0.0,0.0,0.0,0.0,0.0,0.0,0.0,0.0,0.0,0.0,0.0,0.0,0.0,0.0,0.0,0.0,0.0,0.0,0.0,0.0,0.0,0.0,0.0,0.0,4.3445,4.3421,0.0,4.1267,4.2052,4.2366,4.1663,4.3783,4.5281,4.5798,4.6576,4.7375,4.8114,4.8574,4.898,4.9349,4.9553,4.9522,4.91,4.91,4.8902,4.8474,4.8474,4.8134,4.7538,4.7311,4.6631,4.5666,4.5259,4.3743,4.1637,4.111,4.0748,4.0459,4.0196,3.9897,3.9659,4.0277,4.0077,3.9633,4.0011,3.9142,3.8046,3.8359,3.7075,3.5804,3.7193,3.6784,3.6114,3.688,3.6385,3.5621,3.541,3.4526,3.3649,3.3437,3.2846,3.2302,3.213,3.0816,2.9491,2.8442,2.783,2.7386,2.7079,2.7159,2.7341,2.7592,2.7619,2.7574,2.7389,2.7185,2.7062,2.6981,2.6899,2.6857,2.694,2.6857,2.6857,2.694,2.6576,2.5874,2.4709,2.3829,2.2448,0.0,0.0,0.0,0.0,0.0,0.0,0.0,0.0,0.0,0.0,0.0,0.0,0.0,0.0,0.0,0.0,0.0,0.0,0.0,0.0,0.0,0.0,0.0,0.0,0.0,4.2878,4.4124,4.5053,4.5721,4.5508,4.3925,4.5027,4.5586,4.5022,4.6845,4.8143,4.8534,4.9174,4.9563,4.9717,4.9901,4.9901,4.9717,4.9717,4.9717,4.9717,4.9717,4.9717,4.9717,4.9717,4.9436,4.903,4.8827,4.813,4.7143,4.6865,4.5424,4.3278,4.3055,4.2879,4.2683,4.2461,4.2154,4.1809,4.2034,4.1639,4.1127,4.1336,4.0625,3.9755,4.0278,3.923,3.8097,3.9313,3.8846,3.8089,3.8699,3.8007,3.7044,3.6837,3.5828,3.4815,3.4459,3.3775,3.3232,3.3172,3.1638,3.0134,2.9436,2.8715,2.8258,2.8258,2.8114,2.8035,2.8251,2.8203,2.8042,2.7857,2.7672,2.751,2.7452,2.7348,2.7348,2.7452,2.7186,2.7094,2.7174,2.6754,2.6115,2.5348,2.4438,2.3212,2.1607,0.0,0.0,0.0,0.0,0.0,0.0,0.0,0.0,0.0,0.0,0.0,0.0,0.0,0.0,0.0,0.0,0.0,0.0,0.0,0.0,0.0,0.0,0.0,4.3714,4.5414,4.6653,4.6756,4.8394,4.9043,4.7804,4.8322,4.8942,4.9469,4.9575,4.9728,5.0164,5.073,5.0641,4.9805,5.0415,5.0394,4.9746,4.9698,4.9698,4.9717,4.9717,4.9717,4.9717,4.9717,4.9717,4.964,4.903,4.8391,4.7753,4.7114,4.6475,4.5837,4.5169,4.5314,4.5808,4.514,4.4908,4.4705,4.3427,4.2615,4.2121,4.2121,4.1657,4.1134,4.1134,4.067,4.0292,4.0931,4.1134,4.1279,4.1918,4.0821,3.9361,3.8695,3.7259,3.5816,3.487,3.45,3.4277,3.4079,3.2379,3.0989,3.0965,3.0073,2.9333,2.9333,2.8875,0.0,2.8522,2.8522,2.8522,2.8522,2.8339,2.8139,2.7921,2.7696,2.7632,2.7857,2.7165,2.6823,2.7097,2.6201,2.5386,2.4619,2.3695,2.2834,2.2049,0.0,0.0,0.0,0.0,0.0,0.0,0.0,0.0,0.0,0.0,0.0,0.0,0.0,0.0,0.0,0.0,0.0,0.0,0.0,0.0,0.0,4.3977,4.5448,4.5585,4.648,4.7821,4.9729,4.9951,4.9994,5.0003,5.0292,5.0424,5.0224,5.081,5.1324,5.1778,5.1736,5.1616,5.1362,5.1366,5.1033,5.0394,5.0444,5.0211,4.9717,4.9717,4.9717,4.9717,4.9717,4.9717,4.9717,4.9494,4.9059,4.842,4.7782,4.7143,4.6505,4.5866,4.5721,4.5866,4.5663,4.5314,4.4705,4.3427,4.2876,4.2673,4.2237,4.1976,4.1831,4.1831,4.1686,4.1599,4.1773,4.1831,4.186,4.2063,4.1024,3.9892,3.9693,3.8364,3.7056,3.6638,3.5749,3.4979,3.4786,3.374,3.2819,3.2416,3.1407,3.0532,3.0078,2.9529,2.8988,2.8538,2.8522,2.8522,2.8522,2.8459,2.8403,2.8363,2.8259,2.8092,2.7774,2.7567,2.7266,2.6962,2.6591,2.5995,2.5294,2.4282,2.3443,0.0,0.0,0.0,0.0,0.0,0.0,0.0,0.0,0.0,0.0,0.0,0.0,0.0,0.0,0.0,0.0,0.0,0.0,0.0,0.0,0.0,0.0,4.5963,4.7339,4.7834,4.8252,4.9194,5.102,5.1109,5.1152,5.1429,5.1792,5.1942,5.1654,5.2107,5.2445,5.2556,5.2703,5.2582,5.2188,5.1917,5.1445,5.0854,5.0493,5.0124,4.9717,4.9717,4.9717,4.9717,4.9717,4.9717,4.9717,4.9717,4.932,4.8682,4.8043,4.7404,0.0,0.0,0.0,0.0,0.0,4.5459,4.4792,4.4037,4.3427,4.2934,4.2586,4.2295,4.2092,4.2092,4.2092,4.2092,4.2092,4.2092,4.2092,4.2092,4.1105,4.0089,4.0089,3.8938,3.7815,3.7586,3.6872,3.6215,3.6004,3.544,0.0,3.4444,3.2788,3.1417,3.1084,3.0284,2.9651,2.9302,2.9263,2.9263,2.9263,2.9052,2.8895,2.8895,2.8657,0.0,0.0,0.0,2.7018,2.6176,2.6041,0.0,0.0,0.0,0.0,0.0,0.0,0.0,0.0,2.1137,2.0631,0.0,0.0,0.0,0.0,0.0,0.0,0.0,0.0,0.0,0.0,0.0,0.0,0.0,0.0,0.0,0.0,4.7938,4.8895,5.0016,5.0255,5.0554,5.1259,5.1858,5.2217,5.2306,5.2845,5.3204,5.3294,5.3294,5.3226,5.307,5.3635,0.0,0.0,0.0,5.1921,5.1267,5.0388,4.9863,4.9717,4.9717,4.9717,4.9717,4.9717,4.9717,4.9717,4.9717,4.9349,4.8769,4.8072,4.7346,4.6633,4.6098,4.5895,4.5895,4.5895,4.5518,4.4995,4.4908,0.0,0.0,4.305,4.2644,4.2179,4.2121,4.2092,4.2092,4.2092,4.2092,4.2092,4.2092,4.1163,4.0176,4.0118,3.9189,3.8243,3.7958,3.7739,3.7548,3.7327,3.6978,3.6665,3.6496,3.4153,3.2249,3.2129,3.1112,3.0393,3.0317,3.0279,3.0279,3.0279,0.0,0.0,2.9496,2.9013,2.8673,2.8624,2.768,2.665,2.554,2.5444,2.542,2.542,2.5348,2.5359,2.5406,2.5288,2.4837,2.406,2.2009,2.1363,0.0,0.0,0.0,0.0,0.0,0.0,0.0,0.0,0.0,0.0,0.0,0.0,0.0,0.0,0.0,4.6531,4.8342,4.9897,5.0166,5.0644,5.1259,5.1947,5.2127,5.2396,5.2935,5.3114,5.3414,5.3982,5.4012,5.4251,5.474,5.4637,5.4535,5.4366,5.4001,5.3288,5.2141,5.1745,5.1061,5.0038,4.9766,0.0,4.9717,4.9717,4.9717,4.9717,4.9717,4.9611,4.9407,4.8246,4.7114,4.604,4.5924,4.5895,4.5895,4.5895,4.5808,4.5605,4.5082,4.4734,4.4356,4.3311,4.2905,4.2731,4.2237,4.2092,0.0,4.2092,4.2092,4.2092,4.2092,4.1512,4.0757,4.0234,3.9538,3.8793,3.8045,3.7739,3.7548,3.7327,3.7095,3.694,3.6889,3.5173,3.3611,3.2909,3.1794,3.0846,3.0355,3.0279,3.0279,3.0279,3.0203,3.0126,3.0126,3.0012,2.9758,2.934,2.8743,2.8323,2.8094,2.7601,2.7373,2.7373,2.6882,2.6414,2.6025,2.599,2.5627,2.4874,2.3746,2.2926,0.0,0.0,0.0,0.0,0.0,0.0,0.0,0.0,0.0,0.0,0.0,4.5125,4.6112,0.0,4.8386,4.8716,4.9837,5.084,5.1169,5.1229,5.1468,5.2127,5.2486,5.2965,5.3623,5.3982,5.4341,5.467,5.47,5.485,5.5179,5.5078,5.5006,5.5006,5.4395,5.374,5.3118,5.219,5.1395,5.0778,5.0329,5.0086,5.0086,5.0086,5.0038,4.9892,4.9892,4.9815,4.963,4.8304,4.723,4.633,4.6011,4.5895,4.5895,4.5895,4.5895,4.5837,4.5488,4.5169,4.4734,4.3805,4.3253,4.2876,4.2266,4.2092,4.2092,4.2092,4.2092,4.2092,4.2092,4.1599,4.0931,4.0263,3.9625,3.8977,3.8225,3.7938,3.7863,3.7749,3.7596,3.7433,3.7289,3.622,3.5038,3.4088,3.2813,3.1809,3.1405,3.1283,3.1246,3.1246,3.0921,3.0733,3.0733,3.0469,3.0086,2.9523,2.9277,2.9031,2.881,2.8502,2.8347,2.8347,2.8029,2.7761,2.7455,2.7177,2.7002,2.6863,2.6177,2.4965,0.0,0.0,0.0,0.0,0.0,0.0,0.0,4.3938,4.3878,4.5693,4.6172,4.686,4.894,4.9509,5.0002,5.105,5.1319,5.1648,5.2306,5.1828,5.1648,5.2306,5.2755,5.3324,5.4132,5.47,5.5059,5.5179,5.5179,5.5179,5.5179,5.5179,5.5179,5.5179,5.447,5.3952,5.3684,5.2398,5.163,5.1364,5.0784,5.0501,5.0501,5.0501,5.0405,5.0183,5.0183,4.995,4.9601,4.8388,4.7544,4.6812,4.6218,4.5911,4.5895,4.5895,4.5895,4.5895,4.5895,4.5547,4.4966,4.4356,4.3718,4.3079,4.244,4.2179,4.2092,4.2092,4.2092,4.2092,4.2092,4.1686,4.1134,4.0437,3.9828,3.9189,3.8551,3.8289,3.8202,3.8202,3.8052,3.7929,3.7739,3.7082,3.6193,3.5088,3.3843,3.2878,3.2561,3.2408,3.2264,3.2228,3.1726,3.1368,3.1368,3.0921,3.0477,3.0047,3.0021,2.985,2.947,2.934,2.9288,2.9288,2.9184,2.9035,2.8866,2.8437,2.8392,2.8723,2.8296,2.6991,4.265,4.2351,4.283,4.4526,4.4526,4.4885,0.0,4.7638,4.713,4.858,4.9284,4.9613,4.9359,5.0212,5.105,5.1199,5.1708,5.2306,5.2965,5.2516,5.2336,5.2995,5.2606,5.2815,5.4102,5.4281,5.4551,5.5149,5.5179,5.5179,5.5179,5.5179,5.5179,5.5179,5.5119,5.4441,5.3245,5.2851,5.2051,5.0894,5.0596,5.0501,5.0501,5.0501,5.0501,5.0453,5.0453,5.0099,4.9481,4.8727,4.7913,4.7102,4.6414,4.6046,4.5895,4.5895,4.5895,4.5895,4.5895,4.5837,4.5663,4.4995,4.4385,4.3747,4.3079,4.2528,4.2092,4.2092,4.2092,4.2092,4.2092,4.2034,4.1831,4.1134,4.0466,3.9828,3.9218,3.8609,3.8202,3.8202,3.8165,3.8165,3.8127,3.7635,3.6741,3.5282,3.4497,3.378,3.3008,3.2775,3.2561,3.2381,3.2191,3.2109,3.2109,3.2009,3.1946,3.1892,3.1892,3.1865,3.182,3.1334,3.1002,3.1002,3.0489,2.9977,2.9495,2.9443,2.9196,2.8785,2.8733,2.8441,4.4825,4.4676,4.5035,4.6651,4.683,4.7189,4.9344,4.9105,4.8805,5.0122,5.093,5.1289,5.102,5.1409,5.1798,5.1798,5.2007,5.2426,5.3084,5.2606,5.2306,5.2576,5.2366,5.2725,5.4072,5.4221,5.4491,5.5149,5.5179,5.5179,5.5179,5.5179,5.5179,5.5179,5.5179,5.473,5.3773,5.3286,5.258,5.1625,5.1125,5.0899,5.0899,5.0899,5.0805,5.0662,5.0548,5.0353,4.9999,4.8968,4.8257,4.7858,4.6858,4.6358,4.6269,4.603,4.5895,4.5895,4.5895,4.5895,4.5779,4.5111,4.4705,4.4327,4.3311,4.2818,4.2557,4.2208,4.2092,4.2092,4.2092,4.2092,4.1918,4.125,4.0873,4.0408,3.9421,3.8986,3.8667,3.8289,3.8202,3.8202,3.8202,3.7999,3.7511,3.6515,3.5353,3.4257,3.3452,3.3164,3.2988,3.2775,3.2596,3.2444,3.2336,3.2228,3.2218,3.2218,3.2218,3.2218,3.2218,3.1938,3.1802,3.1802,3.1558,3.1316,3.1101,3.0752,3.0646,3.0751,3.0432,3.0396,4.6082,4.6441,4.713,4.8267,4.8835,4.9344,5.0255,5.0272,5.0331,5.1289,5.2007,5.2426,5.2247,5.2336,5.2486,5.2486,5.2636,5.2905,5.3384,5.3054,5.2695,5.2486,5.2306,5.2665,5.3803,5.3922,5.4192,5.488,5.491,5.4999,5.5179,5.5179,5.5179,5.5179,5.5179,5.479,5.3922,5.3443,5.2755,5.1917,5.1439,5.1229,5.1229,5.1229,5.1058,5.0917,5.0757,5.0662,5.0573,4.9242,4.8663,4.847,4.717,4.6624,4.6565,4.6209,4.6075,4.5956,4.594,4.5895,4.5808,4.5314,4.5024,4.4676,4.3602,4.3137,4.2876,4.2266,4.2092,4.2092,4.2092,4.2092,4.1976,4.1482,4.1221,4.0786,3.9683,3.9305,3.9015,3.8347,3.8202,3.8202,3.8202,3.8202,3.7999,3.7389,3.6274,3.5132,3.412,3.3655,3.3304,3.3094,3.2952,3.281,3.2668,3.2516,3.2372,3.2336,3.2264,3.2228,3.2218,3.2218,3.2218,3.2218,3.2218,3.2218,3.2218,3.1748,3.1748,3.2191,3.1748,3.1775,4.5514,4.6741,4.8386,4.912,5.0182,5.1139,5.1169,5.1678,5.2127,5.2157,5.2695,5.2965,5.2306,5.2725,5.3144,5.3144,5.3713,5.4162,5.4192,5.4162,5.3892,5.3234,5.2606,5.2456,5.3144,5.3204,5.3503,5.4192,5.4251,5.4521,5.5149,5.5179,5.5179,5.5179,5.5179,5.4551,5.3234,5.3204,5.2546,5.1259,5.1229,5.1229,5.1229,5.1229,5.1229,5.1182,5.1182,5.1182,5.1063,4.9793,4.9119,4.8743,4.7436,4.6756,4.6609,4.658,4.6403,4.618,4.5956,4.5895,4.5895,4.5866,4.543,4.4763,4.4153,4.3515,4.2876,4.2266,4.2092,4.2092,4.2092,4.2092,4.2092,4.2063,4.157,4.0902,4.0205,3.9625,3.9015,3.8347,3.8202,3.8202,3.8202,3.8202,3.7999,3.7389,3.7273,3.6707,3.5229,3.4219,3.3507,3.3304,3.3304,3.3269,3.3269,3.3094,3.2881,3.2704,3.2489,3.2336,3.2218,3.2218,3.2218,3.2218,3.2218,3.2218,3.2218,3.2191,3.2191,3.2218,3.2191,3.2191,4.8133,4.9374,5.0481,5.1588,5.2187,5.2636,5.3114,5.3384,5.3414,5.2935,5.3025,5.2845,5.1738,5.1738,5.2007,5.2456,5.3084,5.3683,5.4132,5.4221,5.3952,5.3264,5.3384,5.3264,5.2606,5.2546,5.2815,5.3473,5.3952,5.4311,5.4521,5.497,5.5179,5.5179,5.476,5.4102,5.3204,5.2755,5.2097,5.1229,5.1229,5.1229,5.1229,5.1229,5.1229,5.1229,5.1229,5.0913,5.0465,4.9613,4.9015,4.8417,4.7507,4.7106,4.7048,4.6844,4.6756,4.6624,4.6403,4.6358,4.6343,4.6135,4.5945,4.5624,4.4807,4.4153,4.3515,4.2876,4.2411,4.2092,4.2092,4.2092,4.2092,4.2092,4.1918,4.157,4.0902,4.0263,3.9625,3.8986,3.8492,3.8202,3.8202,3.8202,3.8144,3.7941,3.7186,3.6454,3.5983,3.527,3.4727,3.4524,3.3978,3.3612,3.3507,3.3304,3.3164,3.3094,3.2917,3.2704,3.2525,3.2381,3.23,3.2218,3.2218,3.2218,3.2218,3.2218,3.2218,3.2218,3.2218,3.2218,4.9717,5.105,5.2127,5.2965,5.3354,5.3593,5.3803,5.3832,5.3653,5.2965,5.2636,5.2157,5.1079,5.0823,5.1169,5.2067,5.2755,5.3414,5.4132,5.4431,5.4311,5.3623,5.3952,5.3862,5.2995,5.2486,5.2366,5.2785,5.3443,5.3952,5.4192,5.485,5.5179,5.5179,5.4551,5.3892,5.3204,5.2546,5.1858,5.1229,5.1229,5.1229,5.1229,5.1229,5.1229,5.1229,5.1229,5.0794,5.0136,4.9523,4.891,4.8207,4.7549,4.7309,4.7266,4.7106,4.7019,4.6975,4.6712,4.6609,4.6535,4.6403,4.6358,4.6196,4.5303,4.4603,4.3963,4.3209,4.2557,4.2092,4.2092,4.2092,4.2092,4.2092,4.2092,4.1918,4.125,4.0757,4.0205,3.9363,3.8841,3.8492,3.8231,3.8202,3.8202,3.8202,3.7506,3.6896,3.6693,3.6112,3.5584,3.5247,3.4704,3.4249,3.3917,3.3716,3.3548,3.3479,3.3304,3.3094,3.2917,3.281,3.2632,3.248,3.2408,3.2336,3.2264,3.2191,3.2218,3.2218,3.2218,3.2218,5.0375,5.1828,5.3294,5.3294,5.3773,5.4072,5.3384,5.3234,5.3025,5.2306,5.1588,5.093,5.0226,5.0076,5.0524,5.1947,5.2725,5.3443,5.4162,5.479,5.497,5.4341,5.4251,5.4251,5.4221,5.3054,5.2276,5.2247,5.2815,5.3473,5.4162,5.485,5.5179,5.5179,5.4521,5.3832,5.3204,5.2486,5.1828,5.1229,5.1229,5.1229,5.1229,5.1229,5.1229,5.1229,5.1229,5.0794,5.0106,4.9523,4.8865,4.8177,4.7549,4.7309,4.7309,4.7352,4.7396,4.7309,4.6844,4.6668,4.6624,4.6653,4.6653,4.6462,4.5625,4.4893,4.4163,4.3309,4.2656,4.2162,4.2133,4.2133,4.2133,4.2133,4.2092,4.1918,4.1279,4.1105,4.0728,3.9538,3.9247,3.8986,3.8318,3.8202,3.8202,3.8202,3.8202,3.7999,3.7418,3.678,3.6141,3.5566,3.5479,3.5189,3.4516,3.4288,3.4054,3.3854,3.3681,3.3542,3.3339,3.3304,3.3234,3.3023,3.2846,3.2632,3.2417,3.23,3.2218,3.2218,3.2218,3.2218,5.2785,5.3922,5.467,5.467,5.482,5.476,5.4102,5.3952,5.3473,5.1798,5.0571,4.9553,4.8895,4.8775,4.9374,5.1169,5.2426,5.3593,5.476,5.5089,5.5119,5.497,5.494,5.476,5.4251,5.3892,5.3473,5.2965,5.3084,5.3473,5.4162,5.485,5.5179,5.5179,5.4042,5.3354,5.3174,5.2037,5.1379,5.1229,5.1229,5.1229,5.1229,5.1229,5.1229,5.1229,5.1229,5.0571,4.9494,4.9389,4.8596,4.7549,4.7369,4.7309,4.7396,4.8019,4.824,4.824,4.8115,4.7679,4.7092,4.6887,4.6844,4.677,4.6403,4.5785,4.5108,4.4376,4.3759,4.3184,4.2673,4.2433,4.231,4.231,4.2216,4.2063,4.1889,4.1453,4.0989,4.067,3.9857,3.8986,3.8318,3.8202,3.8202,3.8202,3.8202,3.8144,3.7999,3.7447,3.6983,3.6838,3.6373,3.5822,3.5218,3.5091,3.4853,3.4293,3.4059,3.3888,3.3652,3.3577,3.3437,3.3234,3.3164,3.3058,3.2846,3.2668,3.2489,3.2345,3.2228,3.2218,5.3892,5.47,5.5179,5.5179,5.497,5.4521,5.3533,5.2875,5.1917,4.9912,4.8446,4.7489,4.7429,4.7429,4.8267,5.081,5.2067,5.3324,5.497,5.5179,5.5179,5.5179,5.5179,5.5029,5.467,5.4371,5.4162,5.4072,5.3803,5.3803,5.4192,5.485,5.5059,5.476,5.3743,5.2905,5.2336,5.1588,5.1229,5.1229,5.1229,5.1229,5.1229,5.1229,5.1229,5.1229,5.1229,5.0631,4.9673,4.9419,4.8656,4.7742,4.7842,4.7849,4.7976,4.879,4.9116,4.9116,4.9116,4.879,4.824,4.7336,4.7062,4.7019,4.68,4.6513,4.6226,4.5741,4.4964,4.4197,4.3808,4.3138,4.2555,4.2555,4.2433,4.2351,4.2257,4.1966,4.1575,4.1163,4.006,3.9073,3.8696,3.8405,3.8202,3.8202,3.8202,3.8202,3.8202,3.7912,3.7593,3.7331,3.6983,3.6489,3.5822,3.5799,3.5619,3.527,3.4877,3.46,3.4496,3.4163,3.3854,3.3681,3.3548,3.3409,3.3262,3.3058,3.2846,3.2668,3.2516,3.2372,5.4431,5.488,5.5299,5.5209,5.47,5.3832,5.2396,5.1109,4.9598,4.7608,4.6172,4.5514,4.6202,4.6279,4.7399,5.069,5.1768,5.2905,5.491,5.5179,5.5179,5.5179,5.5179,5.5179,5.5179,5.467,5.4581,5.5149,5.467,5.4341,5.4341,5.488,5.485,5.4102,5.3414,5.2456,5.1229,5.1293,5.1386,5.1386,5.1526,5.1572,5.1572,5.1572,5.1572,5.1572,5.1572,5.115,5.0397,4.9869,4.9205,4.8494,4.8664,4.8749,4.8831,4.9647,4.9962,4.9962,4.9962,4.9962,4.9686,4.8115,4.7624,4.7581,4.7379,4.7395,4.7497,4.7242,4.6345,4.5437,4.5284,4.4237,4.314,4.293,4.289,4.2769,4.2514,4.2514,4.235,4.1554,4.0529,3.9739,3.9574,3.8943,3.8431,3.8431,3.8373,3.8315,3.8315,3.824,3.8036,3.7587,3.7455,3.7194,3.6597,3.6467,3.6402,3.6315,3.5793,3.5537,3.5537,3.4951,3.4558,3.4421,3.422,3.4076,3.393,3.3727,3.3522,3.3345,3.3131,3.2952,5.5688,5.5927,5.5867,5.5329,5.47,5.3713,5.1828,5.0734,4.9478,4.6967,4.5843,4.5514,4.6202,4.6279,4.7399,5.069,5.1768,5.2905,5.491,5.5179,5.5179,5.5179,5.5179,5.5179,5.5179,5.5089,5.5059,5.5179,5.5089,5.5029,5.5029,5.5119,5.464,5.3384,5.2725,5.2007,5.1229,5.1957,5.2336,5.2381,5.3152,5.3502,5.3502,5.3502,5.3502,5.3502,5.3502,5.2782,5.1623,5.1497,5.0683,4.9555,4.959,4.9567,4.9686,5.0538,5.0876,5.0876,5.0876,5.0876,5.0723,4.9718,4.9399,4.9327,4.9327,4.9313,4.9213,4.8647,4.8333,4.7893,4.6762,4.6097,4.5432,4.4212,4.3819,4.3506,4.2809,4.318,4.3529,4.3137,4.2908,4.2498,4.1684,4.0539,3.9787,3.9787,3.9306,3.8943,3.8943,3.8501,3.836,3.8723,3.8355,3.7952,3.7783,3.7389,3.6896,3.6344,3.6199,3.6141,3.6141,3.6025,3.5932,3.5896,3.5861,3.5754,3.5576,3.5461,3.528,3.5062,3.4851,3.4741,5.6466,5.6406,5.6107,5.5777,5.467,5.3054,5.072,4.9434,4.8055,4.5808,4.478,4.4588,4.5698,4.5834,4.6531,4.8805,4.9733,5.099,5.3294,5.3623,5.4209,5.5747,5.5918,5.6134,5.6638,5.6686,5.6686,5.6686,5.6686,5.628,5.5229,5.4986,5.4613,5.3945,5.3423,5.2959,5.2651,5.3108,5.3328,5.3328,5.3762,5.3976,5.3976,5.3976,5.3976,5.3976,5.3976,5.3597,5.2934,5.2207,5.1733,5.1466,5.1175,5.1044,5.116,5.1992,5.2093,5.1798,5.1798,5.1798,5.1692,5.129,5.0538,4.9805,4.9805,5.0151,5.0397,5.0083,4.9769,4.932,4.8684,4.758,4.6428,4.5734,4.5098,4.4524,4.4136,4.4259,4.4401,4.4316,4.4049,4.3629,4.3033,4.209,4.1249,4.077,4.0323,3.995,3.9589,3.9277,3.9205,3.9493,3.9277,3.9056,3.9043,3.8799,3.8502,3.8175,3.7883,3.7564,3.7246,3.6952,3.6635,3.6315,3.6315,3.6244,3.6143,3.6101,3.5956,3.5775,3.5593,3.5447,5.6885,5.6855,5.6526,5.6308,5.479,5.2665,4.9928,4.8237,4.6743,4.4902,4.4004,4.4022,4.548,4.5553,4.5834,4.7297,4.7979,4.9194,5.1828,5.2497,5.368,5.6278,5.6783,5.7229,5.7993,5.8085,5.8085,5.8085,5.8085,5.7355,5.5656,5.5173,5.4854,5.4699,5.4248,5.3976,5.3976,5.419,5.4274,5.4274,5.4485,5.4569,5.4569,5.4569,5.4569,5.4569,5.4569,5.4505,5.4282,5.3163,5.2844,5.3053,5.2631,5.2378,5.2323,5.295,5.2837,5.2409,5.2409,5.2409,5.2409,5.2409,5.1438,5.0384,5.0384,5.0805,5.1397,5.1397,5.101,5.0558,5.0395,4.9083,4.7636,4.7134,4.6171,4.5416,4.5597,4.5493,4.5421,4.5493,4.5155,4.4737,4.4521,4.3706,4.2838,4.2133,4.1612,4.1132,4.0515,4.0366,4.0309,4.0274,4.003,3.996,4.0095,3.996,3.9889,3.9889,3.9469,3.8987,3.8501,3.8023,3.7575,3.7086,3.7086,3.7086,3.7086,3.7086,3.698,3.6807,3.6729,3.6541,5.6765,5.7513,5.7663,5.6466,5.5149,5.3264,5.0048,4.8237,4.6743,4.4902,4.4434,4.484,4.6316,4.5981,4.6107,4.8059,4.8339,4.9194,5.1828,5.3523,5.5021,5.6436,5.7418,5.7993,5.8085,5.8085,5.8085,5.8085,5.8085,5.7709,5.6849,5.6185,5.5613,5.497,5.4344,5.3976,5.3976,5.4819,5.519,5.519,5.6027,5.6447,5.6447,5.6447,5.6447,5.6447,5.6447,5.6051,5.5419,5.5325,5.4533,5.3379,5.332,5.2927,5.2401,5.2473,5.244,5.2409,5.2409,5.2409,5.2409,5.2409,5.2302,5.2161,5.2161,5.223,5.2266,5.2266,5.2269,5.2037,5.1376,5.1043,5.0336,4.8291,4.671,4.5841,4.6518,4.6657,4.6726,4.7101,4.7137,4.7002,4.6659,4.5565,4.4741,4.4643,4.3424,4.2367,4.22,4.1901,4.1653,4.1456,4.0547,4.013,4.0681,4.0235,3.9889,3.9889,3.9829,3.9798,3.9728,3.9667,3.9637,3.9567,3.9567,3.9567,3.9567,3.9567,3.9567,3.9531,3.9531,3.9242,5.7154,5.7334,5.7161,5.8094,5.637,5.3813,5.1361,4.9438,4.7589,4.5634,4.4849,4.4949,4.6478,4.5745,4.5149,4.5979,4.607,4.6924,4.9644,5.0896,5.2914,5.6626,5.7322,5.8141,5.9762,5.9925,5.9925,5.9925,5.9925,5.9556,5.884,5.7582,5.6734,5.6477,5.5928,5.5628,5.5628,5.5555,5.5712,5.6146,5.6095,5.6282,5.668,5.668,5.668,5.668,5.668,5.6514,5.6216,5.5747,5.5521,5.5355,5.4924,5.4295,5.3665,5.3665,5.3135,5.2409,5.2409,5.2409,5.2409,5.2409,5.2409,5.2409,5.2409,5.2409,5.2409,5.2409,5.2409,5.2307,5.2045,5.1647,5.0881,4.9018,4.8186,4.7722,4.7536,4.7505,4.7571,4.7737,4.7737,4.7671,4.7437,4.684,4.6277,4.5755,4.5037,4.4354,4.3872,4.3748,4.3459,4.2912,4.171,4.1024,4.1256,4.1057,4.0922,4.0922,4.0922,4.0786,4.0474,4.0443,4.027,3.9889,3.9889,3.9889,3.9889,3.9889,3.9889,3.9889,3.9889,3.9814,5.6765,5.7264,5.7283,5.896,5.717,5.4419,5.23,5.0216,4.8168,4.6416,4.5556,4.5593,4.6896,4.606,4.5079,4.4887,4.5191,4.6168,4.8317,4.9698,5.2082,5.6237,5.6916,5.7893,6.0233,6.0854,6.1119,6.1119,6.1119,6.0887,6.0357,5.8748,5.7762,5.7534,5.7192,5.6912,5.668,5.6183,5.6183,5.668,5.6183,5.6216,5.668,5.668,5.668,5.668,5.668,5.668,5.6647,5.615,5.6117,5.6316,5.5819,5.5118,5.4456,5.4262,5.3566,5.2672,5.244,5.2409,5.2409,5.2409,5.2409,5.2409,5.2409,5.2409,5.2409,5.2409,5.2409,5.2409,5.2409,5.1879,5.0949,4.9723,4.926,4.8895,4.8166,4.8001,4.8001,4.8001,4.8001,4.7968,4.7803,4.7671,4.7374,4.6749,4.6322,4.5863,4.5342,4.5049,4.4659,4.4107,4.3136,4.2361,4.1882,4.1785,4.172,4.1719,4.1621,4.1423,4.1055,4.1021,4.0851,4.0413,4.0378,4.0378,4.0378,4.0378,4.0378,4.0378,4.0378,4.0339,5.5299,5.7355,5.8589,5.862,5.7229,5.5172,5.2481,5.0239,4.8346,4.7039,4.6793,4.7033,4.7869,4.7337,4.655,4.5805,4.6797,4.7886,4.8522,5.1319,5.3758,5.5061,5.6132,5.7309,5.8767,6.0258,6.1119,6.1119,6.1119,6.1119,6.1086,5.9694,5.8568,5.7839,5.7773,5.7442,5.668,5.668,5.668,5.668,5.668,5.668,5.668,5.668,5.668,5.668,5.668,5.668,5.668,5.668,5.6249,5.5615,5.5582,5.5118,5.4427,5.3699,5.34,5.3301,5.2605,5.2409,5.2409,5.2409,5.2409,5.2409,5.2409,5.2409,5.2409,5.2409,5.2409,5.2409,5.2409,5.1879,5.1082,5.0386,4.9657,4.8895,4.8166,4.8001,4.8001,4.8001,4.8001,4.8001,4.8001,4.8001,4.8001,4.8001,4.7242,4.6618,4.6422,4.5636,4.5017,4.4788,4.4755,4.4107,4.2526,4.2206,4.2045,4.1914,4.1719,4.1588,4.1588,4.1588,4.1588,4.1588,4.1588,4.1588,4.1588,4.1588,4.1588,4.1588,4.1588,4.129,5.2259,5.3651,5.4838,5.6536,5.5442,5.3655,5.2434,5.0472,4.8482,4.7082,4.6828,4.7033,4.7869,4.7337,4.6886,4.7159,4.7573,4.8272,4.9457,5.1282,5.324,5.5253,5.7509,5.933,6.0324,6.0854,6.1119,6.1119,6.1119,6.0887,6.039,5.9926,5.9297,5.8568,5.7574,5.6912,5.668,5.6216,5.6216,5.668,5.6183,5.6216,5.668,5.668,5.668,5.668,5.668,5.668,5.668,5.668,5.6547,5.6349,5.6349,5.5918,5.5152,5.439,5.3827,5.3301,5.2605,5.2409,5.2409,5.2409,5.2409,5.2409,5.2409,5.2409,5.2409,5.2409,5.2409,5.2409,5.2409,5.2243,5.1879,5.1115,5.0386,4.9657,4.8928,4.8365,4.8001,4.8001,4.8001,4.8001,4.8001,4.8001,4.8001,4.8001,4.7769,4.7572,4.7473,4.7243,4.688,4.6321,4.6255,4.5635,4.4172,4.3977,4.3686,4.3008,4.2813,4.2425,4.1849,4.1654,4.1588,4.1588,4.1588,4.1588,4.1588,4.1588,4.1588,4.1588,4.1588,4.1522,5.0769,5.2262,5.3616,5.5664,5.468,5.3079,5.2436,5.0641,4.8709,4.7498,4.727,4.7404,4.7902,4.7605,4.7298,4.7445,4.8207,4.8996,4.9592,5.1364,5.3372,5.5459,5.7903,5.9664,6.0314,6.0878,6.1169,6.1119,6.1119,6.0788,6.0059,5.9728,5.9264,5.8502,5.7574,5.6978,5.668,5.6249,5.6249,5.668,5.6249,5.6249,5.668,5.668,5.668,5.668,5.668,5.668,0.0,5.668,5.668,5.668,5.668,5.6249,5.5483,5.4754,5.4063,5.3301,5.2605,5.2409,5.2409,5.2409,5.2409,5.2409,5.2409,5.2409,5.2409,5.2409,5.2409,5.2409,5.2409,5.2409,5.221,5.1481,5.0949,5.0353,4.9326,4.8763,4.8332,4.8067,4.8001,4.8001,4.8001,4.8001,4.8001,4.8001,4.8001,4.8001,4.8001,4.8001,4.7835,4.7371,4.7305,4.6945,4.6094,4.5408,4.4724,4.414,4.3912,4.3554,4.2909,4.2712,4.2579,4.2512,4.2412,4.2378,4.2378,4.2126,4.1999,4.1999,4.1715,4.1746,0.0,5.2491,5.4059,5.5392,5.4371,5.2937,5.2307,5.0518,0.0,4.8133,4.8001,4.8033,4.8067,4.8034,4.7803,4.7129,4.8818,4.9981,4.9281,5.1714,5.424,5.5958,5.7577,5.8786,5.9325,6.0624,6.1301,6.1061,6.1061,6.073,5.9934,5.9238,5.8509,5.7779,5.7746,5.7415,5.6719,5.6719,5.6719,5.6719,5.6719,5.6719,5.6719,5.6719,5.6719,5.6719,5.6719,5.6719,5.6719,5.6719,5.6719,5.6719,5.6719,5.6282,5.5587,5.4825,5.4096,5.3367,5.2638,5.2409,5.2409,5.2409,5.2409,5.2409,5.2409,5.2409,5.2409,5.2409,5.2409,5.2409,5.2409,5.2409,5.2243,5.1547,5.1348,5.0916,4.9558,4.9226,4.8995,4.8299,4.8166,4.8133,4.81,4.8067,4.8067,4.8001,4.8001,4.8001,4.8001,4.8001,4.8001,4.8001,4.8001,4.8001,4.8001,4.6453,4.5439,4.5212,4.5017,4.4787,4.4557,4.4423,4.4253,4.4052,4.3878,4.3775,4.374,4.3108,4.2792,4.2792,4.2096,4.2094,4.8972,0.0,5.042,5.0689,5.0444,5.0088,0.0,4.9128,4.833,4.8067,4.8195,4.8492,4.8763,4.8464,4.8398,4.9288,4.9955,5.049,5.0848,5.3587,5.6341,5.8418,5.9494,6.033,6.106,6.1428,6.1313,6.0543,6.0631,6.0064,5.8607,5.853,5.8174,5.7444,5.7444,5.7268,5.6911,5.7101,5.7176,5.7176,5.7176,5.7176,5.7176,5.7176,5.7176,5.7139,5.6987,5.6911,5.6911,5.6757,5.6796,5.6911,5.6911,5.6811,5.6511,5.5214,5.4505,5.4063,5.2804,5.2409,5.2409,5.2409,5.2409,5.2409,5.2409,5.2409,5.2409,5.2409,5.2409,5.2409,5.2409,5.2409,5.2376,5.221,5.1713,5.1216,5.0884,5.0353,4.9889,4.9723,4.969,4.9525,4.8961,4.8862,4.8663,4.8067,4.8001,4.8001,4.8001,4.8001,4.8001,4.8001,4.8001,4.8001,4.8001,4.7604,4.7045,4.6388,4.6127,4.5702,4.4984,4.4788,4.4656,4.4623,4.4556,4.4456,4.4322,4.4028,4.3829,4.3693,4.3363,4.3327,4.8497,4.9057,4.9847,5.0258,5.0025,4.9726,4.9793,4.9059,4.8324,4.8227,4.8356,4.8585,4.876,4.8559,4.8691,4.9759,5.0293,5.1127,5.2931,5.4979,5.7133,5.9348,6.0404,6.1144,6.177,6.1837,6.1455,6.0478,6.0565,5.9929,5.8341,5.8318,5.806,5.7289,5.7402,5.7327,5.7139,5.7252,5.7289,5.7289,5.7289,5.7289,5.7289,5.7289,5.7289,5.7289,5.7176,5.7139,5.7139,5.7025,5.7025,5.7139,5.7139,5.6938,5.6504,5.5369,5.4662,5.4086,5.2988,5.2657,5.2622,5.2516,5.2551,5.2657,5.2657,5.2587,5.248,5.2409,5.2409,5.2409,5.2409,5.2409,5.2409,5.2409,5.2111,5.1713,5.1382,5.0982,5.0585,5.0286,5.022,5.0088,4.969,4.9624,4.9491,4.9094,4.9028,4.8895,4.8564,4.8498,4.8398,4.8034,4.8001,4.8001,4.8001,4.8001,4.7802,4.7308,4.7177,4.6881,4.6323,4.6093,4.5927,4.576,4.576,4.5726,4.5625,4.5201,4.4871,4.4701,4.4209,4.4071,4.8744,4.9623,5.0627,5.1162,5.0794,5.0293,5.0359,4.942,4.8547,4.8515,4.8547,4.8612,4.8683,4.8683,4.8984,4.9789,5.0693,5.2234,5.5118,5.6303,5.7658,5.978,6.0878,6.1626,6.2009,6.2037,6.1621,6.0583,6.0516,5.9879,5.8366,5.8303,5.8035,5.7435,5.7551,5.7551,5.7402,5.7402,5.7402,5.7402,5.7402,5.7402,5.7402,5.7402,5.7402,5.7402,5.7364,0.0,5.7327,5.7327,5.7327,5.7364,5.7364,5.6958,5.6322,5.5585,5.4848,5.4042,5.3205,5.2903,5.2868,5.2694,5.2764,5.2903,5.2903,5.2764,5.2624,5.2516,5.2445,5.2409,5.2409,5.2409,5.2409,5.2409,5.2409,5.2243,5.1614,5.1481,5.128,5.0651,5.0551,5.0518,5.0386,5.0386,5.0353,5.022,5.022,4.9988,4.9359,4.9293,4.8995,4.8266,4.8166,4.8133,4.8001,4.8001,4.8001,4.8001,4.8001,4.7935,4.7737,4.7605,4.737,4.7064,4.7064,4.7064,4.703,4.6379,4.5986,4.5816,4.5034,4.4896,4.97,5.0382,5.059,4.9319,4.9387,4.9556,4.8952,4.8778,4.8707,4.8547,4.8704,4.9032,4.9385,4.9584,5.0052,5.1263,5.2773,5.4627,5.7097,5.8113,5.9231,6.0888,6.1772,6.2245,6.2341,6.2341,6.1689,6.004,6.0093,5.9456,5.7786,5.7867,5.7944,5.7808,5.7845,5.7845,5.7808,5.7808,5.7808,5.7808,5.7808,5.7808,5.7808,5.7808,5.7808,5.7808,0.0,5.7551,5.7551,5.7364,5.7402,5.7551,5.7551,5.7483,5.7282,5.6575,5.5727,5.4745,5.3372,5.2903,5.2903,5.2868,5.2868,5.2903,5.2903,5.2868,5.2834,5.2834,5.2622,5.2409,5.2409,5.2409,5.2409,5.2409,5.2409,5.2376,5.2277,5.2243,5.221,5.2075,5.2042,5.1843,5.1214,5.1149,5.0916,5.0286,5.022,5.0187,5.0055,5.0055,4.9756,4.9028,4.8928,4.8696,4.8067,4.8001,4.8001,4.8001,4.8001,4.8001,4.7968,4.7935,4.7902,4.7836,4.7836,4.777,4.7571,4.7306,4.7105,4.6936,4.6668,4.6565,4.9424,4.997,5.0413,5.0047,5.0487,5.0859,5.0587,5.0313,5.0075,4.998,5.0075,5.024,5.0417,5.0887,5.1661,5.3078,5.463,5.6187,5.7679,5.8863,6.0013,6.1163,6.1941,6.2381,6.2381,6.2381,6.1902,6.0709,6.0313,5.9603,5.841,5.8082,5.7881,5.7881,5.7881,5.7881,5.7881,5.7881,5.7881,5.7881,5.7881,5.7881,5.7881,5.7881,5.7881,5.7881,0.0,5.7772,5.7735,5.7662,5.7662,5.7772,5.7772,5.7772,5.7671,5.6925,5.5877,5.4693,5.3916,5.348,5.3212,5.3076,5.3144,5.3212,5.3212,5.3144,5.3041,5.3041,5.2868,5.2659,5.2659,5.2659,5.2657,5.2551,5.2516,5.2516,5.2409,5.2409,5.2409,5.2409,5.2409,5.231,5.1978,5.1912,5.1777,5.1446,5.138,5.1247,5.085,5.0783,5.0518,4.979,4.969,4.9558,4.9226,4.8829,4.8431,4.8034,4.8001,4.8001,4.8001,4.8001,4.8001,4.8001,4.8001,4.7968,4.7836,4.777,4.7638,4.7471,4.7236,4.7132,4.9221,4.9661,5.0304,5.1251,5.1694,5.2067,5.2672,5.2266,5.186,5.2165,5.1962,5.1758,5.1758,5.2334,5.3348,5.4871,5.6359,5.7645,5.8558,5.9674,6.0655,6.1467,6.2042,6.2381,6.2381,6.2381,6.2009,6.1095,6.0452,5.9708,5.8795,5.822,5.7881,5.7881,5.7881,5.7881,5.7881,5.7881,5.7881,5.7881,5.7881,5.7881,5.7881,5.7881,5.7881,5.7881,5.7881,5.7881,5.7881,5.7881,5.7881,5.7881,5.7881,5.7881,5.7814,5.707,5.6089,5.5074,5.4731,5.4361,5.3957,5.3618,5.3619,5.3721,5.3551,5.3382,5.328,5.328,5.3144,5.3007,5.2903,5.2903,5.2868,5.2694,5.2659,5.2624,5.248,5.2445,5.2445,5.2409,5.2409,5.2409,5.2409,5.2409,5.2409,5.2409,5.2409,5.221,5.1647,5.158,5.1282,5.0551,5.0452,5.0386,5.022,4.9525,4.8862,4.8299,4.81,4.8001,4.8001,4.8001,4.8001,4.8001,4.8001,4.8001,4.8001,4.8001,4.7935,4.777,4.7605,4.7504,4.983,5.0067,5.0439,5.186,5.1726,5.1827,5.3957,5.3856,5.3721,5.5073,5.4296,5.3348,5.3348,5.3923,5.4905,5.6393,5.7881,5.937,6.0858,6.1163,6.1501,6.2212,6.2347,6.2381,6.2381,6.2381,6.1772,6.0283,6.0148,5.9471,5.8051,5.7915,5.7881,5.7881,5.7881,5.7881,5.7881,5.7881,5.7881,5.7881,5.7881,5.7881,5.7881,5.7881,5.7881,5.7881,5.7881,5.7881,5.7881,5.7881,5.7881,5.7881,5.7881,5.7881,5.7814,5.707,5.6731,5.6562,5.585,5.558,5.5446,5.4735,5.4499,5.4397,5.3721,5.3518,5.3484,5.3484,5.3484,5.3348,5.2972,5.2903,5.2903,5.2868,5.2868,5.2834,5.2624,5.2589,5.2553,5.2409,5.2409,5.2409,5.2409,5.2409,5.2409,5.2409,5.2409,5.2409,5.2343,5.2343,5.2045,5.1315,5.1249,5.0916,5.0286,4.9525,4.9094,4.9028,4.8398,4.8001,4.8001,4.8001,4.8001,4.8001,4.8001,4.8001,4.8001,4.8001,4.8001,4.7968,4.7968,4.7968,4.9357,4.9729,5.0574,5.2536,5.2841,5.3112,5.4871,5.5412,5.5852,5.6867,5.6258,5.5412,5.4972,5.548,5.6292,5.7306,5.9133,6.0622,6.1231,6.1704,6.2076,6.2347,6.2381,6.2381,6.2381,6.1975,6.1467,6.0892,5.9979,5.9167,5.8626,5.8152,5.7881,5.7881,5.7881,5.7881,5.7881,5.7881,5.7881,5.7881,5.7881,5.7881,5.7881,5.7881,5.7881,5.7881,5.7881,5.7881,5.7881,5.7881,5.7881,5.7881,5.7881,5.7881,5.7848,5.7577,5.7171,5.6765,5.6494,5.6089,5.5683,5.5378,5.5277,5.5243,5.4972,5.4871,5.4871,5.4871,5.4871,5.4633,5.3551,5.328,5.3246,5.311,5.3076,5.3041,5.2834,5.2799,5.2764,5.2694,5.2694,5.2659,5.2551,5.2657,5.2657,5.2445,5.248,5.2516,5.2409,5.2409,5.231,5.2011,5.2011,5.1713,5.0949,5.0618,5.0253,4.9823,4.8663,4.8001,4.8001,4.8001,4.8001,4.8001,4.8001,4.8001,4.8001,4.8001,4.8001,4.8001,4.8001,4.8001,4.9018,4.9357,5.0236,5.2266,5.3315,5.4228,5.5716,5.6799,5.7848,5.9066,5.8355,5.7205,5.6258,5.6461,5.7137,5.8084,5.9742,6.1095,6.1569,6.2076,6.2381,6.2381,6.2381,6.2381,6.2381,6.1738,6.1197,6.0926,5.9742,5.893,5.8693,5.8152,5.7881,5.7881,5.7679,5.7645,5.7881,5.7645,5.7645,5.7881,5.7881,5.7881,5.7881,5.7881,5.7881,5.7881,5.7881,5.7881,5.7881,5.7881,5.7881,5.7881,5.7881,5.7881,5.7881,5.7881,5.7577,5.7137,5.7137,5.6833,5.6359,5.6122,5.6055,5.6021,5.5749,5.5681,5.5681,5.5681,5.5681,5.548,5.4465,5.4025,5.3822,5.3686,5.3483,5.3246,5.3041,5.3007,5.2972,5.2903,5.2903,5.2868,5.2729,5.2799,5.2799,5.2587,5.2657,5.2659,5.2587,5.2516,5.2445,5.2409,5.2409,5.221,5.1713,5.1448,5.1048,5.0585,4.9392,4.8597,4.8365,4.8365,4.8233,4.8001,4.8001,4.8001,4.8001,4.8001,4.8001,4.8001,4.8001,4.8133,4.8984,4.9018,4.939,5.0879,5.2942,5.5006,5.6494,5.7983,5.9674,6.1907,6.0588,5.8558,5.707,5.6833,5.7306,5.8761,5.9641,6.0655,6.2178,6.2381,6.2381,6.2381,6.2381,6.2381,6.2381,6.1704,6.096,6.0148,5.9404,5.8693,5.7915,5.7881,5.7881,5.7881,5.7171,5.7171,5.7881,5.7171,5.7171,5.7881,5.7881,5.7881,5.7881,5.7881,5.7881,5.7881,5.7881,5.7881,5.7881,5.7881,5.7881,5.7881,5.7881,5.7881,5.7881,5.7881,5.7881,5.7881,5.7881,5.7881,5.778,5.7036,5.6799,5.6664,5.5953,5.575,5.575,5.575,5.575,5.575,5.575,5.5175,5.46,5.46,5.4059,5.3484,5.328,5.3213,5.3144,5.2938,5.2903,5.2903,5.2903,5.2903,5.2903,5.2903,5.2903,5.2903,5.2903,5.2729,5.2553,5.2409,5.2409,5.2409,5.2409,5.1746,5.1315,5.1315,5.0618,4.9889,4.916,4.9094,4.8763,4.8034,4.8001,4.8001,4.8001,4.8001,4.8001,4.8001,4.8001,4.8398,4.8376,4.939,5.0913,5.2435,5.4126,5.6055,5.8558,5.9911,6.0825,6.1501,6.0655,5.9336,5.7848,5.8423,5.9099,5.9032,6.052,6.1873,6.2313,6.2381,6.2381,6.2381,6.2381,6.2178,6.167,6.0926,6.0148,5.9404,5.8626,5.8118,5.7915,5.7881,5.7881,5.7881,5.7679,5.7679,5.7881,5.7679,5.7679,5.7881,5.7881,5.7881,5.7881,5.7881,5.7881,5.7881,5.7881,5.7881,5.7881,5.7881,5.7881,5.7881,5.7881,5.7881,5.7881,5.7881,5.7881,5.7881,5.7881,5.7881,5.7848,5.7645,5.7577,5.7509,5.7306,5.7239,5.7239,5.7239,5.7239,5.7239,5.7239,5.6697,5.6021,5.5513,5.4803,5.4262,5.4193,5.3788,5.3382,5.3314,5.3314,5.328,5.311,5.3246,5.3246,5.2938,5.3007,5.3041,5.2903,5.2834,5.2799,5.2729,5.2729,5.2729,5.2729,5.2529,5.2429,5.2429,5.2228,5.1425,4.9955,4.9392,4.8995,4.8796,4.8266,4.8001,4.8001,4.8001,4.8266,4.8763,4.8763,4.916,4.8815,5.0202,5.1961,5.3179,5.5074,5.734,6.0351,6.14,6.1738,6.1738,6.1129,6.0317,5.9404,5.9708,6.0047,5.9945,6.1061,6.2076,6.2347,6.2381,6.2381,6.2381,6.2144,6.1772,6.1332,6.0317,5.9471,5.9032,5.8321,5.7881,5.7881,5.7881,5.7881,5.7881,5.7611,5.7577,5.7881,5.7611,5.7611,5.7881,5.7881,5.7881,5.7881,5.7881,5.7881,5.7881,5.7881,5.7881,5.7881,5.7881,5.7881,5.7881,5.7881,5.7881,5.7881,5.7881,5.7881,5.7881,5.7881,5.7881,5.7881,5.7881,5.7881,5.7881,5.7881,5.7881,5.7881,5.7881,5.7881,5.7881,5.7881,5.7577,5.7036,5.6325,5.5581,5.504,5.504,5.4702,5.4397,5.4397,5.4397,5.4261,5.3821,5.3855,5.3754,5.3212,5.3246,5.3246,5.3041,5.3007,5.2972,5.2903,5.2903,5.2903,5.2903,5.2903,5.2903,5.2903,5.2903,5.2398,5.1289,5.049,4.9924,4.9626,4.9127,4.8895,4.8895,4.8895,4.9094,4.9558,4.9558,4.9955,4.983,5.1183,5.2638,5.3484,5.5919,5.8795,6.1569,6.2279,6.2381,6.2381,6.1873,6.1366,6.1332,6.0757,6.052,6.1197,6.1366,6.1637,6.2313,6.2381,6.2381,6.2313,6.1704,6.1231,6.1095,5.9844,5.8998,5.893,5.8287,5.7881,5.7881,5.7881,5.7881,5.7881,5.7239,5.7205,5.7881,5.7239,5.7239,5.7881,5.7881,5.7881,5.7881,5.7881,5.7881,5.7881,5.7881,5.7881,5.7881,5.7881,5.7881,5.7881,5.7881,5.7881,5.7881,5.7881,5.7881,5.7881,5.7881,5.7881,5.7881,5.7881,5.7881,5.7881,5.7881,5.7881,5.7881,5.7881,5.7881,5.7881,5.7881,5.7881,5.7712,5.707,5.6359,5.5818,5.5818,5.5749,5.5681,5.5681,5.5681,5.5513,5.4803,5.4702,5.4465,5.3788,5.3721,5.3619,5.3382,5.3314,5.3212,5.2972,5.2938,5.2938,5.2938,5.2938,5.2938,5.2938,5.2938,5.2938,5.2938,5.2063,5.1192,5.0559,5.0357,5.0254,5.022,5.022,5.0253,5.032,5.032,5.0684,4.9187,5.1183,5.3551,5.4905,5.7442,5.981,6.0452,6.1535,6.2381,6.2381,6.2245,6.1975,6.14,6.1637,6.1772,6.1366,6.1772,6.2212,6.2381,6.2381,6.2178,6.1603,6.14,6.0825,5.9641,5.9201,5.8761,5.8186,5.7983,5.7881,5.7881,5.7881,5.7881,5.7881,5.7746,5.7712,5.7881,5.7712,5.7712,5.7881,5.7881,5.7881,5.7881,5.7881,5.7881,5.7881,5.7881,5.7881,5.7881,5.7881,5.7881,5.7881,5.7881,5.7881,5.7881,5.7881,5.7881,5.7881,5.7881,5.7881,5.7881,5.7881,5.7881,5.7881,5.7881,5.7881,5.7881,5.7881,5.7881,5.7881,5.7881,5.7881,5.7848,5.7679,5.7103,5.6562,5.6562,5.6122,5.5681,5.5681,5.5681,5.5683,5.5513,5.548,5.5412,5.5277,5.5243,5.5005,5.4397,5.4329,5.4058,5.345,5.3348,5.3348,5.3348,5.3348,5.3348,5.3348,5.3348,5.3348,5.3348,5.2302,5.163,5.1496,5.0928,5.0526,5.0358,5.0358,5.0589,5.1048,5.1048,5.1481,4.9323,5.1725,5.4566,5.6765,5.8457,5.9674,6.0013,6.0723,6.1298,6.1298,6.1873,6.2279,6.1907,6.1839,6.1738,6.1366,6.1298,6.1434,6.1806,6.1535,6.1298,6.1298,6.0655,5.9877,5.9099,5.8693,5.8321,5.7915,5.7881,5.7881,5.7881,5.7881,5.7881,5.7881,5.7881,5.7881,5.7881,5.7881,5.7881,5.7881,5.7881,5.7881,5.7881,5.7881,5.7881,5.7881,5.7881,5.7881,5.7881,5.7881,5.7881,5.7881,5.7881,5.7881,5.7881,5.7881,5.7881,5.7881,5.7881,5.7881,5.7881,5.7881,5.7881,5.7881,5.7881,5.7881,5.7881,5.7881,5.7881,5.7881,5.7881,5.7881,5.7881,5.7881,5.7611,5.734,5.734,5.7036,5.6765,5.6765,5.6765,5.663,5.6292,5.5953,5.5681,5.5681,5.5681,5.5581,5.5175,5.5141,5.4837,5.4093,5.4025,5.389,5.3551,5.3518,5.3518,5.3518,5.3518,5.3518,5.3518,5.2944,5.2573,5.2471,5.2,5.1697,5.1595,5.1595,5.176,5.2058,5.2058,5.2257,4.9492,5.23,5.5412,5.7983,5.8829,5.9167,5.9776,6.0013,6.0114,6.0114,6.1095,6.2009,6.2009,6.1501,6.1095,6.1095,6.052,6.0317,6.0994,6.052,6.0317,6.0858,5.9776,5.8964,5.8829,5.8254,5.7881,5.7881,5.7881,5.7881,5.7881,5.7881,5.7881,5.7881,5.7881,5.7881,5.7881,5.7881,5.7881,5.7881,5.7881,5.7881,5.7881,5.7881,5.7881,5.7881,5.7881,5.7881,5.7881,5.7881,5.7881,5.7881,5.7881,5.7881,5.7881,5.7881,5.7881,5.7881,5.7881,5.7881,5.7881,5.7881,5.7881,5.7881,5.7881,5.7881,5.7881,5.7881,5.7881,5.7881,5.7881,5.7881,5.7881,5.7881,5.7881,5.7881,5.7881,5.7881,5.7881,5.7881,5.7881,5.7712,5.7103,5.6494,5.6089,5.6089,5.6089,5.6055,5.5919,5.5991,5.5755,5.5043,5.4975,5.4669,5.3922,5.3754,5.3653,5.3518,5.3518,5.3518,5.3518,5.3584,5.3584,5.3382,5.3247,5.3145,5.3111,5.3111,5.311,5.3076,5.2938,5.2903,4.8748,5.23,5.5818,5.6833,5.8051,5.9032,5.9133,5.9641,6.0114,6.0114,6.025,6.0419,6.0419,6.0317,6.025,6.025,6.0182,6.0148,6.025,6.0182,5.9911,5.937,5.9133,5.8761,5.8084,5.7949,5.7881,5.7881,5.7881,5.7881,5.7881,5.7881,5.7881,5.7881,5.7881,5.7881,5.7881,5.7881,5.7881,5.7881,5.7881,5.7881,5.7881,5.7881,5.7881,5.7881,5.7881,5.7881,5.7881,5.7881,5.7881,5.7881,5.7881,5.7881,5.7881,5.7881,5.7881,5.7881,5.7881,5.7881,5.7881,5.7881,5.7881,5.7881,5.7881,5.7881,5.7881,5.7881,5.7881,5.7881,5.7881,5.7881,5.7881,5.7881,5.7881,5.7881,5.7881,5.7881,5.7881,5.7881,5.7881,5.7848,5.7746,5.7679,5.7611,5.7611,5.7611,5.7374,5.6731,5.7158,5.7223,5.6501,5.6398,5.6121,5.5396,5.4804,5.416,5.3551,5.3518,5.3518,5.3518,5.4011,5.4264,5.4232,5.42,5.4104,5.3943,5.3943,5.3878,5.3748,5.3145,5.2903,4.9526,5.2334,5.4837,5.6427,5.7306,5.7881,5.8287,5.8626,5.8863,5.8863,5.8863,5.9099,5.9945,5.9776,5.9471,5.9471,5.9133,5.8998,5.9438,5.9133,5.8896,5.8998,5.866,5.8254,5.7915,5.7881,5.7881,5.7881,5.7881,5.7881,5.7881,5.7881,5.7881,5.7881,5.7881,5.7881,5.7881,5.7881,5.7881,5.7881,5.7881,5.7881,5.7881,5.7881,5.7881,5.7881,5.7881,5.7881,5.7881,5.7881,5.7881,5.7881,5.7881,5.7881,5.7881,5.7881,5.7881,5.7881,5.7881,5.7881,5.7881,5.7881,5.7881,5.7881,5.7881,5.7881,5.7881,5.7881,5.7881,5.7881,5.7881,5.7881,5.7881,5.7881,5.7881,5.7881,5.7881,5.7881,5.8027,5.8388,5.8173,5.8027,5.8388,5.8137,5.7881,5.7881,5.8244,5.8321,5.8013,5.8595,5.8744,5.7977,5.7872,5.7558,5.6823,5.6504,5.6173,5.5862,5.5828,5.5655,5.5205,5.5452,5.5366,5.4948,5.4948,5.4918,5.4826,5.4826,5.4795,5.4734,5.4388,5.4261,4.9289,5.1352,5.3112,5.5141,5.6089,5.6697,5.7442,5.7746,5.7881,5.7881,5.7881,5.822,5.9336,5.9099,5.8727,5.8727,5.8254,5.8084,5.866,5.8254,5.8084,5.866,5.822,5.7881,5.7881,5.7881,5.7881,5.7881,5.7881,5.7881,5.7881,5.7881,5.7881,5.7881,5.7881,5.7881,5.7881,5.7881,5.7881,5.7881,5.7881,5.7881,5.7881,5.7881,5.7881,5.7881,5.7881,5.7881,5.7881,5.7881,5.7881,5.7881,5.7881,5.7881,5.7881,5.7881,5.7881,5.7881,5.7881,5.7881,5.7881,5.7881,5.7881,5.7881,5.7881,5.7881,5.7881,5.7881,5.7881,5.7881,5.7881,5.7881,5.7881,5.7881,5.7881,5.7881,5.7881,5.8029,5.8281,5.8806,5.8668,5.8598,5.9113,5.8737,5.8457,5.8457,5.8703,5.8977,5.918,5.9676,5.9851,5.9408,5.9369,5.9051,5.8305,5.8083,5.7921,5.771,5.771,5.7429,5.6837,5.6951,5.6688,5.5947,5.6091,5.5985,5.5636,5.5636,5.5636,5.5601,5.5391,5.5367,4.6786,4.8612,5.0642,5.2164,5.416,5.5953,5.6697,5.7408,5.7881,5.7881,5.7881,5.7915,5.7983,5.7983,5.7949,5.7949,5.7915,5.7915,5.7949,5.7915,5.7915,5.7949,5.7915,5.7881,5.7881,5.7881,5.7881,5.7881,5.7881,5.7881,5.7881,5.7881,5.7881,5.7881,5.7881,5.7881,5.7881,5.7881,5.7881,5.7881,5.7881,5.7881,5.7881,5.7881,5.7881,5.7881,5.7881,5.7881,5.7881,5.7881,5.7881,5.7881,5.7881,5.7881,5.7881,5.7881,5.7881,5.7881,5.7881,5.7881,5.7881,5.7881,5.7881,5.7881,5.7881,5.7881,5.7881,5.7881,5.7881,5.7881,5.7881,5.7881,5.7881,5.7881,5.7881,5.7881,5.7881,5.8388,5.8875,5.8875,5.9447,5.9902,5.9934,5.9902,5.987,5.987,5.9347,5.9145,5.9838,5.9966,6.0219,6.0831,6.0885,6.0564,5.9844,5.9138,5.8417,5.7745,5.771,5.7675,5.764,5.8243,5.8203,5.7418,5.7971,5.7611,5.6257,5.6257,5.6257,5.6229,5.5629,5.5402,4.6583,4.7733,4.9154,5.1116,5.257,5.3991,5.5716,5.6664,5.734,5.778,5.7881,5.7881,5.7881,5.7881,5.7881,5.7881,5.7881,5.7881,5.7881,5.7881,5.7881,5.7881,5.7881,5.7881,5.7881,5.7881,5.7881,5.7881,5.7881,5.7881,5.7881,5.7881,5.7881,5.7881,5.7881,5.7881,5.7881,5.7881,5.7881,5.7881,5.7881,5.7881,5.7881,5.7881,5.7881,5.7881,5.7881,5.7881,5.7881,5.7881,5.7881,5.7881,5.7881,5.7881,5.7881,5.7881,5.7881,5.7881,5.7881,5.7881,5.7881,5.7881,5.7881,5.7881,5.7881,5.7881,5.7881,5.7881,5.7881,5.7881,5.7881,5.8244,5.8633,5.9113,5.9247,5.9247,5.9247,5.9079,5.9011,5.9513,5.9838,6.0125,6.0564,6.0282,5.9791,5.9303,5.9808,6.0167,5.9886,6.0237,6.0798,6.1572,6.1168,6.0735,6.0511,6.0244,5.996,5.9701,5.9701,5.9701,5.9701,5.9932,5.9682,5.8853,5.9039,5.8425,5.6881,5.6881,5.6881,5.6881,5.6661,5.6555,4.5906,4.6616,4.7669,4.9932,5.1014,5.23,5.5074,5.6089,5.6697,5.7679,5.7881,5.7881,5.7881,5.7881,5.7983,5.822,5.8254,5.8355,5.8592,5.8423,5.8254,5.8254,5.8051,5.7881,5.7881,5.7881,5.7881,5.7881,5.7881,5.7881,5.7881,5.7881,5.7881,5.7881,5.7881,5.7881,5.7881,5.7881,5.7881,5.7881,5.7881,5.7881,5.7881,5.7881,5.7881,5.7881,5.7881,5.7881,5.7881,5.7881,5.7881,5.7881,5.7881,5.7881,5.7881,5.7881,5.7881,5.7881,5.7881,5.7881,5.7881,5.7881,5.7881,5.7881,5.7881,5.7881,5.7881,5.7881,5.7881,5.7954,5.8173,5.8737,5.9414,5.987,5.9998,5.9998,5.9998,5.9771,5.9739,6.0251,6.0498,6.0807,6.1257,6.0956,6.0509,5.9946,6.0547,6.0789,6.021,6.0336,6.0638,6.1145,6.0738,6.0412,6.0412,6.0638,6.0701,6.0412,6.0919,6.1073,6.081,6.1037,6.0846,6.0013,6.0013,5.9361,5.7985,5.7732,5.7587,5.7587,5.7333,5.7188,0.0,0.0,0.0,4.8376,4.9458,5.098,5.4702,5.5581,5.6021,5.7509,5.7814,5.7848,5.7881,5.7881,5.8152,5.893,5.9032,5.9268,6.0013,5.9471,5.9032,5.9032,5.8355,5.7915,5.7881,5.7881,5.7881,5.7881,5.7881,5.7881,5.7881,5.7881,5.7881,5.7881,5.7881,5.7881,5.7881,5.7881,5.7881,5.7881,5.7881,5.7881,5.7881,5.7881,5.7881,5.7881,5.7881,5.7881,5.7881,5.7881,5.7881,5.7881,5.7881,5.7881,5.7881,5.7881,5.7881,5.7881,5.7881,5.7881,5.7881,5.7881,5.7881,5.7881,5.7881,5.7881,5.7881,5.7881,5.7915,5.8097,5.8806,5.9549,6.01,6.0097,6.0097,6.0097,6.0062,6.0595,6.1081,6.1016,6.1515,6.1978,6.1978,6.1978,6.1978,6.1978,6.1394,6.0963,6.0838,6.0216,5.9752,5.9644,5.9615,5.9615,5.9579,6.0303,6.0412,5.9615,6.1037,6.158,6.0846,6.1543,6.1616,6.0846,6.0846,6.0448,5.9687,5.8854,5.8456,5.842,5.7623,5.7261,4.4615,0.0,0.0,0.0,0.0,0.0,5.1048,5.2063,5.3179,5.5784,5.6325,5.663,5.7679,5.7881,5.8321,5.9607,5.937,5.9268,6.0013,5.9911,5.9607,5.9066,5.8829,5.849,5.7949,5.7881,5.7881,5.7881,5.7881,5.7881,5.7881,5.7881,5.7881,5.7881,5.7881,5.7881,5.7881,5.7881,5.7881,5.7881,5.7881,5.7881,5.7881,5.7881,5.7881,5.7881,5.7881,5.7881,5.7881,5.7881,5.7881,5.7881,5.7881,5.7881,5.7881,5.7881,5.7881,5.7881,5.7881,5.7881,5.7881,5.7881,5.7881,5.7881,5.7881,5.7881,5.7881,5.7881,5.8287,5.9125,6.091,6.1912,6.2434,6.2341,6.2321,6.2177,6.1573,6.204,6.2256,6.1211,6.1515,6.1978,6.1978,6.1978,6.1797,6.1245,6.0964,6.0837,6.0819,6.0106,5.9862,6.0421,5.9941,5.9361,5.8782,5.8927,5.8963,5.8746,5.9724,6.0448,6.081,6.1543,6.1906,6.1652,6.1652,6.1543,6.1326,5.9941,5.9289,5.9253,5.9035,5.8927,4.4615,4.4615,4.4852,4.5906,0.0,0.0,4.9898,5.0913,5.1995,5.4702,5.5513,5.6055,5.7239,5.7442,5.8017,5.981,5.9742,5.9844,6.0892,6.0791,6.0452,6.0013,5.9404,5.8829,5.8389,5.8084,5.7881,5.7881,5.7881,5.7881,5.7881,5.7881,5.7881,5.7881,5.7881,5.7881,5.7881,5.7881,5.7881,5.7881,5.7881,5.7881,5.7881,5.7881,5.7881,5.7881,5.7881,5.7881,5.7881,5.7881,5.7881,5.7881,5.7881,5.7881,5.7881,5.7881,5.7881,5.7881,5.7881,5.7881,5.7881,5.7881,5.7881,5.7881,5.7881,5.7881,5.7881,5.7881,5.8622,5.9771,6.1357,6.2251,6.2882,6.3145,6.2947,6.2657,6.2549,6.2621,6.251,6.199,6.2253,6.2512,6.2512,6.2223,6.1833,6.1362,6.129,6.1181,6.0819,6.0412,6.0158,6.0303,5.9905,5.9289,5.8456,5.9035,5.9108,5.8456,5.947,6.0158,6.0303,6.0774,6.1145,6.1471,6.1471,6.1652,6.1978,6.0738,5.9941,5.9615,5.9615,5.9615,4.4615,4.4682,4.5021,4.6244,4.6177,0.0,4.9864,5.0744,5.1454,5.3653,5.4702,5.548,5.6292,5.6427,5.7103,5.9167,5.9641,6.0351,6.2144,6.1839,6.14,6.1332,6.0114,5.9235,5.9133,5.8457,5.8017,5.8017,5.7949,5.7881,5.7881,5.7881,5.7881,5.7881,5.7881,5.7881,5.7881,5.7881,5.7881,5.7881,5.7881,5.7881,5.7881,5.7881,5.7881,5.7881,5.7881,5.7881,5.7881,5.7881,5.7881,5.7881,5.7881,5.7881,5.7881,5.7881,5.7881,5.7881,5.7881,5.7881,5.7881,5.7881,5.7881,5.7881,5.7881,5.7881,5.7952,5.8092,5.9149,6.0392,6.1081,6.1774,6.244,6.3056,6.2657,6.2295,6.2911,6.2585,6.2331,6.3056,6.32,6.32,6.3309,6.2657,6.215,6.215,6.1978,6.1616,6.1,6.0883,6.0557,5.9832,5.9724,5.9434,5.8601,5.9832,6.0086,5.8637,5.9977,6.0484,5.976,5.9724,6.0086,6.081,6.081,6.1208,6.1978,6.1254,6.0593,5.9868,5.9868,5.9868,4.4784,4.5026,4.5399,4.5122,4.5805,0.0,4.6752,4.7669,4.9018,5.0642,5.1555,5.247,5.389,5.416,5.4499,5.5513,5.6664,5.8592,6.1907,6.2279,6.1975,6.1366,6.1028,6.0622,5.9945,5.9235,5.8795,5.8795,5.822,5.7881,5.7881,5.7881,5.7881,5.7881,5.7881,5.7881,5.7881,5.7881,5.7881,5.7881,5.7881,5.7881,5.7881,5.7881,5.7881,5.7881,5.7881,5.7881,5.7881,5.7881,5.7881,5.7881,5.7881,5.7881,5.7881,5.7881,5.7881,5.7881,5.7881,5.7881,5.7881,5.7881,5.7881,5.7881,5.7881,5.7881,5.8162,5.9351,6.0686,6.1971,6.2638,6.3363,6.3816,6.3309,6.3056,6.2838,6.2331,6.2621,6.3019,6.3164,6.32,6.3418,6.4033,6.349,6.2947,6.2947,6.186,6.1181,6.1688,6.1181,6.0738,6.0593,6.0593,6.0267,5.9434,5.9651,5.9724,5.9398,6.0267,6.0738,6.0593,6.0593,6.0665,6.081,6.081,6.1208,6.1978,6.1833,6.1688,6.1507,6.1507,6.1507,4.4818,4.4886,4.5128,4.5128,4.5432,0.0,0.0,4.6819,4.7767,4.9255,4.9864,5.0574,5.2097,5.2367,5.2841,5.4363,5.5852,5.7577,5.9844,6.1129,6.1839,6.1839,6.1535,6.1129,6.0757,5.9674,5.8863,5.849,5.8084,5.7881,5.7881,5.7881,5.7881,5.7881,5.7881,5.7881,5.7881,5.7881,5.7881,5.7881,5.7881,5.7881,5.7881,5.7881,5.7881,5.7881,5.7881,5.7881,5.7881,5.7881,5.7881,5.7881,5.7881,5.7881,5.7881,5.7881,5.7881,5.7881,5.7881,5.8101,5.8388,5.8388,5.8668,5.8944,5.8944,5.8944,5.9252,6.0718,6.1388,6.1861,6.2981,6.3228,6.32,6.32,6.2875,6.2585,6.2585,6.2585,6.273,6.3092,6.32,6.3309,6.3708,6.3128,6.2585,6.2585,6.1933,6.1543,6.1942,6.1652,6.1399,6.1399,6.1399,6.11,6.0267,6.0593,6.0629,6.0231,6.0593,6.081,6.081,6.0412,6.0194,6.0194,6.0593,6.1027,6.1399,6.1399,6.1616,6.1978,6.1978,6.1978,4.5263,4.5224,4.5495,4.5669,4.5568,4.5602,0.0,0.0,0.0,4.8342,4.868,4.9221,5.0541,5.0644,5.1217,5.3179,5.4634,5.5818,5.6697,5.866,6.0452,6.1603,6.1332,6.1129,6.1298,5.9911,5.8761,5.8152,5.7848,5.7746,5.7881,5.7881,5.7881,5.7881,5.7881,5.7881,5.7881,5.7881,5.7881,5.7881,5.7881,5.7881,5.7881,5.7881,5.7881,5.7881,5.7881,5.7881,5.7881,5.7881,5.7881,5.7881,5.7881,5.7881,5.7881,5.7881,5.7983,5.8121,5.8097,5.8561,5.915,5.9114,5.9513,5.9998,5.9998,6.0093,6.0489,6.1829,6.1825,6.1745,6.3088,6.2975,6.2612,6.3111,6.2721,6.2422,6.2921,6.2531,6.2214,6.2921,6.303,6.3111,6.3409,6.2766,6.2259,6.2259,6.2087,6.1978,6.1978,6.1978,6.1978,6.1978,6.1978,6.1725,6.11,6.1616,6.1725,6.11,6.1,6.1,6.1,6.0267,5.9832,5.9832,6.0484,6.0883,6.1,6.1,6.1362,6.1978,6.1978,6.1906,4.6921,4.7496,4.8037,4.6177,4.7124,4.7868,4.5427,0.0,4.6853,4.7022,0.0,4.8277,4.912,0.0,0.0,4.9492,5.0338,5.1352,5.2739,5.4329,5.6359,5.9066,5.9911,6.052,6.1231,5.9911,5.8998,5.8896,5.7679,5.7205,5.7848,5.7881,5.7881,5.7881,5.7881,5.7881,5.7881,5.7881,5.7881,5.7881,5.7881,5.7881,5.7881,5.7881,5.7881,5.7881,5.7881,5.7881,5.7881,5.7881,5.7881,5.7881,5.7881,5.7881,5.7881,5.7881,5.8321,5.8869,5.8804,5.9288,5.9944,5.9921,5.9934,5.9998,5.9998,6.0406,6.1069,6.195,6.2543,6.3153,6.4033,6.4291,6.412,6.3539,6.3285,6.3085,6.2609,6.2311,6.2222,6.2464,6.2384,6.2749,6.4025,6.3599,6.3056,6.3056,6.2476,6.1978,6.1978,6.1978,6.1978,6.1978,6.1978,6.1942,6.1869,6.1942,6.1942,6.1869,6.1833,6.1833,6.1833,6.11,6.0665,6.0665,6.0774,6.1145,6.1833,6.1833,6.1906,6.1978,6.1978,6.1616,4.709,4.7259,4.7496,4.6583,4.6718,4.6752,4.55,4.5703,4.6278,4.6718,0.0,0.0,0.0,0.0,0.0,0.0,4.9999,5.0811,5.098,5.2334,5.4228,5.6799,5.7374,5.7679,5.8017,5.8254,5.8186,5.778,5.7171,5.7137,5.7848,5.7881,5.7881,5.7881,5.7881,5.7881,5.7881,5.7881,5.7881,5.7881,5.7881,5.7881,5.7881,5.7881,5.7881,5.7881,5.7881,5.7881,5.7881,5.7881,5.7881,5.7881,5.7881,5.7881,5.7949,5.8389,5.8715,5.9008,5.946,6.0038,6.0709,6.1034,6.1485,6.1843,6.1843,6.2377,6.312,6.3948,6.4101,6.421,6.5008,6.4975,6.4612,6.4285,6.4212,6.413,6.3855,6.3756,6.3583,6.3199,6.3036,6.3056,6.3194,6.284,6.2512,6.2512,6.2277,6.2114,6.2114,6.2195,6.2248,6.2248,6.2248,6.2248,6.2248,6.2168,6.2114,6.2114,6.2033,6.1978,6.1978,6.1761,6.1415,6.0943,6.1458,6.164,6.1415,6.2359,6.2522,6.1978,6.1978,6.1797,4.8206,4.8003,4.7868,4.7259,4.6718,4.621,4.5805,4.5872,4.6278,4.7192,4.7564,0.0,0.0,0.0,4.868,4.9221,0.0,5.0405,4.9864,5.0541,5.1928,5.4228,5.504,5.548,5.5647,5.6292,5.663,5.6528,5.6122,5.6325,5.7239,5.7476,5.7577,5.7577,5.778,5.7881,5.7881,5.7881,5.7881,5.7881,5.7881,5.7881,5.7881,5.7881,5.7881,5.7881,5.7881,5.7881,5.7881,5.7881,5.8027,5.8173,5.8173,5.8418,5.8834,5.8925,5.9074,5.9357,6.0388,6.1294,6.2127,6.2621,6.3157,6.3629,6.3629,6.4065,6.4682,6.548,6.5355,6.5176,6.5949,6.587,6.5469,6.525,6.5213,6.514,6.4975,6.4911,6.4702,6.4181,6.4045,6.3836,6.3252,6.2566,6.2114,6.2114,6.2195,6.2238,6.2238,6.2318,6.2407,6.2407,6.2407,6.2407,6.2407,6.2291,6.2238,6.2238,6.2168,6.2114,6.2114,6.2222,6.1984,6.1402,6.2053,6.2053,6.1365,6.2774,6.3121,6.2441,6.2359,6.2114,5.1285,5.105,5.0543,4.8379,4.7838,4.7432,4.6041,4.6244,4.7158,4.8646,4.9492,5.0202,5.098,5.0507,0.0,0.0,4.9492,0.0,0.0,4.8477,4.8852,5.105,5.3281,5.4905,5.5614,5.4465,5.4228,5.5614,5.4431,5.4262,5.5716,5.6461,5.6833,5.6833,5.7509,5.7881,5.7881,5.7881,5.7881,5.7881,5.7881,5.7881,5.7881,5.7881,5.7881,5.7881,5.7881,5.7881,5.7881,5.7881,5.828,5.8875,5.8875,5.9799,6.0922,5.9424,5.9392,6.0255,6.1818,6.3365,6.4667,6.4694,6.4731,6.4731,6.4731,6.4767,6.4949,6.5752,6.597,6.6153,6.6955,6.7286,6.7213,6.6345,6.6189,6.606,6.5433,6.5171,6.5144,6.5212,6.5134,6.5018,6.5018,6.3534,6.2407,6.2407,6.237,6.237,6.237,6.2407,6.2407,6.2407,6.2407,6.2407,6.2407,6.2407,6.237,6.237,6.2407,6.2407,6.2407,6.237,6.237,6.237,6.237,6.237,6.237,6.3199,6.36,6.3537,6.3266,6.2331,5.186,5.1589,5.0913,4.9661,4.8984,4.824,4.6752,4.7394,4.8409,4.8917,4.9965,5.0913,5.1151,5.1014,0.0,0.0,0.0,0.0,0.0,4.6921,4.709,4.8785,5.1014,5.2266,5.2029,5.3348,5.4228,5.4262,5.4228,5.4871,5.6359,5.6664,5.7036,5.7509,5.7746,5.7881,5.7881,5.7881,5.7881,5.7881,5.7881,5.7881,5.7881,5.7881,5.7881,5.7881,5.7881,5.7881,5.7881,5.7881,5.8352,5.9079,5.9666,6.0517,6.1443,6.1338,6.1747,6.2568,6.3625,6.4348,6.4794,6.4794,6.5159,6.5597,6.5597,6.597,6.6445,6.67,6.6893,6.7049,6.7341,6.7524,6.756,6.7239,6.723,6.7156,6.6953,6.6853,6.668,6.6182,6.6082,6.5846,6.5296,6.472,6.425,6.3991,6.3607,6.333,6.333,6.2933,6.2654,6.2654,6.2654,6.2654,6.2654,6.2578,6.2475,6.2433,6.2407,6.2407,6.2407,6.2475,6.2526,6.2526,6.3178,6.3471,6.333,6.4134,6.4473,6.4393,6.3775,6.3175,5.3382,5.2976,0.0,5.1488,5.0744,4.9864,4.8646,4.9289,5.027,5.0541,5.1352,5.2097,5.2367,5.2028,0.0,0.0,0.0,0.0,0.0,4.6675,4.6777,4.7428,4.9018,5.0168,5.0473,5.1555,5.2367,5.2672,5.2875,5.3653,5.5108,5.5987,5.663,5.7103,5.7881,5.8287,5.8287,5.8361,5.8361,5.8287,5.809,5.7954,5.7881,5.7881,5.7918,5.8027,5.8244,5.8352,5.8458,5.8668,5.9385,6.0381,6.0941,6.1978,6.3161,6.3009,6.3632,6.4636,6.515,6.5559,6.5833,6.5833,6.6171,6.661,6.661,6.6976,6.7378,6.7378,6.747,6.7552,6.7552,6.7633,6.7687,6.7687,6.7687,6.7687,6.7687,6.7687,6.754,6.7026,6.6916,6.6769,6.6256,6.6145,6.5909,6.5101,6.4605,6.4302,6.4302,6.394,6.3686,6.3686,6.3429,6.3135,6.2817,6.2705,6.2629,6.2526,6.2526,6.2526,6.2526,6.2629,6.2826,6.3119,6.3771,6.4039,6.3925,6.4731,6.4898,6.4526,6.4307,6.4197]}]]